     2.10           OBSERVATION DATA    G (GPS)             RINEX VERSION / TYPE
teqc 2002Mar14 SOPAC 20050725 22:53:45UTC                   PGM / RUN BY / DATE
Linux 2.0.36|Pentium II|gcc -static|Linux|486/DX+           COMMENT
BIT 2 OF LLI FLAGS DATA COLLECTED UNDER A/S CONDITION       COMMENT
Barham                                                      MARKER NAME
BRHM                                                        MARKER NUMBER
Tim Dowell                                                  OBSERVER / AGENCY
0220202930 TRIMBLE 4700 1.30                                REC # / TYPE / VERS
0220063966 TRM22020.00+GP NONE                              ANT # / TYPE
 -2609079.0000 -4142666.0000  4074379.0000                  APPROX POSITION XYZ
        2.0000        0.0000        0.0000                  ANTENNA: DELTA H/E/N
     1     1                                                WAVELENGTH FACT L1/2
     6    L1    L2    C1    P2    P1    D1                  # / TYPES OF OBSERV
    15.0000                                                 INTERVAL
Northern California Height Modernization 2004               COMMENT
                                                            COMMENT
SOPAC - Scripps Orbit and Permanent Array Center            COMMENT
IGPP - Institute of Geophysics and Planetary Physics        COMMENT
SIO - Scripps Institution of Oceanography                   COMMENT
UCSD - University of California, San Diego                  COMMENT
                                                            COMMENT
email: archive@gpsmail.ucsd.edu                             COMMENT
ftp://garner.ucsd.edu                                       COMMENT
http://sopac.ucsd.edu                                       COMMENT
                                                            COMMENT
                                                            COMMENT
Approximate Lat, Lon : 39.957, -122.203                     COMMENT
                                                            COMMENT
SNR is mapped to RINEX snr flag value [1-9]                 COMMENT
L1: 3 -> 1; 8 -> 5; 40 -> 9                                 COMMENT
L2: 1 -> 1; 5 -> 5; 60 -> 9                                 COMMENT
  2004     9    10    21     0   15.0000000     GPS         TIME OF FIRST OBS
                                                            END OF HEADER
 04  9 10 21  0 15.0000000  0  5G 3G 8G13G23G27
      4871.67759     -1648.69157  23136421.4924   23136421.2424
      -292.5314
    -21097.56959    -15661.79357  22847988.0554   22847987.0394
      1242.7664
     19802.36759      6279.10758  20275526.2274   20275523.0004
     -1180.4064
     61225.36059     28053.92558  21602517.4064   21602512.7584
     -3586.5944
      -247.38959     -4383.52558  21501951.0944   21501949.2304
         8.5634
 04  9 10 21  0 30.0000000  0  6G 3G 8G13G19G23G27
      9327.50449      1823.41447  23137269.8284   23137269.3674
      -301.5004
    -39714.25449    -30168.27147  22844445.0314   22844444.2934
      1239.4064
     37567.59749     20122.16048  20278906.7974   20278903.5634
     -1188.2664
    -42651.50459    -31886.44057  24042038.7504   24042037.5554
      1331.3444
    115074.00049     70013.90248  21612764.7504   21612759.9494
     -3593.0784
      -349.66249     -4463.18548  21501931.8204   21501929.4224
         5.1724
 04  9 10 21  0 45.0000000  0  6G 3G 8G13G19G23G27
     13935.97849      5414.46847  23138146.4064   23138146.5004
      -312.5784
    -58264.94249    -44623.31847  22840915.0164   22840913.9774
      1234.2194
     55467.71349     34070.30548  20282313.3754   20282309.7304
     -1198.1564
    -62575.84349    -47411.81047  24038246.9534   24038246.1214
      1325.6254
    169035.85349    112062.07448  21623032.9454   21623028.5514
     -3601.5474
      -383.22449     -4489.32748  21501925.3444   21501923.1764
        -0.2504
 04  9 10 21  1  0.0000000  0  6G 3G 8G13G19G23G27
     18722.35049      9144.13947  23139057.1954   23139056.9414
      -324.9064
    -76724.48449    -59007.34247  22837401.9064   22837401.0904
      1227.7034
     73528.04449     48143.28348  20285750.0704   20285746.6524
     -1209.3124
    -82402.55249    -62861.06247  24034473.8204   24034472.7734
      1318.6884
    223136.04649    154218.04848  21633328.3364   21633323.6334
     -3611.1724
      -323.10549     -4442.45348  21501936.8834   21501934.5704
        -7.0164
 04  9 10 21  1 15.0000000  0  6G 3G 8G13G19G23G27
     23700.71349     13023.40647  23140004.2194   23140004.1214
      -339.0314
    -95078.68449    -73309.28647  22833909.6724   22833908.7854
      1219.3444
     91762.48949     62351.95748  20289219.6564   20289216.2544
     -1222.2194
   -102117.30849    -78223.10347  24030722.6254   24030721.6054
      1309.8444
    277388.32749    196492.54348  21643652.2274   21643647.9104
     -3622.6564
      -155.35549     -4311.73148  21501968.5864   21501966.4884
       -15.5624
 04  9 10 21  1 30.0000000  0  6G 3G 8G13G19G23G27
     28890.92349     17067.76747  23140991.8754   23140991.9804
      -352.7974
   -113307.86149    -87513.80847  22830440.5784   22830439.6054
      1211.3754
    110190.72249     76711.59948  20292726.9774   20292723.4884
     -1234.7664
   -121700.10049    -93482.33147  24026996.1254   24026994.8284
      1301.4224
    331812.13149    238900.67148  21654008.5784   21654004.0274
     -3633.6724
       139.46349     -4081.99348  21502024.7734   21502023.0474
       -23.5944
 04  9 10 21  1 45.0000000  0  6G 3G 8G13G19G23G27
     34302.22149     21284.38447  23142021.4774   23142022.0514
      -368.4694
   -131403.20049   -101614.04747  22826996.8134   22826995.8324
      1201.6094
    128821.97349     91229.46948  20296271.9774   20296268.9774
     -1249.2504
   -141141.45449   -108631.32247  24023296.3054   24023295.2504
      1290.9844
    386416.39049    281449.43148  21664399.0084   21664395.1644
     -3646.6414
       570.57949     -3746.03948  21502106.9384   21502105.0434
       -33.5944
 04  9 10 21  2  0.0000000  0  6G 3G 8G13G19G23G27
     39942.93349     25679.77247  23143095.2194   23143094.9184
      -383.5624
   -149356.49449   -115603.59147  22823580.8594   22823579.6414
      1192.2664
    147664.46749    105911.93048  20299857.6804   20299854.0474
     -1263.1094
   -160433.01049   -123663.58447  24019625.0554   24019623.8634
      1281.1414
    441209.24849    324145.14548  21674826.2974   21674821.7974
     -3659.0314
      1145.94949     -3297.69348  21502216.1804   21502214.5394
       -43.0314
 04  9 10 21  2 15.0000000  0  6G 3G 8G13G19G23G27
     45811.28249     30252.55947  23144211.5944   23144211.8324
      -398.3914
   -167169.79249   -129484.04747  22820190.8134   22820190.1334
      1183.3594
    166716.51549    120757.68148  20303482.9694   20303479.7734
     -1276.6874
   -179576.40249   -138580.43247  24015981.5554   24015981.2154
      1271.7814
    496188.52149    366986.12248  21685288.5084   21685284.1724
     -3671.0004
      1863.75849     -2738.34748  21502353.1884   21502350.5784
       -52.1254
 04  9 10 21  2 30.0000000  0  6G 3G 8G13G19G23G27
     51917.59249     35010.75347  23145373.9064   23145373.6254
      -415.4534
   -184832.71949   -143247.34047  22816829.8284   22816829.0354
      1172.1254
    185988.22149    135774.60048  20307150.6024   20307147.2854
     -1292.4694
   -198560.94749   -153373.45747  24012369.5944   24012368.3754
      1259.8594
    551364.39649    409980.28748  21695788.1724   21695783.8834
     -3685.2974
      2733.97749     -2060.24348  21502518.4694   21502516.5314
       -63.4534
 04  9 10 21  2 45.0000000  0  6G 3G 8G13G19G23G27
     58261.15649     39953.81947  23146580.6024   23146581.0554
      -430.0474
   -202346.02449   -156894.03647  22813496.8444   22813495.7774
      1163.2974
    205478.88749    150962.13248  20310859.4224   20310855.8554
     -1305.9694
   -217387.33149   -168043.24047  24008786.7424   24008786.2274
      1250.6254
    606735.83949    453126.84148  21706324.8834   21706320.3134
     -3697.2664
      3755.82549     -1263.98548  21502713.0864   21502710.7734
       -72.5004
 04  9 10 21  3  0.0000000  0  6G 3G 8G13G19G23G27
     64828.86949     45071.55247  23147830.8444   23147830.7544
      -446.2974
   -219723.59549   -170434.97547  22810190.4144   22810189.0274
      1153.0004
    225175.22849    166309.93248  20314607.4064   20314603.8134
     -1320.9534
   -236068.43249   -182599.82647  24005231.4694   24005231.0944
      1239.6254
    662289.37249    496415.28948  21716896.2814   21716891.9964
     -3710.6414
      4915.73549      -360.14548  21502933.7734   21502931.2584
       -82.9844
 04  9 10 21  3 15.0000000  0  6G 3G 8G13G19G23G27
     71626.30449     50368.28947  23149124.6954   23149124.0664
      -460.0624
   -236959.74049   -183865.69847  22806910.3834   22806909.5704
      1145.0784
    245082.63649    181822.19448  20318395.5944   20318392.1294
     -1333.4694
   -254598.48249   -197038.72447  24001705.6564   24001704.5434
      1231.0164
    718030.15849    539849.64848  21727503.6024   21727499.0124
     -3721.5314
      6219.09649       655.46948  21503181.9144   21503179.4734
       -90.9224
 04  9 10 21  3 30.0000000  0  6G 3G 8G13G19G23G27
     78636.06649     55830.47847  23150458.1564   23150457.9734
      -474.4534
   -254071.78649   -197199.72747  22803653.5084   22803652.8594
      1136.5944
    265183.70349    197485.37048  20322220.7664   20322217.4144
     -1346.5314
   -272994.76249   -211373.38047  23998204.1724   23998203.7854
      1221.9384
    773940.57149    583416.19148  21738143.1644   21738138.8754
     -3732.9534
      7648.40649      1769.22948  21503453.6254   21503451.4224
       -99.5004
 04  9 10 21  3 45.0000000  0  6G 3G 8G13G19G23G27
     85859.38549     61459.06447  23151832.5164   23151832.5864
      -488.5944
   -271058.88249   -210436.39347  22800421.5084   22800419.9224
      1128.3914
    285479.61349    213300.35948  20326082.9614   20326079.6884
     -1359.4844
   -291255.83349   -225602.69847  23994729.9304   23994728.8714
      1213.0314
    830021.57249    627115.64548  21748814.8754   21748810.2384
     -3744.3594
      9204.64049      2981.89548  21503750.1024   21503747.4844
      -107.9694
 04  9 10 21  4  0.0000000  0  6G 3G 8G13G19G23G27
     93293.25549     67251.72547  23153247.3134   23153247.1334
      -502.6724
   -287924.33949   -223578.26847  22797212.4384   22797211.3324
      1120.2504
    305967.30449    229264.78748  20329981.6024   20329978.0354
     -1372.3444
   -309384.59649   -239728.89447  23991280.0084   23991278.8794
      1204.1254
    886269.81949    670945.43048  21759518.3754   21759514.0004
     -3755.5784
     10884.47649      4290.86348  21504069.3364   21504067.0514
      -116.2504
 04  9 10 21  4 15.0000000  0  6G 3G 8G13G19G23G27
    100933.62449     73205.29347  23154701.2274   23154700.9184
      -516.1414
   -304671.84049   -236628.25247  22794024.9694   22794023.8714
      1112.6564
    326642.64449    245375.46348  20333916.2584   20333912.9734
     -1384.5004
   -327384.69449   -253754.84647  23987854.8364   23987853.3634
      1195.8134
    942681.06449    714902.22948  21770253.3204   21770248.7074
     -3766.1094
     12683.72749      5692.89948  21504411.7894   21504409.6094
      -123.8284
 04  9 10 21  4 30.0000000  0  6G 3G 8G13G19G23G27
    108771.59749     79312.82047  23156192.4844   23156192.5124
      -529.1414
   -321310.72449   -249593.59047  22790858.4304   22790858.1644
      1105.5634
    347496.57449    261625.27648  20337884.4924   20337881.3164
     -1396.3754
   -345264.96949   -267687.45447  23984451.9924   23984450.8134
      1187.9534
    999245.95849    758978.74248  21781016.9144   21781012.7194
     -3776.2344
     14593.33049      7180.90648  21504775.2424   21504772.6804
      -131.0624
 04  9 10 21  4 45.0000000  0  6G 3G 8G13G19G23G27
    116809.52649     85576.18047  23157722.1414   23157722.0594
      -542.5004
   -337839.00249   -262472.72147  22787713.3284   22787712.2074
      1098.1884
    368531.30349    278015.97748  20341887.0704   20341883.3134
     -1408.2974
   -363023.00749   -281524.78247  23981072.5234   23981071.8284
      1179.7974
   1055966.55849    803176.59048  21791810.8984   21791806.2584
     -3786.5314
     16615.46049      8756.61248  21505160.1414   21505158.1454
      -138.5474
 04  9 10 21  5  0.0000000  0  6G 3G 8G13G19G23G27
    125037.64149     91987.71047  23159288.1484   23159287.5514
      -555.0164
   -354266.52449   -275273.36047  22784587.7114   22784586.4804
      1091.7034
    389737.11749    294539.98448  20345922.5944   20345918.8404
     -1419.4844
   -380668.33049   -295274.29847  23977714.9774   23977713.8984
      1172.4534
   1112832.90349    847488.00748  21802632.0164   21802627.7154
     -3796.0314
     18739.96649     10412.07248  21505564.2114   21505562.3014
      -145.1094
 04  9 10 21  5 15.0000000  0  6G 3G 8G13G19G23G27
    133448.40449     98541.61447  23160888.1804   23160888.1054
      -567.6724
   -370601.08649   -288001.56447  22781478.8284   22781478.0944
      1085.0314
    411106.47249    311191.43148  20349989.2894   20349985.8244
     -1430.9224
   -398208.31849   -308941.71947  23974377.1564   23974375.2584
      1164.9844
   1169837.13649    891906.86748  21813479.6254   21813475.5004
     -3805.7344
     20959.31449     12141.44448  21505986.2734   21505984.5234
      -151.9374
 04  9 10 21  5 30.0000000  0  6G 3G 8G13G19G23G27
    142041.95849    105237.91147  23162523.7034   23162523.3914
      -579.1724
   -386842.73549   -300657.36347  22778388.5164   22778387.2194
      1079.5164
    432639.17149    327970.15948  20354086.5084   20354082.8834
     -1441.1564
   -415642.75249   -322526.91247  23971059.4144   23971057.9494
      1158.5634
   1226978.97549    936432.95848  21824353.5314   21824348.8244
     -3814.2034
     23273.07049     13944.39448  21506426.9064   21506424.6374
      -157.5944
 04  9 10 21  5 45.0000000  0  6G 3G 8G13G19G23G27
    150813.51449    112072.92047  23164192.4694   23164192.0554
      -590.7034
   -402995.94049   -313244.23147  22775314.4694   22775313.5824
      1073.9384
    454330.66949    344872.62448  20358213.9694   20358210.3554
     -1451.4374
   -432975.98849   -336033.25947  23967760.9144   23967759.6954
      1152.1724
   1284253.41149    981062.36248  21835252.4304   21835248.0864
     -3822.7504
     25676.69649     15817.35748  21506884.1484   21506881.9924
      -163.2504
 04  9 10 21  6  0.0000000  0  6G 3G 8G13G19G23G27
    159763.72749    119047.13447  23165895.9224   23165895.8014
      -602.2194
   -419060.42949   -325761.99847  22772257.3984   22772256.6484
      1068.4534
    476181.38549    361899.15448  20362372.4144   20362369.0044
     -1461.6094
   -450207.34849   -349460.22547  23964481.2194   23964480.4264
      1145.7194
   1341660.87749   1025795.43348  21846176.9144   21846172.5164
     -3831.1724
     28170.38849     17760.49548  21507358.7274   21507356.5744
      -168.8124
 04  9 10 21  6 15.0000000  0  6G 3G 8G13G19G23G27
    168878.71149    126149.74547  23167630.4534   23167630.1414
      -613.2814
   -435050.29449   -338221.59147  22769214.5784   22769213.6884
      1063.4064
    498177.43049    379038.93148  20366557.7584   20366554.6524
     -1471.2974
   -467350.38549   -362818.33347  23961219.4384   23961218.2424
      1139.7664
   1399187.27049   1070621.16948  21857123.6254   21857118.9304
     -3839.1874
     30740.10349     19762.88748  21507847.3834   21507845.2854
      -174.0164
 04  9 10 21  6 30.0000000  0  6G 3G 8G13G19G23G27
    178169.19649    133389.09947  23169398.1064   23169398.2634
      -625.1874
   -450955.11349   -350614.93447  22766187.9424   22766187.2554
      1057.5004
    520329.28949    396300.12348  20370773.2864   20370770.1734
     -1481.9374
   -484394.33649   -376099.25047  23957975.1384   23957974.8804
      1133.0004
   1456842.77249   1115547.52248  21868095.2084   21868090.8564
     -3847.9844
     33396.41349     21832.75448  21508353.4664   21508350.6884
      -179.9374
 04  9 10 21  6 45.0010000  0  6G 3G 8G13G19G23G27
    187629.66949    140760.92147  23171198.7474   23171198.5284
      -636.3444
   -466782.43849   -362947.87647  22763176.1774   22763175.0244
      1052.4384
    542632.27449    413679.07548  20375017.5754   20375014.1344
     -1491.7974
   -501346.24249   -389308.44847  23954749.8254   23954748.8174
      1126.8594
   1514624.79949   1160572.45348  21879090.5604   21879086.3414
     -3856.0004
     36133.06349     23965.21048  21508873.6304   21508872.2784
      -185.1094
 04  9 10 21  7  0.0010000  0  6G 3G 8G13G19G23G27
    197256.69349    148262.52247  23173030.6064   23173030.5134
      -647.5784
   -482532.04049   -375220.26147  22760179.1694   22760178.0174
      1047.2344
    565081.19849    431171.74048  20379289.2864   20379285.9154
     -1501.7504
   -518205.74749   -402445.65047  23951541.7084   23951540.4114
      1120.7974
   1572523.27549   1205688.12448  21890108.3494   21890104.0014
     -3864.1564
     38947.32549     26158.15648  21509409.3804   21509407.6064
      -190.4534
 04  9 10 21  7 15.0010000  0  6G 3G 8G13G19G23G27
    207051.64549    155894.97847  23174894.6384   23174894.6184
      -658.3594
   -498204.57849   -387432.59747  22757196.4744   22757195.5874
      1042.4064
    587678.22949    448779.82748  20383589.4194   20383585.7474
     -1511.2194
   -534973.19749   -415511.13147  23948350.7004   23948349.2714
      1114.9694
   1630542.41349   1250897.83548  21901149.2394   21901144.4504
     -3871.7504
     41839.93449     28412.16348  21509959.9034   21509957.5174
      -195.2034
 04  9 10 21  7 30.0010000  0  6G 3G 8G13G19G23G27
    217013.45549    163657.46347  23176790.1224   23176789.6884
      -669.6254
   -513801.20549   -399585.76847  22754228.9894   22754227.9034
      1037.2814
    610422.18349    466502.37748  20387917.5754   20387913.5954
     -1521.0784
   -551649.47349   -428505.57947  23945177.1304   23945176.2984
      1108.7034
   1688680.95249   1296200.56148  21912212.4424   21912207.9034
     -3879.8594
     44809.59449     30726.17148  21510525.1464   21510522.8724
      -200.5004
 04  9 10 21  7 45.0010000  0  6G 3G 8G13G19G23G27
    227133.58349    171543.29447  23178715.6854   23178715.5054
      -679.6724
   -529330.56149   -411686.54147  22751273.9424   22751272.8924
      1033.3134
    633304.46149    484332.73148  20392271.9504   20392268.6224
     -1529.8124
   -568243.01849   -441435.53247  23942019.4814   23942018.0214
      1103.7194
   1746930.06149   1341589.45648  21923296.8174   21923292.8134
     -3886.6724
     47847.67949     33093.52548  21511103.1384   21511100.9854
      -204.5314
 04  9 10 21  8  0.0010000  0  6G 3G 8G13G19G23G27
    237408.89149    179550.04647  23180670.9274   23180671.2674
      -690.3594
   -544795.98049   -423737.49347  22748330.8174   22748329.1144
      1028.7194
    656321.85649    502268.36248  20396651.9744   20396648.3844
     -1539.1724
   -584756.57749   -454303.18447  23938876.8724   23938875.5444
      1098.0164
   1805286.31749   1387061.83948  21934401.7714   21934397.1144
     -3894.0944
     50950.83149     35511.58248  21511693.6144   21511691.4854
      -209.2034
 04  9 10 21  8 15.0010000  0  6G 3G 8G13G19G23G27
    247842.04849    187679.80747  23182656.2634   23182656.5324
      -701.0944
   -560194.99049   -435736.68647  22745399.8804   22745399.2674
      1024.1254
    679476.98749    520311.32348  20401058.1464   20401055.0284
     -1548.5164
   -601187.28549   -467106.24747  23935750.3804   23935749.0564
      1092.3284
   1863752.07149   1432619.55348  21945527.5284   21945522.9274
     -3901.5784
     54121.36449     37982.14948  21512296.8334   21512294.6534
      -213.8594
 04  9 10 21  8 30.0010000  0  6G 3G 8G13G19G23G27
    258433.95349    195933.26047  23184672.1144   23184671.9384
      -711.8124
   -575526.69049   -447683.43547  22742482.9194   22742481.4544
      1019.5164
    702770.70949    538462.26448  20405490.7554   20405487.5484
     -1557.8594
   -617534.05249   -479843.91947  23932640.0054   23932638.3764
      1086.5784
   1922328.02849   1478263.11948  21956673.9974   21956669.7434
     -3909.0944
     57360.16849     40505.89848  21512913.2864   21512910.9034
      -218.5474
 04  9 10 21  8 45.0010000  0  6G 3G 8G13G19G23G27
    269179.04749    204306.07347  23186716.6534   23186717.0754
      -720.9064
   -590797.11349   -459582.42847  22739576.6384   22739575.5444
      1016.5164
    726197.34149    556716.78948  20409948.9504   20409945.4744
     -1565.6724
   -633802.19749   -492520.35047  23929544.1384   23929542.7004
      1082.4384
   1981008.19149   1523987.90848  21967840.7634   21967836.2434
     -3914.9224
     60661.47449     43078.34848  21513541.3884   21513539.1964
      -221.5624
 04  9 10 21  9  0.0010000  0  6G 3G 8G13G19G23G27
    280079.40049    212799.88547  23188790.9814   23188790.6614
      -731.9224
   -606003.92349   -471431.85447  22736682.9354   22736681.8454
      1011.6254
    749759.04049    575076.54348  20414432.2314   20414428.6064
     -1575.2974
   -649989.42149   -505133.70547  23926463.5914   23926461.8104
      1076.4224
   2039794.47949   1569795.37648  21979027.1694   21979023.1534
     -3922.5784
     64027.24449     45701.04048  21514181.9194   21514179.6534
      -226.5004
 04  9 10 21  9 15.0010000  0  6G 3G 8G13G19G23G27
    291136.27149    221415.66247  23190894.7784   23190894.7944
      -741.9844
   -621146.13149   -483230.94247  22733801.7084   22733800.0444
      1007.7504
    773456.75649    593542.30148  20418942.0524   20418938.5054
     -1583.9224
   -666094.48149   -517683.04147  23923398.9504   23923397.9624
      1071.2814
   2098687.74049   1615686.20948  21990234.3414   21990229.9934
     -3929.4064
     67458.36249     48374.64648  21514834.9504   21514832.4854
      -230.4844
 04  9 10 21  9 30.0010000  0  6G 3G 8G13G19G23G27
    302345.90449    230150.44847  23193028.5754   23193027.7784
      -752.4534
   -636227.74649   -494982.82347  22730931.3644   22730930.6224
      1003.3444
    797286.80149    612111.16848  20423476.7864   20423473.0714
     -1593.0784
   -682120.81349   -530171.01647  23920349.2944   23920348.0484
      1065.7504
   2157683.90049   1661657.21748  22001461.2004   22001456.7714
     -3936.5164
     70950.85249     51096.07848  21515499.6224   21515497.1854
      -234.9374
 04  9 10 21  9 45.0010000  0  6G 3G 8G13G19G23G27
    313713.08749    239008.01247  23195191.2244   23195190.9464
      -763.2034
   -651244.11749   -506683.85547  22728073.6384   22728072.7434
       998.7814
    821253.75949    630786.72348  20428037.2634   20428033.5484
     -1602.4844
   -698063.52249   -542593.85947  23917315.4114   23917313.9464
      1059.9224
   2216787.48749   1707711.93748  22012708.0674   22012703.7784
     -3943.9534
     74509.41749     53869.01448  21516176.7474   21516174.7004
      -239.6414
 04  9 10 21 10  0.0010000  0  6G 3G 8G13G19G23G27
    325232.63749    247984.31747  23197383.3804   23197383.1144
      -773.1414
   -666200.26649   -518337.97447  22725227.9974   22725226.3334
       995.0634
    845352.43749    649564.90448  20432623.4114   20432619.5564
     -1610.9534
   -713927.48149   -554955.31747  23914296.5364   23914295.1104
      1054.9534
   2275993.04249   1753846.10448  22023974.5604   22023970.1034
     -3950.4694
     78128.82549     56689.32648  21516865.4034   21516863.0994
      -243.3914
 04  9 10 21 10 15.0010000  0  6G 3G 8G13G19G23G27
    336905.53449    257080.08847  23199604.4354   23199604.6384
      -783.0314
   -681095.62549   -529944.70847  22722393.5054   22722391.9934
       991.3594
    869583.97649    668446.62448  20437234.3174   20437230.7394
     -1619.5624
   -729711.43349   -567254.43547  23911292.6774   23911291.4034
      1049.8754
   2335301.33849   1800060.34348  22035260.4584   22035256.2904
     -3956.9534
     81809.68949     59557.54448  21517565.9974   21517563.4544
      -247.1254
 04  9 10 21 10 30.0010000  0  6G 3G 8G13G19G23G27
    348730.85349    266294.65247  23201854.9664   23201854.9624
      -793.3124
   -695931.40149   -541505.01247  22719570.2394   22719568.7124
       987.1254
    893947.18549    687430.94748  20441870.3804   20441866.9664
     -1628.5314
   -745416.21149   -579491.87147  23908304.5524   23908303.0954
      1044.3594
   2394711.07249   1846353.61148  22046565.9274   22046561.5874
     -3963.9694
     85550.96849     62472.83948  21518278.0284   21518275.4464
      -251.3444
 04  9 10 21 10 45.0010000  0  6G 3G 8G13G19G23G27
    360703.93649    275624.35447  23204133.3104   23204133.0714
      -804.1564
   -710712.17349   -553022.47447  22716757.5364   22716756.5054
       982.5634
    918437.26549    706514.12748  20446530.9504   20446527.3684
     -1637.9374
   -761046.29349   -591671.10947  23905329.9744   23905328.6304
      1038.4694
   2454217.33249   1892722.10148  22057889.4814   22057885.4744
     -3971.3754
     89347.88649     65431.48648  21519000.2394   21518998.2824
      -256.0624
 04  9 10 21 11  0.0010000  0  6G 3G 8G13G19G23G27
    372837.29549    285078.94947  23206442.2554   23206442.0874
      -813.2504
   -725425.53749   -564487.39547  22713957.5364   22713956.4974
       979.4844
    943066.68949    725705.88148  20451217.5834   20451214.0874
     -1645.6724
   -776588.99749   -603782.27147  23902372.3174   23902371.4384
      1034.0944
   2513832.34049   1939175.33848  22069233.8104   22069229.8644
     -3977.0474
     93212.64849     68442.99848  21519735.8884   21519734.0364
      -259.0164
 04  9 10 21 11 15.0010000  0  6G 3G 8G13G19G23G27
    385110.54649    294642.53447  23208777.9974   23208777.6184
      -822.9534
   -740092.06649   -575915.83947  22711166.3174   22711165.6144
       975.9844
    967815.11549    744990.37648  20455926.9664   20455923.7244
     -1654.0164
   -792064.44649   -615841.01047  23899427.3494   23899426.2394
      1029.3134
   2573535.56349   1985697.30248  22080595.1144   22080590.8064
     -3983.2034
     97124.84949     71491.48348  21520480.3174   21520477.6884
      -262.5474
 04  9 10 21 11 30.0010000  0  6G 3G 8G13G19G23G27
    397533.46049    304322.76647  23211141.3964   23211141.4704
      -833.3124
   -754702.12249   -587300.25047  22708386.4894   22708385.3334
       972.0004
    992692.02949    764374.98448  20460661.0834   20460657.3494
     -1662.9064
   -807462.60949   -627839.52947  23896497.0054   23896495.7514
      1023.8284
   2633336.34949   2032295.28548  22091974.4894   22091970.7434
     -3990.0784
    101094.00149     74584.33948  21521235.6224   21521233.0134
      -266.6564
 04  9 10 21 11 45.0010000  0  6G 3G 8G13G19G23G27
    410097.63349    314113.04547  23213532.6304   23213532.5054
      -841.9694
   -769264.09649   -598647.21747  22705615.3494   22705614.1654
       969.5004
   1017689.23749    783853.33448  20465417.6614   20465414.2314
     -1670.1094
   -822791.65249   -639784.18447  23893580.0834   23893578.9704
      1020.0164
   2693226.14449   2078962.63748  22103371.0444   22103366.8374
     -3995.2664
    105111.63349     77714.97748  21521999.9354   21521997.5914
      -269.0944
 04  9 10 21 12  0.0010000  0  6G 3G 8G13G19G23G27
    422810.41949    324019.13947  23215951.6384   23215951.2204
      -852.6724
   -783770.77649   -609951.09547  22702855.0674   22702853.5014
       965.0164
   1042814.06449    803431.12148  20470198.8104   20470195.5014
     -1679.4694
   -838043.98149   -651669.07447  23890678.0754   23890676.2634
      1014.0314
   2753211.93349   2125704.78448  22114786.4974   22114781.5564
     -4002.5624
    109184.89049     80888.95548  21522775.1924   21522772.8994
      -273.6874
 04  9 10 21 12 15.0010000  0  6G 3G 8G13G19G23G27
    435674.70549    334043.27647  23218399.4424   23218399.1304
      -862.5624
   -798219.55749   -621209.84947  22700105.2474   22700103.9974
       961.4224
   1068069.29249    823110.51148  20475004.7944   20475001.0834
     -1687.9534
   -853216.48049   -663491.75347  23887790.8024   23887788.7164
      1008.8914
   2813296.40049   2172523.81348  22126219.9034   22126216.0054
     -4008.7974
    113316.48149     84108.38348  21523561.4894   21523559.0564
      -277.3444
 04  9 10 21 12 30.0010000  0  6G 3G 8G13G19G23G27
    448682.96449    344179.61947  23220875.3414   23220874.6034
      -872.0944
   -812618.12049   -632429.48847  22697364.7634   22697364.3254
       958.0164
   1093447.21149    842885.51748  20479834.2864   20479830.8294
     -1696.1254
   -868316.60449   -675258.05047  23884917.2244   23884915.7314
      1004.1564
   2873471.63649   2219413.59048  22137670.8804   22137666.9114
     -4014.8284
    117498.69549     87367.26448  21524357.2634   21524354.9114
      -280.6254
 04  9 10 21 12 45.0010000  0  6G 3G 8G13G19G23G27
    461840.44549    354432.22447  23223378.9814   23223378.6424
      -882.0624
   -826961.08349   -643605.79047  22694636.2864   22694634.6464
       954.4384
   1118952.96449    862760.12648  20484687.5444   20484684.3884
     -1704.6094
   -883338.85949   -686963.66247  23882058.2004   23882056.9814
       998.9384
   2933742.58049   2266377.92848  22149140.2164   22149136.0054
     -4021.1094
    121736.50849     90669.46348  21525163.6224   21525161.2984
      -284.2814
 04  9 10 21 13  0.0010000  0  6G 3G 8G13G19G23G27
    475148.79049    364802.38447  23225911.0834   23225910.9784
      -892.4694
   -841247.14549   -654737.74947  22691917.3334   22691916.4854
       950.2504
   1144588.19449    882735.63448  20489565.9424   20489562.2044
     -1713.5314
   -898281.44349   -698607.18947  23879214.5444   23879213.6224
       993.3134
   2994110.57649   2313417.90148  22160628.0444   22160623.4704
     -4027.9694
    126031.49649     94016.21648  21525980.8724   21525978.5874
      -288.4534
 04  9 10 21 13 15.0010000  0  6G 3G 8G13G19G23G27
    488608.87849    375290.78847  23228472.7244   23228472.5834
      -902.7504
   -855475.61149   -665824.82947  22689209.5994   22689208.4584
       946.2974
   1170353.70349    902812.64848  20494468.8964   20494465.3334
     -1722.3754
   -913143.14149   -710187.70247  23876386.4664   23876385.0754
       987.7034
   3054576.25249   2360533.98248  22172134.2084   22172129.9784
     -4034.6254
    130384.40349     97408.09948  21526809.2554   21526807.0134
      -292.4374
 04  9 10 21 13 30.0010000  0  6G 3G 8G13G19G23G27
    502211.38149    385890.17047  23231060.7164   23231060.6534
      -911.1094
   -869655.71049   -676874.22047  22686511.1614   22686509.9854
       944.2194
   1196240.14549    922983.89348  20499395.0834   20499391.6574
     -1729.2664
   -927933.03549   -721712.24747  23873572.7244   23873570.6034
       984.1254
   3115130.08049   2407718.75348  22183657.4974   22183653.0054
     -4039.3124
    134785.73549    100837.71648  21527647.0674   21527644.5794
      -294.5624
 04  9 10 21 13 45.0010000  0  6G 3G 8G13G19G23G27
    515960.63949    396603.89247  23233677.3644   23233677.2314
      -921.4224
   -883783.40549   -687882.78647  22683822.7164   22683821.4624
       940.2504
   1222251.79449    943252.71748  20504344.8724   20504340.9894
     -1738.2194
   -942646.60249   -733177.31947  23870771.8104   23870770.5524
       978.4224
   3175776.08649   2454975.36148  22195197.8964   22195193.8884
     -4046.0624
    139239.65149    104308.31748  21528494.2634   21528492.2904
      -298.6254
 04  9 10 21 14  0.0010000  0  6G 3G 8G13G19G23G27
    529860.23949    407434.76347  23236322.2944   23236322.2084
      -931.5164
   -897855.18949   -698847.78247  22681144.9114   22681143.7204
       936.3914
   1248392.26149    963621.91348  20509319.2714   20509315.8764
     -1746.9374
   -957280.10149   -744580.01847  23867987.0834   23867985.8604
       972.8914
   3236517.59649   2502306.37348  22206756.6464   22206752.6574
     -4052.5624
    143749.61649    107822.57948  21529352.5994   21529350.0284
      -302.4534
 04  9 10 21 14 15.0010000  0  6G 3G 8G13G19G23G27
    543905.86649    418379.44647  23238995.2084   23238995.0364
      -940.7194
   -911875.38349   -709772.57847  22678477.3334   22678475.8334
       933.4694
   1274656.99649    984087.94148  20514317.1534   20514314.0174
     -1754.6414
   -971837.62249   -755923.48647  23865217.0914   23865215.8104
       968.4064
   3297350.00849   2549708.23348  22218332.9584   22218327.9664
     -4058.0474
    148311.09449    111376.99048  21530220.9274   21530218.6184
      -305.3284
 04  9 10 21 14 30.0010000  0  6G 3G 8G13G19G23G27
    558091.59049    429433.28947  23241694.1924   23241693.7904
      -950.8594
   -925850.12049   -720661.94647  22675817.8884   22675817.0834
       929.7034
   1301040.17449   1004646.25248  20519337.8024   20519334.3104
     -1763.2974
   -986324.81549   -767212.14747  23862459.5444   23862458.6224
       963.0004
   3358267.16449   2597176.10648  22229924.9664   22229920.6224
     -4064.4534
    152918.00849    114966.79448  21531097.6064   21531094.7714
      -309.1414
 04  9 10 21 14 45.0010000  0  6G 3G 8G13G19G23G27
    572431.95149    440607.61647  23244423.4664   23244423.1534
      -960.7974
   -939764.86249   -731504.58248  22673169.4814   22673168.3644
       926.1254
   1327556.13949   1025308.04748  20524383.6614   20524379.7864
     -1771.7034
  -1000726.98849   -778434.58247  23859719.8174   23859718.1574
       957.7664
   3419283.19949   2644721.04848  22241535.8494   22241531.7634
     -4070.5474
    157584.76249    118603.23548  21531985.2634   21531982.9154
      -312.6564
 04  9 10 21 15  0.0010000  0  6G 3G 8G13G19G23G27
    586914.88049    451893.05247  23247179.4194   23247179.5524
      -971.0314
   -953631.83049   -742309.99247  22670531.2714   22670529.8564
       922.1414
   1354192.82749   1046063.90948  20529452.2554   20529448.8924
     -1780.5474
  -1015055.96249   -789599.98147  23856992.8334   23856991.0244
       952.0634
   3480385.90749   2692333.51948  22253163.2634   22253159.4704
     -4077.0784
    162299.15449    122276.80548  21532882.3414   21532880.4114
      -316.5944
 04  9 10 21 15 15.0010000  0  6G 3G 8G13G19G23G27
    601543.92949    463292.31547  23249963.0134   23249963.1964
      -980.1724
   -967447.53149   -753075.44448  22667901.8104   22667900.6064
       919.3594
   1380953.79349   1066916.60648  20534544.8804   20534541.1534
     -1788.2034
  -1029307.91949   -800705.35347  23854281.1384   23854279.4744
       947.5314
   3541578.60749   2740016.10548  22264808.0674   22264803.6184
     -4082.5164
    167064.56649    125990.11948  21533789.2944   21533786.7474
      -319.4224
 04  9 10 21 15 30.0010000  0  6G 3G 8G13G19G23G27
    616315.87049    474802.93447  23252774.2554   23252773.7864
      -989.5474
   -981215.40649   -763803.62447  22665282.1694   22665280.9424
       916.2034
   1407835.85249   1087863.66948  20539660.3104   20539656.6344
     -1796.1564
  -1043485.73649   -811752.95647  23851582.9664   23851581.3064
       942.8444
   3602857.78049   2787766.07748  22276469.0674   22276464.5444
     -4088.1094
    171877.78449    129740.68448  21534705.3174   21534702.6464
      -322.4694
 04  9 10 21 15 45.0010000  0  6G 3G 8G13G19G23G27
    631233.19049    486426.85647  23255612.8254   23255612.6464
      -999.1094
   -994932.87249   -774492.51947  22662671.6304   22662670.3334
       913.0164
   1434841.45749   1108906.98948  20544799.1774   20544795.7314
     -1804.2814
  -1057586.86849   -822740.79447  23848899.6384   23848897.6384
       937.7504
   3664225.61349   2835585.13648  22288146.8024   22288142.9274
     -4093.8754
    176741.00449    133530.21048  21535630.5524   21535628.3804
      -325.6414
 04  9 10 21 16  0.0010000  0  6G 3G 8G13G19G23G27
    646300.69649    498167.79647  23258480.0834   23258479.6574
     -1009.6414
  -1008595.32849   -785138.57347  22660072.0284   22660070.4854
       908.8444
   1461975.10149   1130050.08348  20549962.6064   20549959.2084
     -1813.3754
  -1071606.29649   -833664.97447  23846232.0054   23846229.8884
       931.7814
   3725686.55349   2883476.74748  22299842.6694   22299838.2004
     -4100.6564
    181658.97249    137362.39848  21536566.4894   21536564.5284
      -329.8124
 04  9 10 21 16 15.0010000  0  6G 3G 8G13G19G23G27
    661515.40449    510023.41947  23261375.3414   23261375.0874
     -1018.7194
  -1022205.92449   -795744.19948  22657481.7944   22657480.4664
       906.2194
   1489233.74449   1151290.59248  20555149.7084   20555146.0714
     -1820.9224
  -1085546.66149   -844527.55447  23843578.7554   23843577.2044
       927.3134
   3787237.50949   2931438.49748  22311555.3334   22311550.8374
     -4105.8444
    186628.45849    141234.73448  21537512.0054   21537509.7004
      -332.5004
 04  9 10 21 16 30.0010000  0  6G 3G 8G13G19G23G27
    676881.46249    521997.00047  23264299.3254   23264299.0404
     -1029.0314
  -1035760.46349   -806306.15248  22654902.3724   22654900.7714
       902.2194
   1516621.72649   1172631.86748  20560361.3174   20560358.1884
     -1829.7664
  -1099403.55849   -855325.09247  23840942.0914   23840939.9894
       921.4844
   3848882.36949   2979473.42548  22323285.9814   22323281.5674
     -4112.3124
    191653.60349    145150.43148  21538468.4894   21538466.3644
      -336.3754
 04  9 10 21 16 45.0010000  0  6G 3G 8G13G19G23G27
    692388.95149    534080.76047  23267250.5604   23267249.5714
     -1039.2504
  -1049269.19349   -816832.41247  22652331.9504   22652330.1734
       898.4534
   1544128.83249   1194065.97748  20565596.1224   20565592.3454
     -1838.4694
  -1113186.83949   -866065.25647  23838319.5994   23838317.1574
       915.6884
   3910610.85949   3027573.51848  22335032.3024   22335028.4384
     -4118.7194
    196724.17449    149101.53948  21539433.4274   21539430.9424
      -340.2664
 04  9 10 21 17  0.0010000  0  6G 3G 8G13G19G23G27
    708042.16849    546278.10847  23270228.9034   23270228.5634
     -1048.0784
  -1062727.95949   -827319.74247  22649770.7714   22649769.0954
       895.8444
   1571759.34649   1215596.24948  20570853.8024   20570850.2864
     -1845.8594
  -1126891.93049   -876744.48047  23835710.9744   23835708.6694
       911.2974
   3972426.93249   3075741.85148  22346795.6854   22346791.4584
     -4123.6094
    201844.43349    153091.36048  21540407.5754   21540405.3534
      -342.7034
 04  9 10 21 17 15.0010000  0  6G 3G 8G13G19G23G27
    723840.79949    558588.74547  23273235.4894   23273235.0874
     -1058.1414
  -1076136.93849   -837768.26347  22647218.9424   22647217.5564
       892.2034
   1599512.90149   1237222.38848  20576135.0674   20576131.8564
     -1854.5004
  -1140518.87949   -887362.84447  23833118.1144   23833115.8414
       905.7344
   4034330.05949   3123978.02948  22358575.5444   22358571.2284
     -4129.8754
    207013.88049    157119.50948  21541391.1694   21541388.9114
      -346.3284
 04  9 10 21 17 30.0010000  0  6G 3G 8G13G19G23G27
    739789.21349    571016.10247  23276270.4034   23276270.4114
     -1068.5004
  -1089491.74849   -848174.59147  22644677.3414   22644675.8334
       888.1884
   1627393.98849   1258947.91348  20581440.6774   20581437.4114
     -1863.3284
  -1154063.02649   -897916.65947  23830540.7004   23830538.8564
       899.9384
   4096324.50149   3172285.35648  22370372.6924   22370368.3684
     -4136.2974
    212236.76049    161189.29948  21542384.8254   21542382.7204
      -350.2814
 04  9 10 21 17 45.0010000  0  6G 3G 8G13G19G23G27
    755886.45649    583559.41847  23279333.5134   23279332.9894
     -1078.3914
  -1102793.61649   -858539.64648  22642146.1924   22642145.2044
       884.8284
   1655401.67849   1280772.08048  20586770.1464   20586767.1064
     -1871.6254
  -1167525.00949   -908406.47347  23827979.0914   23827976.7314
       894.4844
   4158409.02949   3220662.88148  22382187.2474   22382183.1034
     -4142.2664
    217512.15349    165299.99748  21543388.8884   21543386.8174
      -353.6254
 04  9 10 21 18  0.0010000  0  6G 3G 8G13G19G23G27
    772128.19449    596215.33147  23282424.1774   23282424.3294
     -1087.8754
  -1116047.07149   -868866.99347  22639624.3964   22639623.0094
       881.6254
   1683531.36649   1302691.32348  20592123.1854   20592120.2594
     -1879.6414
  -1180909.06649   -918835.53347  23825431.5524   23825430.1614
       889.3914
   4220578.93949   3269106.95148  22394017.6614   22394013.0244
     -4147.7504
    222835.43849    169448.01448  21544401.9114   21544399.0634
      -356.7504
 04  9 10 21 18 15.0010000  0  6G 3G 8G13G19G23G27
    788516.03149    608985.10347  23285542.9584   23285542.7124
     -1097.1724
  -1129250.38649   -879155.26948  22637111.5994   22637110.3064
       878.8134
   1711784.73449   1324706.92348  20597499.7394   20597496.2204
     -1887.4374
  -1194213.21149   -929202.34547  23822900.4744   23822897.8964
       884.4844
   4282835.66149   3317618.64148  22405864.4194   22405860.8884
     -4153.0624
    228208.19049    173634.57948  21545424.5444   21545422.2394
      -359.5784
 04  9 10 21 18 30.0010000  0  6G 3G 8G13G19G23G27
    805049.77049    621868.54747  23288688.6854   23288688.7084
     -1106.7974
  -1142404.00749   -889404.81747  22634608.6304   22634607.3924
       875.4844
   1740161.50749   1346818.68748  20602899.5054   20602896.2984
     -1895.6564
  -1207437.53549   -939506.97247  23820383.5364   23820381.4664
       879.2034
   4345178.68149   3366197.58348  22417728.2004   22417724.0714
     -4158.8754
    233630.16049    177859.50048  21546456.3644   21546453.5994
      -362.8754
 04  9 10 21 18 45.0010000  0  6G 3G 8G13G19G23G27
    821728.31849    634864.83647  23291862.5754   23291862.3994
     -1117.2034
  -1155509.20349   -899616.62647  22632114.4034   22632113.2474
       871.6254
   1768660.65449   1369025.82048  20608322.8254   20608319.6034
     -1904.3594
  -1220582.77949   -949749.95047  23817881.5604   23817880.0994
       873.2664
   4407606.74549   3414842.79848  22429607.8254   22429603.7554
     -4165.0944
    239099.87549    182121.62548  21547497.0364   21547494.4384
      -366.6414
 04  9 10 21 19  0.0010000  0  6G 3G 8G13G19G23G27
    838556.04349    647977.36347  23295064.7244   23295064.0054
     -1126.8914
  -1168561.28849   -909787.05647  22629631.0214   22629630.1494
       868.3914
   1797286.41249   1391331.60248  20613770.1534   20613766.6144
     -1912.6724
  -1233644.26149   -959927.66347  23815396.3104   23815394.4274
       867.8914
   4470123.90049   3463557.45248  22441504.5754   22441500.7284
     -4170.7814
    244621.97449    186424.56148  21548547.7864   21548545.1184
      -369.9374
 04  9 10 21 19 15.0010000  0  6G 3G 8G13G19G23G27
    855532.13149    661205.50647  23298295.2714   23298294.9114
     -1136.7814
  -1181561.50849   -919917.08048  22627157.0214   22627155.8494
       864.9064
   1826037.69749   1413735.19348  20619241.3414   20619238.2714
     -1921.0474
  -1246622.77349   -970040.70247  23812926.9354   23812924.8134
       862.3914
   4532728.98749   3512340.59948  22453417.6924   22453414.2284
     -4176.6724
    250195.02349    190767.20848  21549608.2394   21549605.4274
      -373.2974
 04  9 10 21 19 30.0010000  0  6G 3G 8G13G19G23G27
    872656.18249    674548.92347  23301553.8804   23301553.8174
     -1146.3754
  -1194510.35949   -930007.07048  22624693.3024   22624691.7984
       861.7194
   1854914.22949   1436236.38748  20624736.5364   20624733.0954
     -1929.1254
  -1259518.36949   -980089.16447  23810472.0834   23810471.0174
       857.0784
   4595421.35449   3561191.76348  22465347.7314   22465344.3924
     -4182.2664
    255818.83149    195149.40348  21550678.2784   21550676.3454
      -376.4534
 04  9 10 21 19 45.0010000  0  6G 3G 8G13G19G23G27
    889926.47749    688006.32347  23304840.3494   23304839.8414
     -1156.1564
  -1207409.35249   -940058.21148  22622238.4894   22622237.0914
       858.2974
   1883914.24449   1458833.79848  20630254.9504   20630251.3964
     -1937.3914
  -1272332.52449   -990074.14947  23808033.6144   23808032.2004
       851.6254
   4658199.03349   3610109.40248  22477293.6064   22477289.9274
     -4187.9374
    261491.43249    199569.62348  21551757.9584   21551755.5794
      -379.7194
 04  9 10 21 20  0.0010000  0  6G 3G 8G13G19G23G27
    907343.44449    701577.99647  23308154.6534   23308154.0364
     -1165.8284
  -1220258.30449   -950070.35348  22619793.0994   22619792.3334
       855.1254
   1913038.19449   1481527.78248  20635797.2244   20635794.0994
     -1945.5474
  -1285064.61549   -999995.18747  23805610.4114   23805609.2674
       846.2814
   4721062.34049   3659093.76548  22489256.4664   22489252.6104
     -4193.5474
    267213.19549    204028.14248  21552846.7944   21552844.3764
      -382.9694
 04  9 10 21 20 15.0010000  0  6G 3G 8G13G19G23G27
    924905.15349    715262.46847  23311496.0134   23311496.3804
     -1175.6724
  -1233059.18249   -960045.04048  22617357.1694   22617356.0174
       851.7194
   1942284.11749   1504316.80648  20641362.3804   20641359.1034
     -1953.8914
  -1297716.29349  -1009853.56347  23803203.3724   23803201.5714
       840.6884
   4784009.01149   3708143.10148  22501234.6774   22501230.9544
     -4199.3284
    272982.09149    208523.39048  21553944.5994   21553942.1424
      -386.2504
 04  9 10 21 20 30.0010000  0  6G 3G 8G13G19G23G27
    942615.37149    729062.64847  23314866.4744   23314866.5134
     -1185.6254
  -1245808.25649   -969979.37148  22614931.2394   22614930.0874
       848.2814
   1971655.60649   1527203.68748  20646951.7314   20646948.0484
     -1962.2344
  -1310283.59749  -1019646.19247  23800811.7004   23800810.3724
       835.0474
   4847042.56349   3757260.11348  22513229.7314   22513225.8494
     -4205.1414
    278801.70149    213058.17148  21555052.0674   21555049.8534
      -389.6094
 04  9 10 21 20 45.0010000  0  6G 3G 8G13G19G23G27
    960471.76649    742976.74047  23318264.5914   23318264.3374
     -1195.5004
  -1258508.10149   -979875.33448  22612514.4894   22612513.5834
       844.9384
   2001150.43449   1550186.66948  20652564.2004   20652560.8494
     -1970.5784
  -1322768.45849  -1029374.59647  23798436.1924   23798434.1384
       829.4224
   4910160.47549   3806442.86848  22525241.0524   22525237.1654
     -4210.7974
    284669.66449    217630.60448  21556168.7004   21556166.2004
      -392.8914
 04  9 10 21 21  0.0010000  0  6G 3G 8G13G19G23G27
    978473.28049    757003.88747  23321690.1464   23321689.8374
     -1205.3444
  -1271159.78449   -989733.77148  22610107.3884   22610105.6264
       841.5944
   2030767.51449   1573264.90848  20658200.1144   20658196.7594
     -1978.8284
  -1335171.76749  -1039039.45147  23796075.6224   23796074.2474
       823.8754
   4973361.33349   3855690.26648  22537267.5914   22537263.3844
     -4216.4534
    290584.83949    222239.83548  21557294.2314   21557291.7984
      -396.2344
 04  9 10 21 21 15.0010000  0  6G 3G 8G13G19G23G27
    996625.03949    771148.13647  23325143.8494   23325143.7514
     -1215.0624
  -1283758.15349   -999550.65348  22607709.7244   22607708.2284
       838.1884
   2060511.69149   1596442.19748  20663860.3174   20663856.7594
     -1987.0784
  -1347488.11649  -1048636.51947  23793731.9664   23793730.2124
       818.2814
   5036650.14849   3905006.19648  22549310.7784   22549307.0094
     -4222.0784
    296552.23849    226889.77248  21558429.6614   21558427.1654
      -399.5474
 04  9 10 21 21 30.0010000  0  6G 3G 8G13G19G23G27
   1014923.68149    785406.81947  23328626.8414   23328626.4744
     -1224.8594
  -1296306.61549  -1009328.65548  22605321.6854   22605320.1224
       834.8444
   2090379.90949   1619716.12448  20669544.1694   20669540.8134
     -1995.3594
  -1359720.43949  -1058168.12147  23791404.1694   23791402.7434
       812.6094
   5100023.38949   3954387.91748  22561370.6384   22561366.6144
     -4227.7344
    302568.37849    231577.68548  21559574.5754   21559572.3564
      -402.7344
 04  9 10 21 21 45.0010000  0  6G 3G 8G13G19G23G27
   1033366.55549    799777.90747  23332136.2394   23332136.1494
     -1234.1564
  -1308807.91249  -1019069.90848  22602942.4744   22602941.2044
       831.9384
   2120369.44549   1643084.59148  20675251.2084   20675247.8134
     -2003.2814
  -1371871.38949  -1067636.32547  23789091.8964   23789090.0914
       807.4064
   5163477.94249   4003832.99448  22573445.3494   22573441.3374
     -4232.9844
    308630.48849    236301.41248  21560728.1304   21560726.0484
      -405.6564
 04  9 10 21 22  0.0010000  0  6G 3G 8G13G19G23G27
   1051957.02349    814264.00647  23335673.3104   23335673.2084
     -1244.3914
  -1321258.85149  -1028771.93048  22600573.3494   22600571.8534
       828.2974
   2150483.48449   1666550.07648  20680981.5054   20680977.9464
     -2011.8124
  -1383937.26849  -1077038.25547  23786795.8564   23786793.5404
       801.4534
   5227016.98949   4053343.91048  22585536.8564   22585532.6064
     -4238.7814
    314741.86049    241063.53548  21561891.0134   21561888.8964
      -409.1254
 04  9 10 21 22 15.0010000  0  6G 3G 8G13G19G23G27
   1070697.50149    828866.99447  23339239.4504   23339239.4194
     -1254.3754
  -1333657.10649  -1038432.88748  22598214.1854   22598212.8534
       824.8284
   2180724.26249   1690114.31148  20686735.9584   20686732.7714
     -2020.2344
  -1395915.39949  -1086371.78747  23784516.5754   23784514.6304
       795.7034
   5290642.75349   4102922.38748  22597644.4034   22597640.2474
     -4244.5164
    320904.74749    245865.78048  21563063.6534   21563061.3414
      -412.5474
 04  9 10 21 22 30.0010000  0  6G 3G 8G13G19G23G27
   1089583.96649    843583.73647  23342833.9354   23342833.6224
     -1264.3914
  -1346006.46549  -1048055.73848  22595864.5214   22595862.6654
       821.2664
   2211087.88749   1713774.27648  20692514.0284   20692510.8964
     -2028.8284
  -1407809.54849  -1095639.89747  23782252.7004   23782250.6384
       789.6254
   5354350.90149   4152565.08748  22609767.5214   22609763.5484
     -4250.3594
    327115.07849    250705.01948  21564245.5214   21564243.2824
      -416.0164
 04  9 10 21 22 45.0010000  0  6G 3G 8G13G19G23G27
   1108617.07849    858414.73247  23346455.4894   23346455.3804
     -1273.9374
  -1358306.54649  -1057640.19948  22593523.6534   22593521.5714
       818.1094
   2241575.10449   1737530.54848  20698315.3964   20698312.1424
     -2036.8284
  -1419618.81549  -1104841.84447  23780005.7714   23780003.2434
       784.2194
   5418141.92349   4202272.33948  22621906.5284   22621902.2084
     -4255.6564
    333373.50149    255581.71548  21565436.6144   21565433.5214
      -419.0474
 04  9 10 21 23  0.0010000  0  6G 3G 8G13G19G23G27
   1127800.78549    873363.09147  23350106.2714   23350105.9704
     -1283.5624
  -1370553.46149  -1067183.23948  22591192.8804   22591191.3994
       815.0634
   2272189.67949   1761386.05448  20704141.1774   20704138.1184
     -2044.8914
  -1431338.90949  -1113974.32847  23777775.2784   23777773.0284
       778.7194
   5482019.49849   4252047.04248  22634062.1464   22634058.2674
     -4261.0004
    339683.65649    260498.72948  21566637.7004   21566634.8724
      -422.0164
 04  9 10 21 23 15.0010000  0  6G 3G 8G13G19G23G27
   1147128.26149    888423.46847  23353783.9584   23353783.8454
     -1293.1564
  -1382754.05249  -1076690.15948  22588871.0134   22588869.9354
       812.0004
   2302924.69349   1785335.42348  20709990.1534   20709986.5174
     -2052.8284
  -1442976.54049  -1123042.55447  23775560.7314   23775558.3534
       773.3134
   5545976.55049   4301883.67648  22646232.9114   22646229.2744
     -4266.2504
    346038.78949    265450.77948  21567846.5914   21567844.2514
      -425.0314
 04  9 10 21 23 30.0010000  0  6G 3G 8G13G19G23G27
   1166600.51649    903596.66747  23357489.8254   23357489.1034
     -1302.5164
  -1394907.57649  -1086160.43048  22586558.5754   22586557.4584
       809.0314
   2333781.22649   1809379.46548  20715861.9354   20715858.7474
     -2060.7814
  -1454530.37249  -1132045.48247  23773362.1614   23773360.2084
       767.7664
   5610013.80049   4351782.79448  22658418.5364   22658414.7944
     -4271.3914
    352439.78249    270438.57548  21569064.7244   21569061.9664
      -427.8754
 04  9 10 21 23 45.0010000  0  6G 3G 8G13G19G23G27
   1186221.96149    918886.13047  23361223.2394   23361223.1924
     -1313.3124
  -1407009.41449  -1095590.40548  22584255.1694   22584254.2244
       804.7194
   2364763.71149   1833521.65748  20721757.4114   20721754.0134
     -2069.9694
  -1465995.65049  -1140979.40147  23771180.0754   23771178.0284
       761.1884
   5674135.50249   4401747.73348  22670620.7634   22670617.0054
     -4277.9224
    358891.03949    275465.53248  21570292.5054   21570289.6734
      -432.0314
 04  9 10 21 24  0.0010000  0  6G 3G 8G13G19G23G27
   1205992.03749    934291.40047  23364985.0134   23364985.1694
     -1322.9694
  -1419060.21649  -1104980.61548  22581962.1304   22581960.9584
       801.7194
   2395871.48449   1857761.47448  20727677.3564   20727673.9034
     -2078.0314
  -1477372.63149  -1149844.51747  23769015.4744   23769012.8604
       755.5004
   5738340.78949   4451777.78748  22682838.5364   22682834.1344
     -4283.0474
    365391.80549    280531.07248  21571529.6694   21571527.3724
      -435.0624
 04  9 10 21 24 15.0010000  0  6G 3G 8G13G19G23G27
   1225909.07349    949811.16747  23368775.2634   23368775.2164
     -1332.3284
  -1431061.74249  -1114332.44148  22579678.6304   22579677.0914
       798.8134
   2427102.73949   1882097.51648  20733620.1614   20733617.0214
     -2085.9224
  -1488662.88649  -1158642.07747  23766866.6854   23766864.5444
       750.0634
   5802627.76049   4501871.49748  22695072.0444   22695068.3064
     -4288.2344
    371940.33549    285633.83348  21572775.6144   21572773.0914
      -437.8444
 04  9 10 21 24 30.0010000  0  6G 3G 8G13G19G23G27
   1245974.93249    965446.92847  23372593.3334   23372593.3534
     -1342.9374
  -1443012.04049  -1123644.32748  22577404.0674   22577403.2204
       794.8284
   2458459.40249   1906531.27648  20739587.2864   20739584.1144
     -2094.8284
  -1499864.23349  -1167370.33147  23764735.1304   23764732.8534
       743.5944
   5866998.07849   4552030.16148  22707321.0754   22707317.1424
     -4294.3594
    378538.41649    290775.20248  21574031.1144   21574028.7284
      -441.7034
 04  9 10 21 24 45.0010000  0  6G 3G 8G13G19G23G27
   1266183.65449    981193.98047  23376439.5674   23376439.2634
     -1352.5314
  -1454917.22049  -1132921.07448  22575138.8104   22575137.6184
       791.7194
   2489935.52849   1931058.13448  20745576.9814   20745573.5914
     -2102.8594
  -1510982.43049  -1176033.82447  23762619.7084   23762617.2084
       737.9384
   5931445.52149   4602248.91148  22719585.1614   22719581.6424
     -4299.4844
    385180.03849    295950.50848  21575295.1224   21575292.4664
      -444.6564
 04  9 10 21 25  0.0010000  0  6G 3G 8G13G19G23G27
   1286540.88649    997056.78547  23380313.4814   23380312.3334
     -1362.0784
  -1466771.76749  -1142158.35748  22572882.6064   22572881.6814
       788.7034
   2521536.63249   1955682.36548  20751590.7394   20751587.0484
     -2110.8124
  -1522011.38849  -1184627.75447  23760520.9894   23760518.5484
       732.3134
   5995975.54249   4652532.00148  22731864.7004   22731861.0484
     -4304.6874
    391870.77049    301164.06748  21576568.2164   21576565.7554
      -447.5944
 04  9 10 21 25 15.0020000  0  6G 3G 8G13G19G23G27
   1307043.68649   1013033.00147  23384214.6824   23384214.4084
     -1371.4374
  -1478580.75349  -1151360.14348  22570636.1744   22570634.5334
       785.8914
   2553260.60749   1980402.34348  20757627.5334   20757624.2874
     -2118.6254
  -1532955.94349  -1193155.92447  23758438.0104   23758435.8464
       726.9844
   6060587.93849   4702879.29448  22744160.3614   22744156.4714
     -4309.5944
    398606.67749    306412.83548  21577850.3544   21577847.7914
      -450.2664
 04  9 10 21 25 30.0020000  0  6G 3G 8G13G19G23G27
   1327693.82149   1029124.02847  23388144.1114   23388143.8894
     -1381.6874
  -1490338.07249  -1160521.66948  22568398.3614   22568396.8574
       782.0314
   2585107.60849   2005218.18848  20763687.7684   20763684.3344
     -2127.4064
  -1543809.82349  -1201613.42347  23756372.2134   23756370.2324
       720.5164
   6125278.37549   4753287.39748  22756470.5804   22756466.7324
     -4315.5314
    405391.35249    311699.60448  21579141.1584   21579138.7444
      -454.0314
 04  9 10 21 25 45.0020000  0  6G 3G 8G13G19G23G27
   1348490.86749   1045329.53647  23392101.4634   23392101.7684
     -1391.2664
  -1502046.55349  -1169645.13148  22566170.6894   22566168.9554
       779.0004
   2617077.94449   2030130.13248  20769771.3694   20769768.3774
     -2135.4374
  -1554575.44349  -1210002.17547  23754323.5184   23754321.8814
       714.8444
   6190049.12249   4803758.07748  22768795.7524   22768792.4164
     -4320.6724
    412223.20749    317023.12848  21580441.2994   21580438.5574
      -456.9844
 04  9 10 21 26  0.0020000  0  6G 3G 8G13G19G23G27
   1369435.86749   1061650.33947  23396087.5964   23396087.1744
     -1401.6414
  -1513705.03449  -1178729.64048  22563951.7914   22563949.9394
       775.2814
   2649172.58749   2055138.93948  20775878.7834   20775875.7684
     -2144.0944
  -1565251.35649  -1218321.00047  23752291.5494   23752289.8654
       708.4064
   6254900.95949   4854291.94148  22781137.3304   22781133.0574
     -4326.4534
    419103.27449    322384.23448  21581750.5724   21581747.9674
      -460.5314
 04  9 10 21 26 15.0020000  0  6G 3G 8G13G19G23G27
   1390529.12349   1078086.64947  23400101.5724   23400100.9904
     -1411.1254
  -1525313.14149  -1187774.89148  22561743.0184   22561741.7644
       772.2344
   2681391.93649   2080244.91848  20782010.0724   20782006.6664
     -2152.0624
  -1575836.85249  -1226569.37847  23750277.4714   23750275.7134
       702.7974
   6319833.98649   4904889.06448  22793493.4474   22793489.2714
     -4331.4844
    426031.93449    327783.19048  21583068.6824   21583066.8034
      -463.4694
 04  9 10 21 26 30.0020000  0  6G 3G 8G13G19G23G27
   1411768.10949   1094636.51647  23404143.0104   23404142.5644
     -1420.6564
  -1536873.54249  -1196782.98648  22559543.1354   22559541.5334
       769.3134
   2713733.42549   2105446.08048  20788164.2834   20788161.0764
     -2160.0004
  -1586334.36549  -1234749.22047  23748280.2214   23748278.4084
       697.0004
   6384845.42149   4955547.29248  22805864.7134   22805861.1464
     -4336.5474
    433006.43049    333217.87648  21584395.8144   21584393.4824
      -466.2974
 04  9 10 21 26 45.0020000  0  6G 3G 8G13G19G23G27
   1433152.06049   1111299.35347  23408212.6894   23408212.4474
     -1430.5004
  -1548387.03549  -1205754.50848  22557352.2294   22557350.1584
       765.8914
   2746196.26949   2130741.80048  20794341.8614   20794338.9864
     -2168.3124
  -1596744.36049  -1242860.85847  23746299.1044   23746296.6704
       691.0474
   6449934.36049   5006265.90948  22818250.6824   22818246.8964
     -4341.8914
    440026.04749    338687.70648  21585731.5334   21585729.0964
      -469.5784
 04  9 10 21 27  0.0020000  0  6G 3G 8G13G19G23G27
   1454685.12549   1128078.38147  23412309.7364   23412309.1314
     -1440.4534
  -1559849.51949  -1214686.28048  22555170.7524   22555169.3184
       762.4534
   2778784.61249   2156135.30848  20800543.0884   20800540.0804
     -2176.7504
  -1607062.44649  -1250900.85847  23744335.6194   23744333.2684
       684.8444
   6515104.61649   5057047.88548  22830651.9244   22830648.3694
     -4347.3594
    447094.76549    344195.80748  21587076.7684   21587074.2874
      -472.9064
 04  9 10 21 27 15.0020000  0  6G 3G 8G13G19G23G27
   1476365.40649   1144972.11747  23416435.1974   23416435.2014
     -1450.0624
  -1571262.99349  -1223579.86748  22552998.9794   22552996.8614
       759.5314
   2811496.50749   2181625.09348  20806768.0414   20806764.2794
     -2184.7194
  -1617290.11449  -1258870.41947  23742389.2684   23742387.2254
       679.0164
   6580354.11749   5107891.63247  22843068.7524   22843064.6044
     -4352.4064
    454210.80149    349740.78348  21588431.2754   21588428.9554
      -475.7814
 04  9 10 21 27 30.0020000  0  6G 3G 8G13G19G23G27
   1498194.63249   1161981.91447  23420589.3614   23420589.1004
     -1460.4844
  -1582625.82949  -1232434.01448  22550836.4944   22550834.9284
       755.4694
   2844333.65549   2207212.47948  20813016.8934   20813013.5964
     -2193.5474
  -1627425.37049  -1266767.98147  23740460.2524   23740458.5574
       672.2814
   6645684.43849   5158798.33347  22855500.7684   22855496.8814
     -4358.3754
    461375.67549    355323.80648  21589794.2214   21589791.6784
      -479.5624
 04  9 10 21 27 45.0020000  0  6G 3G 8G13G19G23G27
   1520168.94549   1179104.77847  23424770.9244   23424771.0614
     -1469.7344
  -1593941.59449  -1241251.46248  22548683.3544   22548681.6074
       752.8754
   2877292.22949   2232894.47248  20819288.5644   20819285.3384
     -2201.3124
  -1637471.78249  -1274596.30547  23738549.0184   23738546.4824
       666.8284
   6711091.45349   5209764.78348  22867947.3304   22867943.7794
     -4363.0004
    468585.51849    360941.87048  21591166.6194   21591163.9594
      -482.0944
 04  9 10 21 28  0.0020000  0  7G 3G 8G13G10G19G23G27
   1542285.76049   1196338.68047  23428979.5414   23428979.8114
     -1479.3914
  -1605213.24449  -1250034.54948  22546538.3614   22546536.5724
       749.7974
   2910369.47649   2258668.94848  20825583.2524   20825579.7994
     -2209.2504
    -36600.28659    -23737.59757  24635284.1744   24635283.8854
       793.2504
  -1647431.71449  -1282357.24247  23736653.6584   23736651.3734
       660.8914
   6776572.19649   5260788.71347  22880407.8384   22880404.4434
     -4368.0474
    475837.53749    366592.79748  21592546.5574   21592544.0964
      -484.9694
 04  9 10 21 28 15.0020000  0  7G 3G 8G13G10G19G23G27
   1564547.22149   1213685.30047  23433216.2364   23433215.7364
     -1489.2974
  -1616438.60149  -1258781.55348  22544402.0724   22544400.5374
       746.4694
   2943567.60449   2284537.61548  20831900.2214   20831897.0534
     -2217.5784
    -48441.30049    -32964.33746  24633030.2364   24633030.5064
       785.1414
  -1657302.74449  -1290048.91947  23734774.9474   23734772.8144
       654.7504
   6842128.74249   5311871.69748  22892882.7994   22892878.8424
     -4373.3124
    483133.97649    372278.33648  21593934.8074   21593932.6584
      -488.2974
 04  9 10 21 28 30.0020000  0  7G 3G 8G13G10G19G23G27
   1586952.63149   1231144.05147  23437479.3144   23437479.0764
     -1498.4694
  -1627618.21549  -1267492.91648  22542274.7134   22542272.8814
       743.8134
   2976885.77249   2310499.81748  20838240.4944   20838237.2754
     -2225.2194
    -60167.46449    -42101.55147  24630798.9324   24630799.2014
       777.8754
  -1667085.32049  -1297671.66447  23732913.7054   23732910.8424
       649.2504
   6907760.12149   5363013.01147  22905372.0184   22905368.4594
     -4377.9224
    490474.11349    377997.93048  21595331.7684   21595328.8224
      -490.8124
 04  9 10 21 28 45.0020000  0  7G 3G 8G13G10G19G23G27
   1609501.27149   1248714.45947  23441770.7524   23441770.5334
     -1508.5474
  -1638752.86549  -1276169.24048  22540155.8144   22540154.4474
       740.2504
   3010323.30849   2336555.03748  20844603.8934   20844600.4324
     -2233.6724
    -71779.11849    -51149.59846  24628589.2134   24628589.6824
       769.7974
  -1676779.82349  -1305225.77747  23731068.4864   23731066.2524
       642.8134
   6973465.46449   5414211.91647  22917875.3694   22917871.1194
     -4383.2814
    497857.09749    383750.91148  21596736.7364   21596734.0104
      -494.1564
 04  9 10 21 29  0.0020000  0  7G 3G 8G13G10G19G23G27
   1632201.49649   1266402.93947  23446090.0964   23446089.3614
     -1518.4064
  -1649834.19049  -1284804.01148  22538047.4164   22538045.6864
       737.0164
   3043888.59649   2362709.79648  20850990.9794   20850987.5804
     -2241.8914
    -83267.85349    -60101.80446  24626402.9864   24626402.5184
       761.8284
  -1686377.62849  -1312704.54347  23729241.9634   23729239.4904
       636.6094
   7039252.83149   5465474.76547  22930394.4474   22930390.7684
     -4388.4844
    505291.21649    389543.73548  21598151.5964   21598149.0964
      -497.2664
 04  9 10 21 29 15.0020000  0  7G 3G 8G13G10G19G23G27
   1655053.04349   1284209.35747  23450439.0184   23450438.4204
     -1528.4694
  -1660862.60649  -1293397.54648  22535948.3694   22535947.1504
       733.5164
   3077581.40649   2388963.93048  20857402.2684   20857398.8504
     -2250.3284
    -94633.71049    -68958.31846  24624240.5254   24624240.4364
       753.8754
  -1695878.71049  -1320107.93647  23727434.2214   23727431.5574
       630.2344
   7105121.83149   5516801.22847  22942928.7754   22942924.9984
     -4393.9534
    512776.17949    395376.17648  21599575.8304   21599573.2324
      -500.6094
 04  9 10 21 29 30.0020000  0  7G 3G 8G13G10G19G23G27
   1678044.54949   1302124.81247  23454813.0184   23454812.9754
     -1537.6254
  -1671849.34049  -1301958.62848  22533857.6894   22533856.1464
       730.8914
   3111390.34249   2415308.54348  20863836.0724   20863832.4394
     -2257.9534
   -105887.85349    -77727.68946  24622098.8854   24622098.8344
       746.2814
  -1705294.01549  -1327444.50347  23725643.0184   23725640.0144
       624.6724
   7171060.80449   5568182.19647  22955476.5884   22955472.9324
     -4398.4534
    520300.69049    401239.43748  21601007.7524   21601005.1704
      -503.1414
 04  9 10 21 29 45.0020000  0  7G 3G 8G13G10G19G23G27
   1701179.17349   1320151.80847  23459216.0804   23459215.6894
     -1547.8284
  -1682791.30149  -1310484.81448  22531775.3774   22531773.4794
       727.2194
   3145318.55549   2441746.12748  20870291.9634   20870289.1824
     -2266.5784
   -117026.84849    -86407.41747  24619979.3934   24619978.8344
       738.0314
  -1714620.11749  -1334711.57247  23723867.4944   23723865.3224
       618.0314
   7237072.87649   5619620.14647  22968038.2364   22968034.6354
     -4404.0004
    527867.82049    407135.92748  21602447.5024   21602445.1934
      -506.5944
 04  9 10 21 30  0.0020000  0  7G 3G 8G13G10G19G23G27
   1724465.66849   1338297.14547  23463647.2054   23463647.1154
     -1556.9694
  -1693679.56249  -1318969.13648  22529703.3304   22529701.6974
       724.6564
   3179374.72249   2468283.38648  20876773.0804   20876769.2094
     -2274.1874
   -128041.82749    -94990.45746  24617883.0574   24617883.0574
       730.7814
  -1723848.06649  -1341902.12547  23722111.6434   23722109.2134
       612.4224
   7303166.44749   5671121.59247  22980615.7524   22980611.6934
     -4408.4224
    535486.27849    413072.38848  21603897.3464   21603894.8544
      -509.1414
 04  9 10 21 30 15.0020000  0  7G 3G 8G13G10G19G23G27
   1747894.03449   1356553.04347  23468105.6744   23468105.1784
     -1566.9844
  -1704524.38049  -1327419.60448  22527639.8384   22527638.2364
       721.0634
   3213548.77549   2494912.51648  20883275.9714   20883273.0334
     -2282.6874
   -138942.41449   -103484.44347  24615808.5724   24615808.3774
       722.3284
  -1732987.61249  -1349023.81247  23720372.7754   23720369.8814
       605.8284
   7369331.37549   5722678.62047  22993206.5724   22993202.4514
     -4413.8914
    543145.99549    419041.00048  21605354.8144   21605352.3144
      -512.5004
 04  9 10 21 30 30.0020000  0  7G 3G 8G13G10G19G23G27
   1771471.11149   1374924.78147  23472592.2294   23472591.9164
     -1577.1564
  -1715318.60449  -1335830.66948  22525585.9794   22525584.4824
       717.4534
   3247847.58949   2521638.86448  20889802.8224   20889799.7644
     -2291.1564
   -149721.69249   -111883.85547  24613757.6584   24613757.0494
       714.0944
  -1742031.58949  -1356071.02747  23718651.5804   23718649.1194
       599.2974
   7435574.23049   5774296.39648  23005812.1974   23005808.2644
     -4419.2194
    550853.67049    425046.98248  21606821.3074   21606818.9474
      -515.8284
 04  9 10 21 30 45.0020000  0  7G 3G 8G13G10G19G23G27
   1795196.13349   1393411.82147  23477106.5184   23477106.4714
     -1586.2664
  -1726063.51649  -1344203.31048  22523541.3694   22523539.6624
       715.0634
   3282270.48549   2548461.89648  20896353.4634   20896350.1114
     -2298.5624
   -160380.16349   -120189.14546  24611728.8464   24611728.7254
       706.7344
  -1750980.37049  -1363044.07047  23716948.5024   23716946.3184
       593.7814
   7501894.11249   5825974.19548  23018432.7134   23018429.1194
     -4423.5164
    558608.79749    431089.94948  21608297.3694   21608294.7444
      -518.1564
 04  9 10 21 31  0.0020000  0  7G 3G 8G13G10G19G23G27
   1819067.59549   1412012.98647  23481649.0184   23481648.9364
     -1596.1254
  -1736760.41449  -1352538.52048  22521505.0494   22521503.5964
       711.7814
   3316815.98049   2575380.45348  20902927.0964   20902923.9514
     -2306.8914
   -170919.19149   -128401.31747  24609723.8774   24609723.1394
       698.9224
  -1759835.26349  -1369943.93147  23715263.0574   23715261.1394
       587.3444
   7568289.29749   5877710.66048  23031067.0964   23031063.6464
     -4428.6414
    566409.57249    437168.47848  21609781.7134   21609779.3574
      -521.4224
 04  9 10 21 31 15.0020000  0  7G 3G 8G13G10G19G23G27
   1843085.30349   1430728.09847  23486219.5414   23486219.3344
     -1606.3754
  -1747409.50849  -1360836.49948  22519479.0334   22519477.2524
       708.0784
   3351483.68149   2602394.23848  20909523.9634   20909521.1704
     -2315.5624
   -181338.71949   -136520.40747  24607741.0884   24607740.4674
       690.3754
  -1768596.25049  -1376770.63347  23713596.5184   23713594.0104
       580.6884
   7634759.15049   5929505.30247  23043715.3304   23043712.2014
     -4434.0624
    574255.75249    443282.39148  21611274.7754   21611272.4474
      -524.9224
 04  9 10 21 31 30.0020000  0  7G 3G 8G13G10G19G23G27
   1867249.31649   1449557.19347  23490817.9944   23490817.6044
     -1615.7194
  -1758010.61549  -1369097.07448  22517461.6274   22517460.0414
       705.1884
   3386273.80049   2629503.41648  20916144.5964   20916141.4164
     -2323.3594
   -191638.37249   -144546.13046  24605780.9554   24605779.9864
       682.5004
  -1777262.77449  -1383523.73147  23711947.2294   23711944.7404
       574.6884
   7701303.76349   5981358.20847  23056378.6744   23056375.1864
     -4438.7504
    582147.60249    449431.88548  21612776.4244   21612774.0964
      -527.5784
 04  9 10 21 31 45.0020000  0  7G 3G 8G13G10G19G23G27
   1891556.73149   1468498.03747  23495443.5104   23495443.1154
     -1625.3754
  -1768566.59949  -1377322.49548  22515453.0104   22515451.5064
       702.0944
   3421183.36649   2656705.66148  20922787.6974   20922784.2444
     -2331.4534
   -201820.95049   -152480.59647  24603843.1664   24603842.3304
       675.0004
  -1785837.56249  -1390205.33747  23710315.1194   23710312.9714
       568.4694
   7767919.98349   6033266.91047  23069055.3144   23069051.9434
     -4443.5474
    590081.92649    455614.48448  21614286.2684   21614284.2914
      -530.4694
 04  9 10 21 32  0.0020000  0  7G 3G 8G13G10G19G23G27
   1916011.33549   1487553.58847  23500097.2294   23500097.1864
     -1634.8124
  -1779073.80449  -1385509.89848  22513453.5724   22513452.5144
       699.2344
   3456215.98749   2684003.81648  20929454.1354   20929451.0454
     -2339.2034
   -211882.36749   -160320.60347  24601928.8934   24601928.0144
       666.8914
  -1794316.54849  -1396812.29447  23708701.7994   23708699.6464
       562.4384
   7834611.45649   6085234.27047  23081745.9634   23081743.0844
     -4448.2344
    598062.61249    461833.21348  21615805.1354   21615802.8184
      -533.2194
 04  9 10 21 32 15.0020000  0  7G 3G 8G13G10G19G23G27
   1940608.15149   1506719.94347  23504777.1044   23504777.4394
     -1644.8444
  -1789537.26449  -1393663.23248  22511462.6044   22511460.9434
       695.7974
   3491366.63849   2711393.92648  20936143.1894   20936140.0294
     -2347.6254
   -221827.50249   -168070.02747  24600036.5104   24600035.6974
       658.7344
  -1802704.44849  -1403348.29447  23707105.4554   23707102.7214
       555.8284
   7901372.84649   6137256.07747  23094450.8224   23094447.2914
     -4453.4064
    606084.61849    468084.13048  21617331.6354   21617329.3854
      -536.5004
 04  9 10 21 32 30.0020000  0  7G 3G 8G13G10G19G23G27
   1965340.98549   1525992.28947  23509484.6194   23509484.0614
     -1653.8284
  -1799963.20749  -1401787.32048  22509478.1504   22509476.6624
       693.4224
   3526629.37449   2738871.36348  20942853.6584   20942850.4394
     -2354.9694
   -231662.27949   -175733.49547  24598164.2994   24598164.1464
       651.5314
  -1811006.96849  -1409817.74547  23705525.5254   23705523.1314
       550.3134
   7968197.87049   6189327.47347  23107167.0884   23107163.9164
     -4457.6414
    614141.84949    474362.48448  21618865.0184   21618862.5254
      -538.7194
 04  9 10 21 32 45.0020000  0  7G 3G 8G13G10G19G23G27
   1990223.56549   1545381.31747  23514219.0024   23514218.9824
     -1663.4064
  -1810337.62549  -1409871.26048  22507503.7834   22507502.5764
       690.3914
   3562017.84249   2766446.79448  20949587.5494   20949584.2214
     -2362.9224
   -241372.62049   -183299.97347  24596317.2754   24596316.4634
       643.7664
  -1819210.15849  -1416209.79547  23703964.5494   23703962.3814
       544.0314
   8035099.96049   6241458.93847  23119897.9554   23119894.9124
     -4462.2504
    622247.80949    480678.83548  21620407.3544   21620405.1704
      -541.5164
 04  9 10 21 33  0.0020000  0  7G 3G 8G13G10G19G23G27
   2015252.15049   1564884.13147  23518982.1504   23518981.7484
     -1673.9224
  -1820664.49349  -1417918.14748  22505538.7444   22505537.3424
       686.4224
   3597528.30249   2794117.26848  20956345.0574   20956341.8614
     -2371.9064
   -250962.10649   -190772.27747  24594491.8144   24594491.1434
       634.8134
  -1827317.51549  -1422527.16547  23702421.4864   23702419.5724
       536.8134
   8102075.22549   6293647.39747  23132643.2214   23132639.2754
     -4467.8444
    630398.92249    487030.34548  21621958.3544   21621955.5964
      -545.3444
 04  9 10 21 33 15.0020000  0  7G 3G 8G13G10G19G23G27
   2040429.48749   1584502.84047  23523773.2214   23523772.5294
     -1683.3914
  -1830941.08149  -1425925.86748  22503583.3224   22503581.6074
       683.5164
   3633163.34549   2821884.83948  20963126.4944   20963123.1544
     -2379.7344
   -260427.84449   -198148.16947  24592690.3464   24592690.1544
       626.8594
  -1835325.96449  -1428767.49447  23700897.9084   23700895.4324
       530.6254
   8169126.21149   6345894.89747  23145402.9944   23145399.0534
     -4472.5314
    638597.76749    493419.07948  21623518.7134   21623516.2134
      -548.1564
 04  9 10 21 33 30.0020000  0  7G 3G 8G13G10G19G23G27
   2065757.34749   1604238.83747  23528592.7914   23528592.3184
     -1693.3444
  -1841165.40449  -1433892.84748  22501637.7754   22501635.8144
       680.0784
   3668924.89649   2849750.97248  20969931.3224   20969928.3224
     -2388.2344
   -269767.78549   -205426.02347  24590913.3694   24590913.0764
       618.7344
  -1843233.32449  -1434929.03647  23699393.2684   23699390.0064
       523.9384
   8236254.53449   6398202.64347  23158176.7444   23158173.3964
     -4477.6414
    646846.25349    499846.48548  21625088.4004   21625085.6504
      -551.3754
 04  9 10 21 33 45.0020000  0  7G 3G 8G13G10G19G23G27
   2091229.49249   1624087.26347  23533440.1504   23533439.9004
     -1703.0944
  -1851343.96349  -1441824.16648  22499700.7444   22499699.2564
       676.9384
   3704806.65149   2877710.77348  20976759.2444   20976756.3304
     -2396.2504
   -278988.03849   -212610.63147  24589158.7294   24589158.5144
       610.6564
  -1851045.78849  -1441016.62347  23697906.6114   23697903.2994
       517.5474
   8303453.69749   6450565.58247  23170964.3074   23170961.1864
     -4482.4064
    655137.98049    506307.56748  21626666.1974   21626663.6154
      -554.2974
 04  9 10 21 34  0.0020000  0  7G 3G 8G13G10G19G23G27
   2116856.39849   1644056.29847  23538316.5964   23538316.2094
     -1713.3124
  -1861465.85249  -1449711.33548  22497774.4864   22497773.0884
       673.2194
   3740819.13849   2905772.44448  20983612.2914   20983609.3654
     -2404.8594
   -288077.76449   -219693.51347  24587428.9164   24587428.7444
       601.8594
  -1858752.34949  -1447021.70647  23696439.6114   23696437.7644
       510.5784
   8370734.14649   6502991.86747  23183767.2364   23183763.8894
     -4487.7814
    663483.67649    512810.70748  21628254.4324   21628252.1044
      -557.8754
 04  9 10 21 34 15.0020000  0  7G 3G 8G13G10G19G23G27
   2142624.65249   1664135.46047  23543220.6894   23543219.5494
     -1722.2664
  -1871544.66349  -1457564.93648  22495856.3934   22495855.0804
       670.7814
   3776948.81949   2933925.43348  20990487.4554   20990484.5534
     -2412.2664
   -297050.35649   -226685.12047  24585721.8464   24585721.0924
       594.7504
  -1866366.20349  -1452954.54347  23694990.8934   23694988.3894
       504.8914
   8438082.13649   6555470.77247  23196583.2684   23196579.7324
     -4491.8124
    671869.61549    519345.20948  21629850.0254   21629847.4514
      -560.0624
 04  9 10 21 34 30.0020000  0  7G 3G 8G13G10G19G23G27
   2168537.40949   1684327.21647  23548150.9714   23548150.6784
     -1732.9224
  -1881577.30549  -1465382.56648  22493947.5104   22493945.6074
       666.7344
   3813198.96149   2962172.28748  20997385.7994   20997382.7794
     -2421.2814
   -305902.18649   -233582.64247  24584037.1744   24584036.6234
       585.6254
  -1873883.78049  -1458812.36947  23693560.4634   23693557.9244
       497.4064
   8505500.70849   6608004.68047  23209412.9004   23209409.3424
     -4497.4844
    680299.12449    525913.67248  21631454.0494   21631451.5724
      -563.9844
 04  9 10 21 34 45.0020000  0  7G 3G 8G13G10G19G23G27
   2194596.76449   1704633.21947  23553110.2294   23553109.5374
     -1742.1564
  -1891561.72749  -1473162.61648  22492047.4324   22492045.9084
       664.0784
   3849571.63149   2990514.62248  21004307.4244   21004303.7404
     -2428.8914
   -314630.94849   -240384.23847  24582376.1894   24582376.2324
       577.8134
  -1881302.75149  -1464593.36047  23692148.2994   23692146.0144
       491.3594
   8572991.66449   6660594.99947  23222255.6044   23222252.6704
     -4501.7974
    688774.29949    532517.70848  21633066.7524   21633064.6864
      -566.4534
 04  9 10 21 35  0.0020000  0  8G 3G 8G13G10G19G23G27G28
   2220802.06549   1725052.94647  23558097.0494   23558096.5574
     -1752.0164
  -1901498.41049  -1480905.45448  22490156.7134   22490155.0534
       660.7664
   3886066.16549   3018951.90848  21011251.7364   21011248.8774
     -2437.1724
   -323237.21049   -247090.43747  24580738.1504   24580737.9634
       569.5634
  -1888623.49749  -1470297.79147  23690755.4244   23690752.5534
       484.6414
   8640554.17149   6713241.05847  23235112.5414   23235109.3774
     -4506.6564
    697294.35849    539156.72248  21634688.1664   21634686.0144
      -569.6564
    -85506.47959    -65784.16957  24855838.4244   24855840.2714
      1930.5944
 04  9 10 21 35 15.0020000  0  8G 3G 8G13G10G19G23G27G28
   2247150.02349   1745583.81447  23563111.0964   23563110.5454
     -1761.3124
  -1911390.67449  -1488613.70548  22488274.0334   22488272.5334
       657.9384
   3922679.30249   3047481.62648  21018219.4944   21018215.6504
     -2444.8754
   -331724.08949   -253703.57147  24579123.1504   24579122.6744
       561.7974
  -1895849.04049  -1475928.05847  23689380.2134   23689378.0574
       478.4694
   8708184.77149   6765940.19247  23247982.5414   23247979.2174
     -4510.9844
    705856.01349    545828.14548  21636317.3464   21636315.0644
      -572.1724
   -114451.93949    -88339.03647  24850331.3144   24850331.4714
      1928.4694
 04  9 10 21 35 30.0020000  0  8G 3G 8G13G10G19G23G27G28
   2273641.34349   1766226.41547  23568152.1504   23568151.5724
     -1770.3914
  -1921237.75849  -1496286.74048  22486400.0574   22486398.2914
       655.4534
   3959411.70649   3076104.26848  21025209.2604   21025206.0614
     -2452.3594
   -340090.57049   -260222.86447  24577531.1044   24577530.8304
       554.3284
  -1902978.31649  -1481483.30647  23688023.2524   23688021.4824
       472.4694
   8775884.01449   6818692.81347  23260864.9394   23260861.6194
     -4515.0944
    714459.94449    552532.51648  21637954.4714   21637951.7014
      -574.4844
   -143361.16449   -110865.61247  24844829.6584   24844829.5254
      1926.5314
 04  9 10 21 35 45.0020000  0  8G 3G 8G13G10G19G23G27G28
   2300283.20749   1786986.32047  23573221.3544   23573220.9904
     -1780.7344
  -1931032.55249  -1503919.02148  22484536.2134   22484534.6894
       651.5944
   3996270.55649   3104825.45148  21032223.0334   21032219.5494
     -2461.1414
   -348329.08149   -266642.46447  24575963.6974   24575963.3464
       545.4384
  -1910003.73249  -1486957.61247  23686686.5964   23686684.2054
       465.2974
   8843658.87149   6871504.35947  23273762.3464   23273758.5924
     -4520.4224
    723113.49649    559275.55148  21639601.1504   21639599.0144
      -578.2034
   -172226.84349   -133358.24547  24839336.6354   24839336.6154
      1923.2814
 04  9 10 21 36  0.0020000  0  8G 3G 8G13G10G19G23G27G28
   2327074.29949   1807862.49047  23578319.6434   23578318.9284
     -1791.0164
  -1940776.16549  -1511511.42648  22482682.1584   22482680.4284
       647.8754
   4033254.47449   3133644.06548  21039260.7134   21039257.4514
     -2469.7504
   -356440.97849   -272963.42247  24574419.7994   24574419.4244
       536.6094
  -1916926.42449  -1492351.89447  23685369.0494   23685367.1584
       458.1094
   8911507.80949   6924373.58947  23286673.6044   23286670.1784
     -4525.7194
    731815.23749    566056.12948  21641257.4164   21641254.5804
      -581.6874
   -201049.97549   -155817.78247  24833851.5884   24833852.2094
      1920.0944
 04  9 10 21 36 15.0020000  0  8G 3G 8G13G10G19G23G27G28
   2354006.68149   1828848.78247  23583445.0024   23583444.2954
     -1799.8594
  -1950476.46049  -1519070.08348  22480836.3464   22480834.9754
       645.5164
   4070355.68749   3162554.09448  21046321.0644   21046317.6504
     -2477.0004
   -364433.72149   -279191.51347  24572898.7214   24572898.7914
       529.2504
  -1923753.88949  -1497671.94947  23684070.0024   23684067.5614
       452.2344
   8979422.83249   6977294.35147  23299597.6504   23299594.3264
     -4529.5004
    740557.26649    572868.10448  21642920.6044   21642918.2324
      -583.8594
   -229838.32949   -178250.18347  24828372.7054   24828373.8344
      1918.3914
 04  9 10 21 36 30.0020000  0  8G 3G 8G13G10G19G23G27G28
   2381076.45349   1849942.11347  23588596.1664   23588595.6664
     -1808.9534
  -1960137.50949  -1526598.15348  22478997.9634   22478996.0724
       643.0314
   4107570.12449   3191552.35648  21053403.1114   21053400.0294
     -2484.4064
   -372311.14049   -285329.73447  24571399.8384   24571399.4674
       521.5784
  -1930489.71549  -1502920.60547  23682788.5254   23682785.8504
       446.2504
   9047399.83949   7030263.41147  23312532.9244   23312529.6894
     -4533.5944
    749335.74549    579708.48848  21644591.2524   21644589.1704
      -586.1564
   -258595.62649   -200658.34947  24822900.9714   24822901.5454
      1916.4064
 04  9 10 21 36 45.0020000  0  8G 3G 8G13G10G19G23G27G28
   2408285.60349   1871144.05247  23593773.8384   23593773.2994
     -1818.9844
  -1969757.18449  -1534093.98048  22477167.1894   22477165.7014
       639.4534
   4144899.91549   3220640.51248  21060506.4794   21060503.3694
     -2492.8444
   -380070.91549   -291376.26947  24569923.3854   24569922.5184
       512.9384
  -1937131.61949  -1508096.08147  23681524.4474   23681521.7324
       439.2344
   9115440.62849   7083282.17647  23325481.2214   23325477.2834
     -4538.6094
    758152.69249    586578.85448  21646268.7914   21646266.7874
      -589.4534
   -287319.70749   -223040.66547  24817435.1044   24817435.2684
      1913.3594
 04  9 10 21 37  0.0020000  0  8G 3G 8G13G10G19G23G27G28
   2435642.59749   1892461.19947  23598979.1584   23598978.6864
     -1828.9224
  -1979326.84649  -1541550.83848  22475346.4864   22475345.0574
       636.1724
   4182353.48749   3249825.09448  21067633.5024   21067630.5374
     -2501.1874
   -387704.44449   -297324.47347  24568469.9864   24568469.7014
       504.5164
  -1943670.94049  -1513191.61047  23680279.9164   23680277.3304
       432.3134
   9183553.28249   7136356.90247  23338442.0724   23338439.0254
     -4543.3914
    767016.51749    593485.72648  21647955.8074   21647953.8694
      -592.6874
   -316001.94149   -245390.40147  24811976.9714   24811977.0684
      1910.5474
 04  9 10 21 37 15.0020000  0  8G 3G 8G13G10G19G23G27G28
   2463143.06249   1913890.13347  23604212.6194   23604212.1194
     -1838.3594
  -1988851.00349  -1548972.24748  22473533.9794   22473532.4084
       633.1414
   4219926.38849   3279102.67948  21074783.4164   21074780.2054
     -2509.0474
   -395215.88849   -303177.52947  24567041.0804   24567040.8384
       496.5164
  -1950111.66349  -1518210.30847  23679053.6664   23679051.4674
       425.8594
   9251733.43649   7189484.25447  23351416.7214   23351413.3574
     -4547.8284
    775922.88649    600425.76848  21649650.6274   21649647.8344
      -595.4374
   -344646.35949   -267710.62547  24806525.9714   24806526.3464
      1908.1724
 04  9 10 21 37 30.0020000  0  8G 3G 8G13G10G19G23G27G28
   2490788.98849   1935432.42047  23609473.3934   23609473.1704
     -1848.1254
  -1998327.72049  -1556356.68448  22471730.3544   22471728.7364
       629.9384
   4257620.49749   3308474.70248  21081956.5024   21081953.2324
     -2517.2344
   -402603.13649   -308933.79447  24565635.6584   24565634.9944
       488.0164
  -1956451.55849  -1523150.46447  23677847.7834   23677845.5764
       418.9844
   9319982.82749   7242665.56647  23364404.1894   23364400.3964
     -4552.4534
    784873.65349    607400.39848  21651353.4634   21651351.1584
      -598.4534
   -373250.91649   -289999.79447  24801082.6354   24801082.9634
      1905.3754
 04  9 10 21 37 45.0020000  0  8G 3G 8G13G10G19G23G27G28
   2518579.13849   1957087.08947  23614761.7994   23614761.1044
     -1856.9844
  -2007758.24749  -1563705.11148  22469936.0644   22469934.1194
       627.6564
   4295434.73749   3337940.33448  21089152.2054   21089149.1974
     -2524.4374
   -409867.02149   -314593.96647  24564252.7134   24564252.4284
       480.5314
  -1962691.35849  -1528012.59647  23676660.3544   23676657.7874
       413.1414
   9388300.11049   7295899.74947  23377404.4394   23377401.1044
     -4556.2664
    793867.76049    614408.79248  21653065.4944   21653063.3504
      -600.5784
   -401816.59849   -312258.69347  24795646.9634   24795647.0884
      1903.5634
 04  9 10 21 38  0.0020000  0  8G 3G 8G13G10G19G23G27G28
   2546516.13649   1978856.16547  23620078.2684   23620077.7564
     -1867.2814
  -2017139.68549  -1571015.31148  22468150.9474   22468148.6354
       623.8444
   4333371.81049   3367501.67848  21096371.5414   21096367.9634
     -2533.1414
   -417004.69249   -320155.74447  24562894.6194   24562893.8304
       471.8134
  -1968828.14449  -1532794.48647  23675492.6504   23675490.1864
       405.7504
   9456687.63949   7349188.68847  23390418.3774   23390414.9984
     -4561.4064
    802907.82449    621453.00748  21654785.6354   21654783.2684
      -604.1254
   -430340.56149   -334485.06047  24790218.6584   24790219.0374
      1900.3444
 04  9 10 21 38 15.0020000  0  8G 3G 8G13G10G19G23G27G28
   2574596.96249   2000737.35447  23625421.9864   23625421.2794
     -1877.0784
  -2026475.15449  -1578289.67448  22466374.2134   22466372.2994
       620.6564
   4371428.64449   3397156.33648  21103613.3464   21103610.5414
     -2541.2974
   -424018.91149   -325621.34347  24561560.3774   24561559.6624
       463.5004
  -1974864.71249  -1537498.25647  23674343.7134   23674341.2954
       398.9534
   9525142.32049   7402529.95447  23403444.3614   23403441.0924
     -4566.0474
    811990.81749    628530.67448  21656513.9794   21656511.6044
      -607.1564
   -458825.54349   -356681.06247  24784799.0414   24784797.8964
      1897.5474
 04  9 10 21 38 30.0020000  0  8G 3G 8G13G10G19G23G27G28
   2602821.30749   2022730.33647  23630792.3304   23630792.1354
     -1886.0314
  -2035764.79849  -1585528.35648  22464606.2294   22464604.4554
       618.0784
   4409604.87349   3426904.04448  21110878.3224   21110875.2794
     -2548.7504
   -430909.85749   -330990.88947  24560248.9324   24560248.3144
       455.6254
  -1980801.07549  -1542123.96447  23673214.0334   23673211.4364
       392.7344
   9593663.52049   7455923.05047  23416484.0574   23416480.4674
     -4569.9064
    821116.52749    635641.62548  21658250.8934   21658248.4434
      -609.4374
   -487271.75049   -378846.83947  24779384.6584   24779385.1354
      1895.4384
 04  9 10 21 38 45.0020000  0  8G 3G 8G13G10G19G23G27G28
   2631188.34549   2044834.53947  23636190.5804   23636190.2094
     -1896.0784
  -2045009.38449  -1592731.89948  22462847.4714   22462845.6464
       614.7194
   4447899.79249   3456744.22548  21118165.3934   21118162.2254
     -2557.0944
   -437678.08049   -336264.83647  24558960.6824   24558960.0294
       447.0784
  -1986637.64449  -1546671.90547  23672103.5024   23672100.7874
       385.6564
   9662250.34549   7509367.26647  23429535.4944   23429532.1934
     -4574.7664
    830284.04649    642785.14648  21659994.9554   21659992.8544
      -612.7194
   -515679.80749   -400982.92047  24773978.6894   24773978.9794
      1892.4844
 04  9 10 21 39  0.0020000  0  8G 3G 8G13G10G19G23G27G28
   2659702.72249   2067053.53847  23641617.0184   23641616.3814
     -1905.8914
  -2054204.29549  -1599896.75048  22461097.4864   22461095.7014
       611.4064
   4486317.97449   3486680.46448  21125476.1744   21125472.8544
     -2565.2814
   -444318.64349   -341439.28047  24557697.1664   24557696.6864
       438.4224
  -1992369.57849  -1551138.30247  23671012.9324   23671009.8734
       378.6414
   9730907.29549   7562866.15447  23442600.1274   23442596.8694
     -4579.4534
    839498.16849    649964.99148  21661748.4004   21661746.0414
      -615.7974
   -544044.69449   -423085.31747  24768581.7054   24768580.7994
      1889.5784
 04  9 10 21 39 15.0020000  0  8G 3G 8G13G10G19G23G27G28
   2688361.18749   2089384.81447  23647070.0574   23647069.7054
     -1915.0314
  -2063352.60249  -1607025.28248  22459356.6744   22459354.5924
       608.7034
   4524856.24249   3516710.27748  21132809.9164   21132806.9364
     -2572.8444
   -450834.73749   -346516.71247  24556457.2134   24556456.5254
       430.5634
  -1997999.72549  -1555525.38947  23669941.4004   23669938.9674
       372.3594
   9799630.99049   7616417.03547  23455678.4244   23455674.6664
     -4583.4844
    848755.58549    657178.56348  21663509.9084   21663507.3934
      -618.3124
   -572369.51549   -445156.53947  24763191.3614   24763191.2604
      1887.3444
 04  9 10 21 39 30.0020000  0  8G 3G 8G13G10G19G23G27G28
   2717161.54649   2111826.65047  23652550.5804   23652550.3964
     -1924.6724
  -2072456.61049  -1614119.30048  22457624.1274   22457622.5104
       605.5004
   4563512.34449   3546831.89748  21140165.6194   21140162.5144
     -2580.9694
   -457228.14549   -351498.56347  24555240.7604   24555240.2324
       422.2194
  -2003529.94349  -1559834.62047  23668889.3224   23668885.8734
       365.4224
   9868418.92949   7670017.96947  23468768.4864   23468764.4754
     -4587.9534
    858054.14649    664424.20048  21665279.7134   21665277.2834
      -621.2034
   -600656.34749   -467198.13947  24757808.6744   24757808.3734
      1884.6564
 04  9 10 21 39 45.0020000  0  8G 3G 8G13G10G19G23G27G28
   2746105.57749   2134380.43847  23658058.2054   23658058.3034
     -1934.4534
  -2081514.64049  -1621177.49348  22455900.4864   22455898.4084
       602.1884
   4602287.92849   3577046.63648  21147544.7914   21147541.6894
     -2589.1094
   -463497.00849   -356383.39347  24554047.3854   24554046.8344
       413.7664
  -2008958.26149  -1564064.43747  23667855.7604   23667853.1664
       358.3754
   9937272.71749   7723670.22947  23481870.6354   23481867.6044
     -4592.5784
    867395.53949    671703.21548  21667057.4244   21667054.7174
      -624.3284
   -628903.41549   -489208.74047  24752432.9004   24752433.0024
      1881.6724
 04  9 10 21 40  0.0020000  0  8G 3G 8G13G10G19G23G27G28
   2775194.13249   2157046.85147  23663594.2914   23663593.7254
     -1943.8284
  -2090525.43149  -1628198.85748  22454185.7684   22454183.9164
       599.3444
   4641183.99549   3607355.24348  21154946.2444   21154943.0184
     -2596.8594
   -469640.19649   -361170.25647  24552878.6744   24552878.1274
       405.5944
  -2014283.42949  -1568213.87047  23666843.0334   23666840.1934
       351.8284
  10006193.07449   7777374.35247  23494985.5334   23494982.6194
     -4596.6564
    876780.76549    679016.39048  21668843.4794   21668840.8894
      -626.8284
   -657109.32249   -511187.28747  24747065.5184   24747064.8814
      1879.2504
 04  9 10 21 40 15.0020000  0  8G 3G 8G13G10G19G23G27G28
   2804431.32149   2179829.06447  23669158.3074   23669157.5574
     -1954.4534
  -2099484.91349  -1635180.25548  22452480.8774   22452479.1194
       595.2344
   4680204.65949   3637760.93148  21162371.9554   21162368.4634
     -2605.8754
   -475653.30949   -365855.79147  24551734.2444   24551733.7714
       396.2194
  -2019500.86749  -1572279.38147  23665849.5724   23665847.4394
       343.8284
  10075183.97649   7831133.45047  23508114.6664   23508111.6894
     -4602.0314
    886214.03049    686366.97748  21670638.1114   21670636.3144
      -630.8444
   -685269.86149   -533130.49647  24741706.8144   24741706.6154
      1875.5004
 04  9 10 21 40 30.0020000  0  8G 3G 8G13G10G19G23G27G28
   2833818.70349   2202728.32847  23674749.6274   23674749.5964
     -1964.4064
  -2108391.71449  -1642120.59848  22450786.0184   22450784.4324
       591.7814
   4719351.45649   3668264.93248  21169821.0414   21169818.0374
     -2614.2344
   -481534.41549   -370438.47647  24550614.9634   24550614.3774
       387.5004
  -2024608.75749  -1576259.51847  23664877.7754   23664874.4004
       336.5784
  10144246.82949   7884948.62047  23521256.9004   23521253.5614
     -4606.8444
    895696.83349    693756.19248  21672442.8464   21672440.2754
      -634.0944
   -713383.15749   -555036.83447  24736357.1044   24736356.3894
      1872.4384
 04  9 10 21 40 45.0020000  0  8G 3G 8G13G10G19G23G27G28
   2863348.90149   2225738.87047  23680369.4394   23680368.9364
     -1972.9374
  -2117252.81249  -1649025.33148  22449099.5574   22449097.6784
       589.6724
   4758617.14249   3698861.57048  21177293.1434   21177289.8464
     -2621.1724
   -487290.89049   -374923.94547  24549519.1584   24549518.4634
       380.0474
  -2029614.24049  -1580159.85247  23663925.3694   23663922.5804
       330.6564
  10213374.00849   7938813.90947  23534411.3304   23534408.5024
     -4610.1564
    905221.91149    701178.34148  21674255.1824   21674252.4904
      -635.9534
   -741456.40649   -576912.04247  24731014.9324   24731014.4244
      1870.6724
 04  9 10 21 41  0.0020000  0  8G 3G 8G13G10G19G23G27G28
   2893020.02849   2248859.23447  23686015.5024   23686015.0964
     -1982.5944
  -2126070.12449  -1655895.94148  22447421.7834   22447419.4794
       586.5164
   4797999.76249   3729549.31148  21184787.3854   21184784.0764
     -2629.2814
   -492924.15649   -379313.48747  24548447.2054   24548447.1704
       371.4694
  -2034518.74149  -1583981.50447  23662992.1744   23662988.6624
       323.6724
  10282563.60949   7992727.83247  23547577.9164   23547574.2254
     -4614.5624
    914787.38049    708631.96048  21676075.5024   21676072.9284
      -638.9374
   -769491.21849   -598757.24347  24725679.4084   24725679.2754
      1867.8594
 04  9 10 21 41 15.0020000  0  8G 3G 8G13G10G19G23G27G28
   2922833.09649   2272090.20147  23691688.6584   23691687.8424
     -1992.4844
  -2134842.82649  -1662731.78648  22445752.4164   22445750.8574
       583.0944
   4837500.27649   3760328.92148  21192303.6974   21192301.0334
     -2637.4694
   -498433.15749   -383606.16947  24547398.9794   24547398.9204
       362.8134
  -2039320.97649  -1587723.47247  23662077.4634   23662074.7604
       316.4844
  10351816.34449   8046690.96247  23560755.9714   23560752.6864
     -4619.1874
    924394.28549    716117.87948  21677903.5644   21677901.3894
      -642.0624
   -797486.45449   -620571.62847  24720352.4164   24720352.3424
      1864.8134
 04  9 10 21 41 30.0020000  0  8G 3G 8G13G10G19G23G27G28
   2952792.64649   2295435.30847  23697389.6664   23697389.2914
     -2001.5944
  -2143565.99249  -1669529.04548  22444092.6894   22444090.8074
       580.5784
   4877123.43549   3791204.09648  21199844.5964   21199840.8734
     -2645.0314
   -503812.96249   -387798.22447  24546375.5884   24546375.1704
       354.9064
  -2044016.03849  -1591381.91747  23661184.1114   23661181.6974
       310.0474
  10421136.67949   8100706.75747  23573947.1744   23573943.7484
     -4622.9064
    934047.32349    723639.71648  21679740.2604   21679738.3814
      -644.4694
   -825437.29349   -642351.42947  24715033.6354   24715033.2254
      1862.4844
 04  9 10 21 41 45.0020000  0  8G 3G 8G13G10G19G23G27G28
   2982899.33349   2318895.07147  23703118.9634   23703118.4754
     -2012.0004
  -2152239.24149  -1676287.40648  22442441.7364   22442440.1194
       576.5164
   4916869.65149   3822175.17148  21207407.6974   21207404.3184
     -2653.7344
   -509062.83649   -391889.01447  24545375.7604   24545376.0064
       345.5944
  -2048603.00049  -1594956.13347  23660311.3224   23660308.7914
       302.1724
  10490525.02049   8154775.54047  23587151.1044   23587147.9284
     -4628.1254
    943747.03049    731197.93548  21681586.2754   21681584.2644
      -648.2664
   -853342.90749   -664096.01347  24709722.9164   24709722.8264
      1858.8914
 04  9 10 21 42  0.0020000  0  8G 3G 8G13G10G19G23G27G28
   3013148.19749   2342465.59547  23708875.2994   23708874.6544
     -2021.0164
  -2160867.13149  -1683010.42248  22440800.0024   22440798.1314
       574.0004
   4956733.90049   3853238.19748  21214993.5574   21214990.3034
     -2661.2504
   -514187.47349   -395882.20247  24544400.9394   24544400.5724
       337.8594
  -2053086.55749  -1598449.77647  23659458.3544   23659455.8114
       295.7974
  10559976.25249   8208893.32047  23600367.4554   23600364.4904
     -4631.8754
    953488.53149    738788.71948  21683440.0334   21683437.8654
      -650.5624
   -881208.09749   -685809.04047  24704420.6744   24704419.7994
      1856.6094
 04  9 10 21 42 15.0020000  0  8G 3G 8G13G10G19G23G27G28
   3043542.23849   2366149.27947  23714659.2754   23714658.3464
     -2031.2974
  -2169446.72149  -1689695.79248  22439167.2994   22439165.5964
       570.1414
   4996719.28249   3884395.64248  21222602.2684   21222599.1664
     -2669.9374
   -519183.59449   -399775.26047  24543450.2754   24543449.7874
       328.6254
  -2057463.28549  -1601860.17047  23658625.1114   23658622.5844
       288.0164
  10629493.26349   8263062.38447  23613596.1434   23613593.3544
     -4636.8124
    963274.84449    746414.42648  21685302.4944   21685299.7994
      -654.1414
   -909029.56449   -707488.01147  24699125.9394   24699126.1314
      1853.0634
 04  9 10 21 42 30.0020000  0  8G 3G 8G13G10G19G23G27G28
   3074086.29649   2389949.85247  23720471.3854   23720471.1464
     -2041.5474
  -2177973.28149  -1696339.84048  22437544.7834   22437542.9324
       566.4064
   5036830.87749   3915651.41748  21230235.3774   21230232.2524
     -2678.5944
   -524046.06249   -403564.17147  24542524.3854   24542524.5764
       319.4064
  -2061728.00549  -1605183.30747  23657813.7994   23657811.1584
       280.2974
  10699080.85449   8317286.42447  23626838.4004   23626835.2644
     -4641.7504
    973110.95849    754078.94248  21687173.9864   21687171.9674
      -657.6414
   -936802.24249   -729128.97347  24693841.1354   24693840.8264
      1849.6414
 04  9 10 21 42 45.0020000  0  8G 3G 8G13G10G19G23G27G28
   3104774.45949   2413862.70947  23726310.9244   23726310.5294
     -2050.7814
  -2186452.22449  -1702946.79048  22435931.1044   22435929.3894
       563.6094
   5077062.75749   3947000.92248  21237891.3614   21237888.0614
     -2686.1724
   -528780.57849   -407253.36947  24541623.8304   24541623.9394
       311.3284
  -2065886.43549  -1608423.59747  23657022.7604   23657019.5454
       273.6094
  10768732.76149   8371560.58047  23640092.5884   23640089.8614
     -4645.7344
    982990.98949    761777.66948  21689054.4324   21689051.8934
      -660.2194
   -964531.75749   -750736.31247  24688564.3074   24688564.4364
      1847.0784
 04  9 10 21 43  0.0020000  0  8G 3G 8G13G10G19G23G27G28
   3135612.12849   2437892.06847  23732179.4714   23732179.0024
     -2060.8124
  -2194878.35549  -1709512.59148  22434327.5104   22434325.4944
       560.0314
   5117420.29949   3978448.35348  21245571.4474   21245568.0024
     -2694.6874
   -533381.55249   -410838.51947  24540748.0024   24540747.9944
       302.2504
  -2069932.72549  -1611576.51547  23656252.6274   23656249.6974
       266.0164
  10838454.25649   8425888.97547  23653360.4324   23653357.3384
     -4650.4224
    992920.36249    769514.84948  21690943.7134   21690941.1894
      -663.6094
   -992212.59049   -772305.70147  24683296.1044   24683296.5294
      1843.7194
 04  9 10 21 43 15.0020000  0  8G 3G 8G13G10G19G23G27G28
   3166595.84949   2462035.24547  23738075.6584   23738074.8694
     -2070.6564
  -2203254.85649  -1716039.71848  22432733.8224   22432732.2994
       556.5944
   5157900.08149   4009991.03248  21253274.2524   21253271.1044
     -2702.8754
   -537852.09449   -414322.05947  24539897.6504   24539897.4824
       293.3914
  -2073869.93049  -1614644.42547  23655503.4554   23655500.6544
       258.7194
  10908241.84749   8480268.85347  23666640.5494   23666637.6234
     -4654.8754
   1002895.80149    777287.92648  21692842.2054   21692839.3734
      -666.7344
  -1019847.84649   -793839.59647  24678037.3384   24678038.2754
      1840.6564
 04  9 10 21 43 30.0030000  0  8G 3G 8G13G10G19G23G27G28
   3197726.73549   2486293.08147  23743999.5854   23743999.0774
     -2080.4534
  -2211583.29149  -1722529.38248  22431148.3904   22431146.9334
       553.1564
   5198503.79649   4041630.28248  21261000.9214   21260997.7334
     -2711.1724
   -542193.18949   -417704.70447  24539071.7184   24539071.4724
       284.5634
  -2077698.97449  -1617628.05947  23654774.7724   23654771.8474
       251.2194
  10978099.11649   8534703.04447  23679933.9054   23679930.8274
     -4659.4844
   1012917.05049    785096.70148  21694749.0774   21694746.6204
      -669.9844
  -1047439.98849   -815339.87547  24672786.7184   24672786.7184
      1837.4844
 04  9 10 21 43 45.0030000  0  8G 3G 8G13G10G19G23G27G28
   3229001.07549   2510662.70247  23749951.1164   23749950.4954
     -2090.4064
  -2219862.06849  -1728980.36248  22429573.5464   22429571.7614
       549.6564
   5239226.41049   4073362.17748  21268750.1404   21268746.7884
     -2719.4064
   -546403.70949   -420985.59747  24538270.3824   24538270.5584
       275.7504
  -2081418.51049  -1620526.37547  23654066.9444   23654064.0934
       243.8284
  11048016.90149   8589184.38347  23693239.1474   23693236.3354
     -4663.9064
   1022983.12149    792940.39348  21696664.5154   21696661.8044
      -673.1564
  -1074984.86949   -836803.32947  24667545.5774   24667545.0934
      1834.2504
 04  9 10 21 44  0.0030000  0  8G 3G 8G13G10G19G23G27G28
   3260417.82849   2535143.29347  23755929.1084   23755928.7844
     -2099.6414
  -2228094.88749  -1735395.53648  22428006.8824   22428005.1944
       546.8754
   5280067.55849   4105186.43248  21276522.1164   21276518.8234
     -2727.1414
   -550486.78749   -424167.20347  24537494.1324   24537493.3974
       267.3444
  -2085031.59849  -1623341.73747  23653379.0774   23653376.2184
       236.8444
  11117996.61949   8643713.98447  23706555.6794   23706552.4914
     -4667.8284
   1033091.71649    800817.21948  21698588.2884   21698585.9214
      -675.7034
  -1102487.06149   -858233.52447  24662311.9214   24662311.9644
      1831.5944
 04  9 10 21 44 15.0030000  0  8G 3G 8G13G10G19G23G27G28
   3291977.27749   2559735.07547  23761934.4524   23761934.6124
     -2108.7664
  -2236281.09649  -1741774.38048  22426449.2884   22426447.6324
       544.1414
   5321027.61749   4137103.34948  21284316.1714   21284313.2184
     -2734.6874
   -554441.81749   -427249.02647  24536741.1554   24536740.6944
       259.3284
  -2088537.67149  -1626073.70747  23652711.5384   23652708.7924
       230.1254
  11188038.54549   8698292.05147  23719884.4914   23719881.4764
     -4671.5004
   1043243.27549    808727.53148  21700519.7334   21700517.5074
      -678.2344
  -1129946.09649   -879630.10547  24657086.2574   24657086.2764
      1829.2344
 04  9 10 21 44 30.0030000  0  8G 3G 8G13G10G19G23G27G28
   3323680.20649   2584438.67247  23767967.5384   23767966.7654
     -2118.1414
  -2244420.01049  -1748116.37048  22424900.3664   22424898.3974
       541.0944
   5362107.41349   4169113.57748  21292133.4444   21292130.2964
     -2742.5314
   -558267.79249   -430230.28847  24536013.4764   24536011.7804
       250.9694
  -2091935.64449  -1628721.45147  23652065.2494   23652062.4834
       223.0314
  11258143.09349   8752918.92347  23733224.5854   23733221.5034
     -4675.5944
   1053438.51349    816671.88348  21702460.2574   21702457.6364
      -681.0004
  -1157360.97049   -900992.25947  24651869.3354   24651869.5224
      1826.2664
 04  9 10 21 44 45.0030000  0  8G 3G 8G13G10G19G23G27G28
   3355524.91549   2609252.74547  23774027.8124   23774027.3044
     -2127.6094
  -2252513.12549  -1754422.66348  22423360.0854   22423358.1084
       538.1094
   5403305.11249   4201215.65648  21299973.1794   21299969.8864
     -2750.3594
   -561966.21849   -433112.14947  24535308.8274   24535308.3784
       242.2814
  -2095226.93449  -1631286.05147  23651439.2104   23651436.6514
       215.8754
  11328308.40849   8807593.13447  23746576.4444   23746573.8544
     -4679.5944
   1063675.65049    824648.87748  21704407.8744   21704405.6794
      -683.7814
  -1184733.36149   -922321.29147  24646660.2334   24646660.7454
      1823.5314
 04  9 10 21 45  0.0030000  0  8G 3G 8G13G10G19G23G27G28
   3387514.63349   2634179.80047  23780114.9444   23780114.4404
     -2137.2974
  -2260557.16049  -1760690.71948  22421829.3744   22421827.7494
       534.8134
   5444623.98749   4233412.17348  21307835.8434   21307832.8944
     -2758.4374
   -565533.54249   -435891.84147  24534630.0464   24534629.3514
       233.5944
  -2098407.86249  -1633764.66547  23650833.6164   23650830.4764
       208.5474
  11398537.62749   8862317.14747  23759941.1324   23759937.7494
     -4683.8594
   1073958.27749    832661.31248  21706364.9134   21706362.3544
      -686.8914
  -1212059.57849   -943614.38347  24641461.0384   24641460.1124
      1820.3914
 04  9 10 21 45 15.0030000  0  8G 3G 8G13G10G19G23G27G28
   3419648.73549   2659219.36947  23786229.4914   23786229.4214
     -2147.0624
  -2268552.89849  -1766921.15648  22420307.6944   22420305.8624
       531.4224
   5486063.36549   4265702.59548  21315721.6474   21315718.4214
     -2766.6094
   -568970.27149   -438569.79147  24533976.3904   24533975.6554
       224.8444
  -2101478.75549  -1636157.52647  23650249.4294   23650246.6014
       201.0944
  11468830.04949   8917090.41447  23773316.9524   23773314.2104
     -4688.2194
   1084285.70149    840708.66348  21708329.8664   21708327.9684
      -690.0314
  -1239340.02249   -964871.79147  24636269.3904   24636268.8084
      1817.1884
 04  9 10 21 45 30.0030000  0  8G 3G 8G13G10G19G23G27G28
   3451922.79749   2684368.00947  23792371.4444   23792370.5774
     -2156.3594
  -2276504.40249  -1773117.11148  22418794.7804   22418792.7414
       528.6414
   5527619.03349   4298083.62648  21323629.1874   21323626.2184
     -2774.2814
   -572280.51249   -441149.20947  24533346.1164   24533345.3434
       216.3444
  -2104443.68549  -1638467.83247  23649684.8664   23649681.3704
       194.0944
  11539181.07249   8971909.34847  23786705.0774   23786701.7454
     -4692.1094
   1094653.56249    848787.52748  21710302.4684   21710300.5114
      -692.5314
  -1266579.01049   -986096.89847  24631086.0934   24631085.6514
      1814.5634
 04  9 10 21 45 45.0030000  0  8G 3G 8G13G10G19G23G27G28
   3484345.00949   2709632.06747  23798540.8124   23798540.2374
     -2166.4374
  -2284403.42249  -1779272.17548  22417291.5154   22417289.8864
       524.8284
   5569299.17949   4330561.64648  21331560.8434   21331557.6714
     -2782.8594
   -575455.91949   -443623.52847  24532742.4834   24532741.5504
       207.2194
  -2107294.08949  -1640688.89447  23649142.5074   23649140.0504
       186.1724
  11609598.67749   9026780.15447  23800105.1404   23800101.6634
     -4696.7814
   1105070.19949    856904.38548  21712285.0464   21712282.3354
      -696.1094
  -1293767.99249  -1007283.03247  24625912.1944   24625911.5624
      1810.9224
 04  9 10 21 46  0.0030000  0  8G 3G 8G13G10G19G23G27G28
   3516916.26549   2735012.27447  23804739.1324   23804738.7414
     -2176.3594
  -2292248.71149  -1785385.37248  22415798.8194   22415796.7964
       521.2814
   5611104.67449   4363137.34548  21339516.4684   21339513.1084
     -2791.1254
   -578495.09649   -445991.69647  24532163.4764   24532162.9524
       198.1094
  -2110028.64749  -1642819.67847  23648622.3664   23648619.2534
       178.5314
  11680083.77349   9081703.54847  23813517.7654   23813514.8194
     -4701.2194
   1115536.57549    865059.99948  21714276.6404   21714274.2224
      -699.3754
  -1320905.71049  -1028429.23747  24620747.5694   24620747.2724
      1807.5164
 04  9 10 21 46 15.0030000  0  8G 3G 8G13G10G19G23G27G28
   3549635.22849   2760507.56947  23810965.1874   23810964.6984
     -2185.7814
  -2300041.86849  -1791457.93948  22414315.4524   22414313.9054
       518.1564
   5653034.25549   4395809.73748  21347495.2184   21347492.2454
     -2799.0624
   -581399.17449   -448254.57847  24531611.1014   24531609.8824
       189.3754
  -2112648.42949  -1644861.05047  23648123.6474   23648120.3974
       171.1724
  11750634.83149   9136678.35347  23826942.8124   23826940.2694
     -4705.2814
   1126051.47049    873253.43848  21716277.6164   21716275.5424
      -702.2504
  -1347993.20749  -1049536.31247  24615593.0694   24615592.3514
      1804.5164
 04  9 10 21 46 30.0030000  0  8G 3G 8G13G10G19G23G27G28
   3582494.97449   2786112.58647  23817218.0154   23817217.2724
     -2195.4374
  -2307789.65349  -1797495.16348  22412841.5544   22412839.4684
       514.8134
   5695080.94849   4428573.37348  21355496.3584   21355493.2724
     -2807.1564
   -584174.92649   -450417.49547  24531082.6634   24531082.1674
       180.5944
  -2115160.18849  -1646818.23047  23647645.7574   23647642.2494
       163.6724
  11821244.76649   9191699.02547  23840379.6084   23840377.0114
     -4709.3594
   1136608.08649    881479.37648  21718286.7414   21718284.2454
      -705.2664
  -1375037.22849  -1070609.50647  24610446.8514   24610446.1794
      1801.2974
 04  9 10 21 46 45.0030000  0  8G 3G 8G13G10G19G23G27G28
   3615500.95449   2811831.52947  23823498.8974   23823498.2144
     -2205.3284
  -2315486.40949  -1803492.61448  22411376.7494   22411374.9444
       511.3914
   5737250.33949   4461432.63448  21363520.9524   21363517.5694
     -2815.4534
   -586816.75949   -452476.03347  24530579.9214   24530579.1594
       171.4844
  -2117558.03149  -1648686.66047  23647189.3974   23647186.2804
       155.9844
  11891918.85349   9246769.67547  23853828.3824   23853825.4014
     -4713.7974
   1147211.90049    889742.09148  21720304.2654   21720301.8664
      -708.5784
  -1402032.22249  -1091644.50247  24605309.6714   24605309.0194
      1798.0784
 04  9 10 21 47  0.0030000  0  8G 3G 8G13G10G19G23G27G28
   3648657.24249   2837667.61847  23829808.2724   23829807.4874
     -2214.4844
  -2323128.18749  -1809447.22348  22409922.1324   22409920.2064
       508.5784
   5779546.33149   4494390.52748  21371569.4764   21371566.4684
     -2822.9844
   -589320.34849   -454426.89247  24530103.2654   24530102.4014
       163.2034
  -2119837.59649  -1650462.91647  23646755.6794   23646752.3544
       149.0004
  11962661.01549   9301893.38047  23867290.3274   23867286.9794
     -4717.4844
   1157866.87649    898044.66648  21722331.8514   21722329.4294
      -711.0944
  -1428973.90749  -1112637.97047  24600183.0544   24600181.9094
      1795.2664
 04  9 10 21 47 15.0030000  0  8G 3G 8G13G10G19G23G27G28
   3681957.03749   2863615.51147  23836145.3824   23836144.5544
     -2225.2034
  -2330721.54849  -1815364.11448  22408477.6084   22408476.0504
       504.0784
   5821962.28849   4527441.90648  21379641.2804   21379638.1284
     -2832.2194
   -591692.12549   -456274.99247  24529652.2184   24529651.6124
       153.2504
  -2122005.15149  -1652151.88947  23646342.9764   23646339.9794
       140.2664
  12033464.40549   9357064.79847  23880763.8514   23880761.1014
     -4722.7814
   1168566.49949    906382.03048  21724368.4294   21724366.1324
      -715.2974
  -1455868.71849  -1133594.89547  24595064.7414   24595064.0734
      1790.8444
 04  9 10 21 47 30.0030000  0  8G 3G 8G13G10G19G23G27G28
   3715403.40849   2889677.63847  23842509.5934   23842509.3824
     -2234.7034
  -2338263.27149  -1821240.74748  22407042.2654   22407040.4794
       501.0634
   5864501.23749   4560589.13448  21387735.9374   21387732.7334
     -2840.0314
   -593928.93949   -458017.96147  24529226.2184   24529225.5034
       144.5314
  -2124057.34849  -1653750.97747  23645952.7494   23645949.1904
       132.8754
  12104331.90949   9412286.17647  23894249.4994   23894246.6084
     -4726.7504
   1179313.88149    914756.62448  21726412.9294   21726410.3904
      -718.1094
  -1482713.30949  -1154512.69347  24589956.3974   24589956.1364
      1787.9224
 04  9 10 21 47 45.0030000  0  8G 3G 8G13G10G19G23G27G28
   3748994.25749   2915852.31247  23848901.8584   23848901.4724
     -2243.7814
  -2345755.40849  -1827078.77348  22405616.5224   22405614.9134
       498.1884
   5907161.09949   4593830.57448  21395854.0854   21395850.9174
     -2847.6564
   -596032.51049   -459657.06847  24528826.2024   24528825.6944
       136.1724
  -2125995.79249  -1655261.43447  23645583.3354   23645580.9954
       125.7974
  12175261.15449   9467555.66947  23907746.6404   23907743.6164
     -4730.3444
   1190106.94549    923166.80348  21728466.8974   21728464.4174
      -720.7194
  -1509509.59649  -1175392.84747  24584857.5384   24584857.0624
      1785.1094
 04  9 10 21 48  0.0030000  0  8G 3G 8G13G10G19G23G27G28
   3782730.23349   2942140.10947  23855321.9764   23855321.2454
     -2254.0624
  -2353197.33149  -1832877.64648  22404200.1084   22404198.3314
       494.3134
   5949942.55949   4627166.77648  21403994.8274   21403991.7724
     -2856.3124
   -598001.94949   -461191.66747  24528451.4134   24528451.1364
       126.5474
  -2127819.61549  -1656682.56047  23645236.7264   23645233.6474
       117.6414
  12246252.86849   9522873.83147  23921256.0934   23921253.6474
     -4735.0474
   1200946.51849    931613.24248  21730529.8124   21730527.7104
      -724.3444
  -1536256.60849  -1196234.61747  24579767.4214   24579766.6244
      1781.2974
 04  9 10 21 48 15.0030000  0  8G 3G 8G13G10G19G23G27G28
   3816609.98849   2968539.92247  23861768.9604   23861768.2224
     -2263.7344
  -2360590.06449  -1838638.19148  22402793.5464   22402792.0034
       490.8754
   5992844.39049   4660596.75348  21412158.9054   21412156.0304
     -2864.4694
   -599838.27549   -462622.56647  24528102.0384   24528101.7694
       117.6564
  -2129529.75149  -1658015.10547  23644910.7884   23644907.6594
       109.8914
  12317305.56549   9578239.50147  23934777.3904   23934774.3314
     -4739.1094
   1211831.30549    940094.88148  21732600.9374   21732598.1944
      -727.4844
  -1562955.45549  -1217038.84947  24574687.4994   24574686.0504
      1777.9844
 04  9 10 21 48 30.0030000  0  8G 3G 8G13G10G19G23G27G28
   3850633.06249   2995051.40247  23868243.7804   23868242.8234
     -2272.5164
  -2367933.94649  -1844360.68448  22401396.1714   22401394.5034
       488.5004
   6035866.01949   4694120.10048  21420345.4914   21420342.9684
     -2871.6724
   -601541.90549   -463950.05547  24527777.6324   24527777.1984
       109.6564
  -2131126.51749  -1659259.32547  23644607.3824   23644604.1874
       103.2194
  12388418.54349   9633652.15847  23948309.7024   23948307.0894
     -4742.3914
   1222760.93949    948611.48948  21734680.9444   21734678.7964
      -729.5944
  -1589606.33949  -1237805.71847  24569615.5854   24569614.1404
      1775.5634
 04  9 10 21 48 45.0030000  0  8G 3G 8G13G10G19G23G27G28
   3884791.06649   3021668.04847  23874743.5464   23874742.3274
     -2281.9064
  -2375237.44449  -1850051.69848  22400005.8974   22400004.3354
       485.2814
   6078999.17649   4727730.33448  21428553.4294   21428550.5694
     -2879.5314
   -603120.86449   -465180.40047  24527477.2724   24527476.3474
       100.8594
  -2132617.90149  -1660421.41047  23644323.3664   23644320.3944
        95.6094
  12459583.27449   9689105.13747  23961851.6944   23961849.1714
     -4746.2974
   1233727.19749    957156.64048  21736767.8044   21736765.2654
      -732.5474
  -1616217.40449  -1258541.54347  24564551.1244   24564550.2334
      1772.4534
 04  9 10 21 49  0.0030000  0  8G 3G 8G13G10G19G23G27G28
   3919093.46749   3048397.21447  23881270.5304   23881270.4954
     -2292.0784
  -2382490.63349  -1855703.51048  22398625.9684   22398624.1634
       481.3444
   6122253.43949   4761434.94448  21436784.7334   21436781.7184
     -2888.2034
   -604565.23249   -466305.84047  24527202.8584   24527201.7614
        91.1564
  -2133994.02549  -1661493.69247  23644061.6874   23644058.3974
        87.4534
  12530809.26049   9744605.84747  23975405.3824   23975403.1284
     -4750.8914
   1244739.73649    965737.83748  21738863.4214   21738860.7184
      -736.1874
  -1642778.86349  -1279238.75447  24559496.8584   24559495.7614
      1768.6254
 04  9 10 21 49 15.0030000  0  8G 3G 8G13G10G19G23G27G28
   3953545.09049   3075242.61447  23887827.1634   23887826.0384
     -2302.0474
  -2389688.82249  -1861312.47948  22397256.1554   22397254.5034
       477.7814
   6165633.49849   4795237.57948  21445039.7494   21445036.5654
     -2896.4534
   -605870.15749   -467322.65147  24526954.0464   24526953.6284
        82.1094
  -2135249.82049  -1662472.20747  23643822.2884   23643819.0814
        79.4384
  12602101.16049   9800157.90847  23988971.9684   23988969.5424
     -4755.2664
   1255803.27249    974358.77148  21740968.5154   21740966.0384
      -739.5474
  -1669285.75049  -1299893.39547  24554452.6554   24554451.7844
      1765.0314
 04  9 10 21 49 30.0030000  0  8G 3G 8G13G10G19G23G27G28
   3988142.21149   3102201.42247  23894410.2494   23894410.1244
     -2311.3594
  -2396835.68049  -1866881.44148  22395896.2414   22395894.1904
       474.7344
   6209135.67549   4829135.36048  21453317.8124   21453314.8434
     -2904.2664
   -607039.12749   -468233.51047  24526731.5934   24526730.8084
        73.4064
  -2136388.64349  -1663359.58047  23643605.8124   23643602.6324
        71.9534
  12673454.98649   9855758.22747  24002550.4524   24002547.2884
     -4759.0004
   1266914.25949    983016.68348  21743083.1634   21743080.9794
      -742.3124
  -1695741.43749  -1320508.15947  24549418.0154   24549417.5384
      1761.9844
 04  9 10 21 49 45.0030000  0  8G 3G 8G13G10G19G23G27G28
   4022881.76049   3129271.22347  23901020.8744   23901020.6874
     -2321.0624
  -2403934.07449  -1872412.63748  22394545.3904   22394543.7374
       471.2344
   6252756.97649   4863125.97048  21461618.7654   21461615.8514
     -2912.4224
   -608074.99949   -469040.71547  24526534.3584   24526533.5624
        64.2034
  -2137413.11349  -1664157.83247  23643410.9054   23643407.8704
        64.1254
  12744867.57649   9911404.35547  24016139.9134   24016136.6444
     -4763.1564
   1278069.78849    991709.30248  21745205.8824   21745203.5074
      -745.5164
  -1722148.80149  -1341085.26947  24544392.8514   24544392.1754
      1758.5314
 04  9 10 21 50  0.0030000  0  8G 3G 8G13G10G19G23G27G28
   4057762.31649   3156450.88847  23907658.8514   23907658.3544
     -2330.4844
  -2410985.07249  -1877906.90948  22393203.3664   22393201.6404
       468.0784
   6296496.16649   4897208.45348  21469941.8664   21469938.9254
     -2920.3594
   -608978.85249   -469745.00347  24526362.3434   24526361.5894
        55.5164
  -2138324.33849  -1664867.85347  23643237.1794   23643234.2144
        56.5474
  12816337.43349   9967095.07747  24029740.1164   24029737.2374
     -4766.9374
   1289268.47649   1000435.56748  21747336.8044   21747333.9444
      -748.4374
  -1748508.84149  -1361625.48347  24539377.0694   24539376.2414
      1755.3284
 04  9 10 21 50 15.0030000  0  8G 3G 8G13G10G19G23G27G28
   4092784.64349   3183741.02647  23914323.4444   23914322.6514
     -2339.3444
  -2417987.86049  -1883363.61248  22391870.9834   22391868.9914
       465.3594
   6340353.78449   4931383.19648  21478287.7334   21478285.0224
     -2927.6254
   -609749.62549   -470345.56247  24526215.6244   24526214.8234
        47.0314
  -2139121.12349  -1665488.70547  23643085.6164   23643082.6244
        49.4224
  12887865.13649  10022830.88447  24043351.5304   24043348.5344
     -4770.2814
   1300511.24949   1009196.16948  21749476.3354   21749473.7144
      -750.8284
  -1774820.66149  -1382128.14547  24534369.7024   24534369.0734
      1752.6724
 04  9 10 21 50 30.0030000  0  8G 3G 8G13G10G19G23G27G28
   4127950.42149   3211142.92747  23921015.1714   23921014.4014
     -2349.4224
  -2424940.74449  -1888781.42548  22390547.9054   22390546.0694
       461.6254
   6384331.51849   4965651.56248  21486656.4914   21486653.6474
     -2936.1414
   -610385.58449   -470841.09747  24526094.7184   24526093.4604
        37.8594
  -2139801.48449  -1666018.82347  23642956.0384   23642953.4254
        41.0944
  12959452.30849  10078613.04547  24056974.3664   24056971.3864
     -4774.7034
   1311799.88749   1017992.51848  21751624.2884   21751621.9644
      -754.3914
  -1801082.31549  -1402591.71147  24529372.1014   24529371.4764
      1748.8284
 04  9 10 21 50 45.0030000  0  8G 3G 8G13G10G19G23G27G28
   4163259.89549   3238656.81247  23927733.8354   23927733.3544
     -2359.0314
  -2431843.74149  -1894160.36448  22389234.1874   22389232.3274
       458.2504
   6428429.69849   5000013.77748  21495048.1324   21495045.0934
     -2944.1094
   -610886.00749   -471231.01947  24525999.7804   24525999.0074
        28.5784
  -2140364.96349  -1666457.88347  23642849.0074   23642846.1324
        33.4384
  13031098.99149  10134441.56647  24070607.7024   24070605.2494
     -4778.7344
   1323134.70149   1026824.84748  21753781.3664   21753778.9764
      -757.5164
  -1827293.34649  -1423015.83147  24524384.2414   24524383.5694
      1745.3914
 04  9 10 21 51  0.0030000  0  8G 3G 8G13G10G19G23G27G28
   4198713.97849   3266283.37547  23934480.8354   23934480.3004
     -2368.7814
  -2438695.33749  -1899499.26048  22387930.2884   22387928.2494
       454.6094
   6472649.31249   5034470.59048  21503462.7804   21503459.9214
     -2952.4224
   -611249.81949   -471514.51047  24525929.5464   24525929.5624
        19.1884
  -2140810.22649  -1666804.81347  23642764.3044   23642761.1404
        25.3914
  13102806.00649  10190317.09347  24084253.5304   24084250.7614
     -4782.8754
   1334516.74549   1035693.97348  21755947.5384   21755944.4794
      -760.8124
  -1853452.50949  -1443399.53747  24519406.2024   24519405.5384
      1741.8444
 04  9 10 21 51 15.0030000  0  8G 3G 8G13G10G19G23G27G28
   4234307.77749   3294018.81647  23941253.9214   23941253.3544
     -2377.5944
  -2445500.37749  -1904801.86148  22386635.5624   22386633.4914
       452.1094
   6516985.30649   5069018.10748  21511899.4294   21511896.8744
     -2959.6724
   -611481.79049   -471695.24247  24525885.8124   24525885.3584
        11.0944
  -2141141.88149  -1667063.20847  23642701.7264   23642698.1594
        18.2814
  13174568.33949  10246235.73847  24097909.4214   24097907.1444
     -4785.9534
   1345941.17649   1044596.12748  21758121.5154   21758119.0114
      -763.1254
  -1879564.58049  -1463746.52947  24514437.1874   24514436.5654
      1739.1884
 04  9 10 21 51 30.0030000  0  8G 3G 8G13G10G19G23G27G28
   4270039.80849   3321861.96047  23948053.2264   23948053.3904
     -2386.8444
  -2452260.28849  -1910069.30348  22385349.0304   22385347.5384
       449.1884
   6561436.43549   5103655.34948  21520358.4374   21520355.7294
     -2967.2974
   -611583.03549   -471774.11647  24525866.6324   24525866.5224
         2.3594
  -2141360.90949  -1667233.86147  23642659.4294   23642656.0584
        10.7974
  13246384.39449  10302196.23947  24111575.8194   24111573.2024
     -4789.5624
   1357406.62849   1053530.25348  21760302.9914   21760300.5154
      -765.8124
  -1905630.54849  -1484057.58347  24509477.5774   24509476.6904
      1736.1414
 04  9 10 21 51 45.0030000  0  8G 3G 8G13G10G19G23G27G28
   4305924.18049   3349823.81547  23954881.9444   23954881.7104
     -2396.6874
  -2458960.70849  -1915290.40448  22384074.0544   22384072.2374
       445.3594
   6606016.88449   5138393.35948  21528841.8904   21528838.8784
     -2975.6874
   -611539.13949   -471739.89447  24525874.7334   24525874.6444
        -7.1564
  -2141452.92249  -1667305.54347  23642642.1714   23642638.5344
         2.5634
  13318268.17049  10358209.50247  24125254.7964   24125252.0654
     -4793.7974
   1368927.40749   1062507.49248  21762495.3974   21762492.9054
      -769.1874
  -1931636.03949  -1504321.55447  24504527.9294   24504527.0464
      1732.3284
 04  9 10 21 52  0.0030000  0  8G 3G 8G13G10G19G23G27G28
   4341944.15249   3377891.33447  23961736.1554   23961735.8544
     -2406.0164
  -2465618.45049  -1920478.23648  22382807.2024   22382805.5584
       442.2974
   6650710.00049   5173219.14248  21537347.0074   21537343.3704
     -2983.4374
   -611366.55549   -471605.40847  24525907.2494   24525907.2454
       -15.9694
  -2141434.22749  -1667290.95047  23642645.3974   23642641.8904
        -5.0474
  13390202.81849  10414262.42347  24138943.5854   24138940.6244
     -4797.4374
   1380486.96149   1071514.93548  21764695.0934   21764692.6674
      -772.0624
  -1957597.53749  -1524551.22347  24499588.3744   24499587.5384
      1729.2034
 04  9 10 21 52 15.0030000  0  8G 3G 8G13G10G19G23G27G28
   4378107.90249   3406070.88447  23968617.9214   23968617.8584
     -2415.2974
  -2472224.91249  -1925626.11248  22381550.0774   22381548.3194
       439.1254
   6695523.83649   5208139.00448  21545874.6794   21545871.4834
     -2991.2504
   -611056.98149   -471364.17647  24525966.4054   24525965.9374
       -24.8444
  -2141296.31749  -1667183.46347  23642671.8904   23642668.5934
       -12.7344
  13462196.45749  10470361.28947  24152643.2494   24152641.1044
     -4801.1724
   1392093.48049   1080558.98348  21766903.6014   21766900.9604
      -774.9534
  -1983506.62349  -1544740.05147  24494657.2964   24494656.7224
      1725.8444
 04  9 10 21 52 30.0030000  0  8G 3G 8G13G10G19G23G27G28
   4414415.32749   3434362.37647  23975527.4214   23975527.0114
     -2424.9534
  -2478780.10749  -1930734.05748  22380302.4604   22380300.9874
       435.6254
   6740458.28049   5243152.85648  21554425.1794   21554422.1204
     -2999.2974
   -610610.21149   -471016.04747  24526051.8434   24526050.9874
       -34.0164
  -2141038.98649  -1666982.92447  23642720.7964   23642717.0154
       -20.8444
  13534248.87249  10526505.97047  24166354.6404   24166352.1554
     -4805.1254
   1403747.06349   1089639.71448  21769121.4764   21769119.2024
      -778.1094
  -2009363.16649  -1564887.93147  24489737.3434   24489736.5304
      1722.3914
 04  9 10 21 52 45.0030000  0  8G 3G 8G13G10G19G23G27G28
   4450863.41849   3462763.49947  23982463.3664   23982462.3704
     -2434.5164
  -2485286.78749  -1935804.18148  22379064.2964   22379062.6364
       432.2504
   6785510.42149   5278258.39648  21562998.3274   21562995.3744
     -3007.3594
   -610029.09149   -470563.15947  24526162.5074   24526161.8434
       -43.1414
  -2140664.89949  -1666691.40547  23642791.8194   23642788.3744
       -28.7664
  13606356.91949  10582694.00147  24180076.0384   24180073.5894
     -4808.9844
   1415444.81949   1098754.84548  21771347.2494   21771345.4604
      -781.2814
  -2035169.83249  -1584996.94547  24484826.0854   24484826.0034
      1718.8134
 04  9 10 21 53  0.0030000  0  8G 3G 8G13G10G19G23G27G28
   4487455.47849   3491276.79947  23989426.1874   23989426.0894
     -2444.7504
  -2491741.78049  -1940834.02548  22377835.8664   22377833.9444
       428.0634
   6830683.65049   5313458.31148  21571594.6324   21571591.5624
     -3016.1414
   -609309.94649   -470002.78447  24526298.8354   24526298.5934
       -53.0474
  -2140170.36049  -1666306.02047  23642886.0694   23642882.9404
       -37.4844
  13678523.74049  10638927.82747  24193809.1244   24193806.8624
     -4813.5474
   1427190.08049   1107907.00048  21773582.5544   21773580.0694
      -785.1094
  -2060923.10549  -1605064.36347  24479925.5694   24479924.2374
      1714.6254
 04  9 10 21 53 15.0030000  0  8G 3G 8G13G10G19G23G27G28
   4524193.28349   3519903.66747  23996417.7024   23996416.4684
     -2454.0314
  -2498143.21149  -1945822.14148  22376617.6944   22376616.0734
       424.8754
   6875979.78749   5348753.98948  21580214.1244   21580211.0264
     -3023.8914
   -608450.75849   -469333.28147  24526462.2494   24526461.8744
       -61.8914
  -2139553.20849  -1665825.09847  23643003.1404   23642999.9954
       -45.2344
  13750751.08849  10695208.81147  24207553.8974   24207551.6324
     -4817.2034
   1438984.84049   1117097.73248  21775826.7654   21775824.0034
      -788.0004
  -2086620.94549  -1625088.60147  24475035.5224   24475034.3704
      1711.2974
 04  9 10 21 53 30.0030000  0  8G 3G 8G13G10G19G23G27G28
   4561064.17849   3548634.23047  24003433.9524   24003432.9404
     -2463.2814
  -2504503.43049  -1950778.15448  22375407.3974   22375405.5504
       421.7504
   6921386.21449   5384135.61148  21588854.7414   21588851.8704
     -3031.7034
   -607463.86449   -468564.26447  24526650.5624   24526650.1514
       -70.8914
  -2138825.62749  -1665258.13247  23643141.4134   23643138.7414
       -53.1094
  13823026.30649  10751527.09647  24221307.3744   24221304.9484
     -4820.8284
   1450816.67849   1126317.35448  21778078.5154   21778076.0854
      -790.8754
  -2112275.66349  -1645079.23247  24470153.3514   24470152.5694
      1707.8914
 04  9 10 21 53 45.0030000  0  8G 3G 8G13G10G19G23G27G28
   4598082.23249   3577479.46647  24010478.1404   24010477.2764
     -2472.5004
  -2510808.23649  -1955690.96348  22374207.6244   22374205.6044
       418.7034
   6966916.97549   5419614.13148  21597518.9914   21597516.0194
     -3039.3284
   -606335.08649   -467684.66047  24526864.9134   24526864.9914
       -79.7814
  -2137973.44749  -1664594.07847  23643303.8354   23643301.1754
       -60.7504
  13895363.09549  10807893.37647  24235072.6944   24235070.2534
     -4824.2664
   1462699.62349   1135576.81148  21780339.3824   21780336.7454
      -793.6254
  -2137872.97049  -1665025.11247  24465282.5464   24465281.3004
      1704.7344
 04  9 10 21 54  0.0030000  0  8G 3G 8G13G10G19G23G27G28
   4635242.66449   3606435.64847  24017549.4834   24017548.7654
     -2481.5004
  -2517062.20249  -1960564.16948  22373017.6474   22373015.6874
       415.8134
   7012567.33949   5455185.82448  21606206.0224   21606202.5264
     -3046.7664
   -605069.01149   -466698.08847  24527106.5074   24527106.0814
       -88.4694
  -2137001.04949  -1663836.33247  23643488.8514   23643485.7064
       -68.3124
  13967756.51549  10864303.74947  24248848.8744   24248846.4874
     -4827.5474
   1474629.02549   1144872.44548  21782609.7184   21782607.1674
      -796.2664
  -2163417.32749  -1684929.73547  24460421.7884   24460420.5344
      1701.7504
 04  9 10 21 54 15.0030000  0  8G 3G 8G13G10G19G23G27G28
   4672543.07449   3635500.90447  24024647.7414   24024646.8824
     -2491.5314
  -2523267.45449  -1965399.41948  22371836.3744   22371834.9914
       411.8914
   7058334.86049   5490848.81648  21614915.0464   21614912.0854
     -3055.2664
   -603667.64749   -465606.12847  24527372.8274   24527372.4334
       -98.1414
  -2135910.42149  -1662986.47147  23643696.2884   23643693.7654
       -76.8444
  14040204.16249  10920756.39547  24262635.3824   24262632.6474
     -4831.8124
   1486602.64749   1154202.54848  21784888.2574   21784885.8354
      -799.9374
  -2188910.84549  -1704794.74647  24455569.8974   24455569.6554
      1697.7504
 04  9 10 21 54 30.0030000  0  8G 3G 8G13G10G19G23G27G28
   4709988.79549   3664679.38547  24031772.8744   24031772.2534
     -2501.0784
  -2529418.86149  -1970192.70748  22370666.2104   22370664.5344
       408.4384
   7104225.01749   5526607.37548  21623647.6874   21623644.8584
     -3063.2344
   -602125.42149   -464404.35947  24527666.2724   24527665.8944
      -107.4374
  -2134695.81849  -1662040.00947  23643927.7724   23643924.9874
       -84.9534
  14112711.46649  10977255.53547  24276433.3124   24276430.0344
     -4835.7504
   1498625.93149   1163571.34548  21787176.1554   21787173.3194
      -803.0624
  -2214347.81849  -1724615.69347  24450729.5854   24450728.6364
      1694.0474
 04  9 10 21 54 45.0030000  0  8G 3G 8G13G10G19G23G27G28
   4747575.92149   3693968.05947  24038925.9604   24038925.1714
     -2510.5164
  -2535520.12249  -1974946.92548  22369504.7494   22369502.9834
       405.1254
   7150233.95349   5562458.48748  21632402.9294   21632399.9914
     -3071.1254
   -600446.04749   -463095.73047  24527985.9684   24527985.5584
      -116.5944
  -2133360.89849  -1660999.78047  23644181.3664   23644178.6944
       -92.9224
  14185274.24149  11033797.91347  24290241.5154   24290238.8394
     -4839.2974
   1510695.22549   1172976.00048  21789472.8744   21789470.5114
      -806.0474
  -2239731.99749  -1744395.49947  24445898.8194   24445898.2064
      1690.5474
 04  9 10 21 55  0.0030000  0  8G 3G 8G13G10G19G23G27G28
   4785303.68849   3723366.31347  24046105.4994   24046104.4334
     -2520.0944
  -2541571.62549  -1979662.37148  22368353.5304   22368351.5774
       401.5164
   7196360.86949   5598401.52648  21641180.6874   21641177.7454
     -3079.3284
   -598629.93349   -461680.57047  24528331.2414   24528331.2694
      -125.9064
  -2131906.04949  -1659866.11547  23644458.1714   23644455.1164
      -101.2034
  14257891.60149  11090382.79647  24304059.7574   24304057.5504
     -4843.2034
   1522809.86349   1182415.98748  21791778.1944   21791775.9604
      -809.3124
  -2265063.83649  -1764134.53047  24441077.9294   24441077.3704
      1686.8594
 04  9 10 21 55 15.0030000  0  8G 3G 8G13G10G19G23G27G28
   4823171.71949   3752873.88047  24053311.6634   24053310.7614
     -2529.3914
  -2547573.68649  -1984339.29348  22367211.4524   22367209.2454
       398.3284
   7242605.45549   5634436.24448  21649980.4994   21649977.5304
     -3087.0004
   -596677.38149   -460159.10247  24528702.7334   24528702.4334
      -135.0314
  -2130331.32649  -1658639.03147  23644758.0624   23644755.2184
      -109.1724
  14330562.99649  11147009.77847  24317888.9054   24317886.0224
     -4846.6874
   1534969.51549   1191891.03048  21794092.1084   21794090.1944
      -812.2664
  -2290343.46649  -1783832.87447  24436268.0304   24436266.6594
      1683.3914
 04  9 10 21 55 30.0030000  0  8G 3G 8G13G10G19G23G27G28
   4861180.58149   3782491.17447  24060543.7494   24060543.3474
     -2538.2814
  -2553525.54949  -1988977.09848  22366079.2024   22366076.7184
       395.5474
   7288968.18249   5670563.05948  21658803.1474   21658800.3394
     -3094.4534
   -594587.48949   -458530.58347  24529100.2804   24529100.1474
      -143.5784
  -2128635.69849  -1657317.73447  23645080.7724   23645077.4764
      -116.7194
  14403288.94549  11203679.29047  24331728.4134   24331726.0034
     -4849.8914
   1547174.99349   1201401.80848  21796414.8434   21796412.4604
      -814.8914
  -2315570.08649  -1803489.90147  24431467.3194   24431466.3944
      1680.3284
 04  9 10 21 55 45.0030000  0  8G 3G 8G13G10G19G23G27G28
   4899328.58949   3812216.89447  24067803.4444   24067802.4874
     -2548.3124
  -2559428.93149  -1993577.11648  22364955.4834   22364953.6754
       391.4064
   7335447.52949   5706780.71548  21667648.1244   21667645.1474
     -3102.9844
   -592361.60649   -456796.12247  24529523.9134   24529523.7104
      -153.4224
  -2126820.48949  -1655903.25247  23645425.6714   23645422.5344
      -125.4374
  14476067.73149  11260389.95247  24345577.7574   24345575.4294
     -4854.1564
   1559424.72949   1210947.06448  21798745.7654   21798743.2454
      -818.5944
  -2340745.13049  -1823106.76847  24426676.8584   24426675.6244
      1676.1254
 04  9 10 21 56  0.0030000  0  8G 3G 8G13G10G19G23G27G28
   4937617.79249   3842052.63647  24075089.8664   24075089.0694
     -2557.8754
  -2565281.50649  -1998137.55648  22363841.7654   22363839.1674
       387.8754
   7382045.58449   5743090.88048  21676515.2804   21676512.2694
     -3111.0624
   -589997.47049   -454953.92047  24529973.9684   24529973.4914
      -162.8594
  -2124883.36249  -1654393.77747  23645794.5694   23645791.4054
      -133.7814
  14548901.33649  11317143.35747  24359437.6944   24359434.7964
     -4858.0314
   1571720.92249   1220528.51248  21801085.6244   21801082.9874
      -821.9064
  -2365866.03849  -1842681.45247  24421896.2884   24421895.0464
      1672.3284
 04  9 10 21 56 15.0030000  0  8G 3G 8G13G10G19G23G27G28
   4976051.65449   3872001.09547  24082403.4054   24082402.8314
     -2567.2974
  -2571079.56949  -2002655.52048  22362738.5694   22362736.0814
       384.4064
   7428765.84249   5779496.26748  21685405.7964   21685402.5224
     -3119.0164
   -587491.25149   -453001.02347  24530450.7334   24530450.0344
      -172.0474
  -2122820.40549  -1652786.25148  23646187.0694   23646184.2804
      -142.0784
  14621793.00149  11373941.97947  24373307.8584   24373305.8124
     -4861.6414
   1584067.20049   1230148.98948  21803435.2964   21803432.6284
      -825.0474
  -2390929.15949  -1862211.07747  24417127.0224   24417125.5464
      1668.6414
 04  9 10 21 56 30.0030000  0  8G 3G 8G13G10G19G23G27G28
   5014628.63749   3902061.07647  24089744.4134   24089743.8354
     -2576.5624
  -2576824.53849  -2007132.11048  22361645.2574   22361643.1944
       381.3444
   7475606.98649   5815995.85548  21694319.4834   21694316.6984
     -3126.7664
   -584844.23049   -450938.39547  24530954.3974   24530954.1944
      -181.1094
  -2120632.71249  -1651081.54247  23646603.0934   23646600.2414
      -149.9374
  14694741.35749  11430784.77647  24387190.4374   24387187.4564
     -4865.0314
   1596462.34649   1239807.55848  21805794.2104   21805791.2024
      -827.9374
  -2415935.59649  -1881696.54947  24412368.8194   24412367.0734
      1665.1884
 04  9 10 21 56 45.0030000  0  8G 3G 8G13G10G19G23G27G28
   5053349.15449   3932232.90047  24097112.3974   24097111.7844
     -2586.5944
  -2582515.85149  -2011566.88448  22360562.2104   22360560.0464
       377.2344
   7522569.29549   5852589.84448  21703256.3514   21703253.1044
     -3135.2814
   -582055.72149   -448765.51647  24531485.1324   24531485.3824
      -191.0944
  -2118319.62549  -1649279.10547  23647043.4374   23647040.3664
      -158.8444
  14767746.58349  11487671.91047  24401081.9994   24401079.9954
     -4869.2814
   1608906.78549   1249504.53448  21808161.8434   21808159.6874
      -831.6874
  -2440884.83949  -1901137.44747  24407620.6164   24407619.5774
      1660.9384
 04  9 10 21 57  0.0030000  0  8G 3G 8G13G10G19G23G27G28
   5092211.24649   3962515.06147  24104507.8274   24104507.0304
     -2595.3124
  -2588155.27349  -2015961.21848  22359489.1554   22359487.2104
       374.3754
   7569650.80349   5889276.71948  21712215.3744   21712212.7844
     -3142.5474
   -579127.62349   -446483.85647  24532043.2184   24532042.3664
      -199.7504
  -2115882.82849  -1647380.26747  23647507.1794   23647504.5074
      -166.4374
  14840806.45949  11544601.64847  24414985.5304   24414983.1164
     -4872.3124
   1621398.67749   1259238.45948  21810538.9294   21810536.3274
      -834.2194
  -2465778.44649  -1920534.99347  24402883.0544   24402882.6554
      1657.9064
 04  9 10 21 57 15.0030000  0  8G 3G 8G13G10G19G23G27G28
   5131210.64949   3992904.19247  24111929.2414   24111928.2964
     -2604.7344
  -2593746.82649  -2020318.27448  22358425.0854   22358422.3904
       370.9694
   7616847.31349   5926053.22948  21721196.6474   21721193.5934
     -3150.3754
   -576063.89749   -444096.53447  24532625.6874   24532625.1164
      -208.9534
  -2113326.15949  -1645388.04547  23647993.6324   23647990.4214
      -174.6564
  14913916.83949  11601570.66347  24428897.2334   24428895.0624
     -4875.8594
   1633933.85149   1269006.14348  21812924.5934   21812922.1474
      -837.3124
  -2490620.37349  -1939892.30247  24398155.8124   24398154.7884
      1654.2814
 04  9 10 21 57 30.0030000  0  8G 3G 8G13G10G19G23G27G28
   5170354.22749   4023405.69147  24119378.1324   24119377.2924
     -2614.4844
  -2599283.42849  -2024632.48648  22357371.1244   22357369.2844
       367.1564
   7664165.92949   5962924.85448  21730200.8974   21730197.8864
     -3158.7194
   -572857.32649   -441597.87647  24533235.8194   24533235.2414
      -218.6094
  -2110642.25849  -1643296.65747  23648504.1324   23648500.9254
      -183.1874
  14987084.42549  11658584.30347  24442820.4444   24442818.8474
     -4879.8284
   1646519.44349   1278813.09648  21815319.2024   21815316.8004
      -840.8594
  -2515403.39349  -1959203.69547  24393439.8904   24393438.6324
      1650.0944
 04  9 10 21 57 45.0030000  0  8G 3G 8G13G10G19G23G27G28
   5209634.19449   4054013.45947  24126852.4914   24126852.1284
     -2623.4844
  -2604772.99849  -2028910.07648  22356326.7964   22356324.8864
       364.1254
   7711598.57149   5999885.33748  21739226.9444   21739224.0264
     -3166.1874
   -569515.51449   -438993.86047  24533872.2414   24533870.9914
      -227.5474
  -2107838.79349  -1641112.10447  23649037.9604   23649034.9404
      -191.1564
  15060301.34149  11715636.37347  24456754.4914   24456751.6984
     -4883.0164
   1659147.85549   1288653.42548  21817722.8434   21817720.0464
      -843.5944
  -2540135.22249  -1978475.18847  24388734.0304   24388732.4174
      1646.8444
 04  9 10 21 58  0.0030000  0  8G 3G 8G13G10G19G23G27G28
   5249051.70549   4084728.39547  24134353.5224   24134352.7614
     -2632.0784
  -2610213.85749  -2033149.68748  22355291.4054   22355289.1754
       361.5004
   7759146.63049   6036935.76548  21748275.2494   21748271.9054
     -3173.4374
   -566037.08849   -436283.38547  24534533.6794   24534532.8864
      -236.1414
  -2104914.16149  -1638833.14147  23649594.4684   23649591.3314
      -198.7664
  15133568.56549  11772727.65047  24470696.0154   24470693.5504
     -4885.8284
   1671820.27349   1298528.03548  21820134.0464   21820131.6244
      -845.9374
  -2564814.34149  -1997705.60847  24384037.4994   24384036.2694
      1643.7814
 04  9 10 21 58 15.0030000  0  8G 3G 8G13G10G19G23G27G28
   5288609.77949   4115552.86247  24141880.7494   24141880.7844
     -2641.7034
  -2615603.14049  -2037349.12148  22354265.7964   22354263.6244
       357.7194
   7806813.27649   6074078.58748  21757345.7804   21757342.9874
     -3181.6414
   -562418.65849   -433463.81947  24535221.9834   24535221.5384
      -245.7814
  -2101864.90749  -1636457.06147  23650174.4134   23650171.5894
      -207.3594
  15206889.16549  11829860.50047  24484649.2264   24484646.3124
     -4889.7194
   1684540.02049   1308439.52748  21822554.4134   21822551.8944
      -849.5164
  -2589437.41149  -2016892.35647  24379351.5694   24379350.1674
      1639.7344
 04  9 10 21 58 30.0030000  0  8G 3G 8G13G10G19G23G27G28
   5328304.94249   4146484.16347  24149434.4054   24149434.2024
     -2650.3754
  -2620943.92249  -2041510.75748  22353249.3824   22353247.1874
       355.0634
   7854594.92949   6111311.03748  21766438.1634   21766435.3274
     -3188.7194
   -558663.52349   -430537.71647  24535936.8124   24535936.1944
      -254.3284
  -2098694.29849  -1633986.42447  23650778.0154   23650775.0154
      -214.8594
  15280259.55049  11887032.17947  24498610.3974   24498608.2844
     -4892.5314
   1697303.75749   1318385.30248  21824983.2964   21824980.6594
      -851.7504
  -2614007.64349  -2036037.94347  24374676.2494   24374674.8704
      1636.8444
 04  9 10 21 58 45.0030000  0  8G 3G 8G13G10G19G23G27G28
   5368141.79649   4177525.87047  24157015.3044   24157015.2024
     -2660.5314
  -2626231.53849  -2045630.96548  22352243.2414   22352241.1874
       350.7034
   7902496.15949   6148636.67248  21775553.6084   21775550.8234
     -3197.4224
   -554766.87949   -427501.35347  24536678.4214   24536677.8084
      -264.5164
  -2095397.20949  -1631417.23947  23651405.4764   23651402.3974
      -224.0474
  15353684.12849  11944246.06947  24512582.7964   24512580.4524
     -4896.8124
   1710116.09149   1328368.94448  21827421.4914   21827418.9794
      -855.7664
  -2638520.13749  -2055138.53047  24370011.3194   24370010.1984
      1632.2034
 04  9 10 21 59  0.0030000  0  8G 3G 8G13G10G19G23G27G28
   5408121.70749   4208679.06047  24164623.4444   24164622.8234
     -2670.0474
  -2631464.19349  -2049708.34348  22351247.6874   22351245.3474
       346.9844
   7950518.51049   6186056.66248  21784692.0154   21784689.2454
     -3205.5314
   -550726.99949   -424353.37847  24537446.8354   24537445.9484
      -274.1724
  -2091971.92449  -1628748.15947  23652057.3824   23652054.1634
      -232.6094
  15427164.18449  12001503.19047  24526565.8124   24526563.3584
     -4900.5314
   1722978.80249   1338391.83348  21829869.1084   21829866.5854
      -859.1564
  -2662973.23149  -2074192.83247  24365358.3354   24365356.8944
      1628.2664
 04  9 10 21 59 15.0030000  0  8G 3G 8G13G10G19G23G27G28
   5448243.25549   4239942.59847  24172258.4684   24172258.0154
     -2679.9224
  -2636643.33349  -2053744.03148  22350262.0384   22350259.9444
       343.0164
   7998660.56849   6223569.94648  21793853.2414   21793850.0694
     -3213.9694
   -546545.12549   -421094.75547  24538242.9834   24538242.3784
      -284.0474
  -2088419.53649  -1625980.03148  23652733.0624   23652729.9684
      -241.5474
  15500698.30549  12058802.45047  24540559.2104   24540556.3194
     -4904.5474
   1735890.44149   1348452.85648  21832326.1084   21832323.7064
      -862.9064
  -2687367.90249  -2093201.63747  24360715.9914   24360714.4334
      1623.8914
 04  9 10 21 59 30.0030000  0  8G 3G 8G13G10G19G23G27G28
   5488502.94149   4271313.77347  24179919.7264   24179918.7294
     -2688.4694
  -2641772.28049  -2057740.59848  22349286.2574   22349283.8194
       340.3754
   8046918.76049   6261173.73048  21803036.5624   21803033.7064
     -3221.0004
   -542224.60949   -417728.11047  24539064.6404   24539064.3904
      -292.5784
  -2084743.29749  -1623115.39748  23653432.9914   23653429.6514
      -249.1414
  15574282.80849  12116140.95647  24554561.4214   24554559.6324
     -4907.2814
   1748847.79349   1358549.49248  21834791.9134   21834789.4294
      -865.2504
  -2711707.43449  -2112167.43747  24356084.4294   24356082.7184
      1620.9384
 04  9 10 21 59 45.0030000  0  8G 3G 8G13G10G19G23G27G28
   5528900.58849   4302792.46347  24187607.3434   24187606.4764
     -2698.0784
  -2646851.05749  -2061698.08348  22348319.3434   22348317.0504
       336.6414
   8095292.97249   6298867.90648  21812241.9134   21812238.5114
     -3229.0314
   -537765.30849   -414253.31947  24539913.6244   24539912.9174
      -302.1564
  -2080942.99349  -1620154.09048  23654155.5934   23654152.6404
      -257.6724
  15647917.43949  12173518.50047  24568573.8744   24568572.3514
     -4910.7664
   1761850.72349   1368681.65848  21837266.2724   21837263.8744
      -868.6414
  -2735991.81849  -2131090.26947  24351462.9134   24351461.7964
      1616.8754
 04  9 10 22  0  0.0030000  0  8G 3G 8G13G10G19G23G27G28
   5569439.81849   4334381.48747  24195321.1014   24195320.5774
     -2707.4694
  -2651875.75149  -2065613.40548  22347363.2724   22347361.2064
       333.0164
   8143787.12049   6336655.54548  21821470.1164   21821466.6674
     -3237.0314
   -533163.13849   -410667.18147  24540789.8194   24540788.5504
      -311.7034
  -2077014.29349  -1617092.72148  23654903.6874   23654900.3124
      -266.3124
  15721605.94649  12230938.06547  24582595.8664   24582594.2804
     -4914.5004
   1774903.30049   1378852.49548  21839750.0624   21839747.5344
      -872.0004
  -2760216.81349  -2149966.84647  24346853.3904   24346851.5814
      1612.8594
 04  9 10 22  0 15.0030000  0  8G 3G 8G13G10G19G23G27G28
   5610118.12149   4366078.85247  24203062.1634   24203061.5734
     -2716.6564
  -2656848.72349  -2069488.43348  22346416.8194   22346414.8124
       329.6414
   8192398.58449   6374534.59548  21830720.5304   21830717.3234
     -3244.8594
   -528420.44149   -406971.56547  24541691.8514   24541690.6794
      -321.0164
  -2072959.65049  -1613933.22748  23655675.3904   23655671.6474
      -274.7034
  15795345.56449  12288397.42147  24596628.9294   24596626.8154
     -4917.8594
   1788003.00149   1389060.05948  21842242.7264   21842240.2614
      -875.1094
  -2784384.79449  -2168798.99147  24342254.1714   24342252.5934
      1609.1094
 04  9 10 22  0 30.0030000  0  8G 3G 8G13G10G19G23G27G28
   5650937.53249   4397886.19947  24210829.4994   24210828.9724
     -2725.8124
  -2661767.69249  -2073321.38848  22345480.7264   22345478.9054
       326.3134
   8241129.46249   6412506.69448  21839993.6794   21839990.0894
     -3252.5314
   -523534.92749   -403164.65947  24542621.8434   24542620.2764
      -330.2504
  -2068776.63049  -1610673.70548  23656470.8514   23656468.1714
      -283.0474
  15869138.28049  12345898.16847  24610670.8664   24610669.0304
     -4921.0784
   1801152.14549   1399306.14248  21844745.0544   21844742.8904
      -878.1094
  -2808493.44549  -2187584.89447  24337666.0154   24337664.9994
      1605.4534
 04  9 10 22  0 45.0030000  0  8G 3G 8G13G10G19G23G27G28
   5691895.54049   4429801.53347  24218623.3824   24218623.3044
     -2735.1724
  -2666634.77949  -2077113.90548  22344554.7654   22344552.9604
       322.7344
   8289977.39149   6450570.00248  21849289.2104   21849286.0344
     -3260.5164
   -518508.89749   -399248.23547  24543578.0544   24543577.3904
      -339.8124
  -2064467.37549  -1607315.79548  23657290.9294   23657287.7964
      -291.5624
  15942981.56449  12403438.33247  24624722.7964   24624721.0384
     -4924.6254
   1814348.40249   1409588.94448  21847255.8664   21847253.6944
      -881.3284
  -2832544.93149  -2206326.26447  24333089.3194   24333087.9134
      1601.4844
 04  9 10 22  1  0.0030000  0  8G 3G 8G13G10G19G23G27G28
   5732994.50149   4461826.68047  24226444.3974   24226444.6554
     -2745.0314
  -2671447.67749  -2080864.20948  22343638.5854   22343636.6674
       318.6254
   8338944.72249   6488726.34848  21858607.5224   21858604.6244
     -3268.9374
   -513339.71449   -395220.29947  24544561.4214   24544560.6044
      -349.7814
  -2060029.15249  -1603857.42248  23658135.5934   23658132.0114
      -300.6094
  16016877.64749  12461019.62547  24638784.8584   24638783.0584
     -4928.5004
   1827594.25449   1419910.39048  21849776.6164   21849774.4444
      -885.1564
  -2856536.63349  -2225021.06147  24328523.8354   24328522.0114
      1596.9844
 04  9 10 22  1 15.0030000  0  8G 3G 8G13G10G19G23G27G28
   5774235.51349   4493962.55647  24234292.7184   24234291.9954
     -2754.0004
  -2676205.00649  -2084571.21048  22342733.6084   22342731.7724
       315.5164
   8388032.36449   6526976.45348  21867948.4134   21867945.3004
     -3276.3594
   -508026.16849   -391079.86047  24545572.5694   24545571.4134
      -358.8754
  -2055460.55749  -1600297.44647  23659005.3194   23659001.6904
      -308.7344
  16090827.47549  12518642.80647  24652856.8584   24652855.2804
     -4931.6564
   1840891.00849   1430271.49748  21852307.0854   21852304.6124
      -887.9844
  -2880467.23549  -2243668.22747  24323970.0464   24323968.0774
      1593.5634
 04  9 10 22  1 30.0040000  0  8G 3G 8G13G10G19G23G27G28
   5815618.60049   4526209.12147  24242167.2154   24242167.0624
     -2763.2664
  -2680909.74549  -2088237.22048  22341838.4884   22341836.5784
       311.8914
   8437240.92149   6565320.78648  21877312.4104   21877309.5084
     -3284.2974
   -502570.27649   -386828.48947  24546610.4494   24546609.7774
      -368.4534
  -2050763.61849  -1596637.45647  23659898.2154   23659895.5434
      -317.3914
  16164833.17049  12576309.51947  24666940.0194   24666938.1174
     -4935.0314
   1854236.88649   1440670.90148  21854846.9024   21854843.9694
      -891.3124
  -2904340.74549  -2262270.90947  24319427.0594   24319425.6564
      1589.5004
 04  9 10 22  1 45.0040000  0  8G 3G 8G13G10G19G23G27G28
   5857131.95749   4558557.18147  24250067.1994   24250066.8094
     -2772.8754
  -2685567.31249  -2091866.47248  22340951.6914   22340949.9264
       308.0474
   8486557.83049   6603749.52748  21886697.0044   21886694.0704
     -3292.3284
   -496978.75649   -382471.45747  24547674.8164   24547673.8054
      -378.0944
  -2045944.79849  -1592882.49848  23660815.3944   23660812.0704
      -326.1564
  16238878.68149  12634007.26147  24681030.4344   24681028.8444
     -4938.7664
   1867624.08549   1451102.47948  21857394.1524   21857391.4924
      -894.7664
  -2928159.83249  -2280831.18247  24314894.4104   24314892.7274
      1585.3134
 04  9 10 22  2  0.0040000  0  8G 3G 8G13G10G19G23G27G28
   5898785.14249   4591014.22647  24257993.7854   24257993.0164
     -2781.2664
  -2690171.09049  -2095453.82248  22340075.8944   22340073.7074
       305.2974
   8535993.19449   6642270.58348  21896104.2464   21896101.3484
     -3299.4224
   -491244.14749   -378002.92047  24548766.2234   24548765.4304
      -386.9064
  -2040996.65649  -1589026.76448  23661757.5274   23661753.9494
      -334.0474
  16312975.61749  12691745.04747  24695130.7074   24695128.7464
     -4941.2974
   1881060.59949   1461572.49948  21859951.0124   21859948.4734
      -897.2814
  -2951918.97949  -2299344.76747  24310372.9344   24310371.2584
      1582.1414
 04  9 10 22  2 15.0040000  0  8G 3G 8G13G10G19G23G27G28
   5940580.08649   4623581.70547  24265946.5824   24265946.3444
     -2791.4064
  -2694719.04049  -2098997.66748  22339210.4964   22339208.4224
       301.0004
   8585548.99749   6680885.47848  21905534.5124   21905531.8204
     -3308.0164
   -485364.32349   -373421.23347  24549884.7234   24549883.9264
      -397.1094
  -2035916.94949  -1585068.52648  23662723.7624   23662720.8324
      -343.3124
  16387125.74049  12749524.28647  24709240.9884   24709239.2464
     -4945.5004
   1894548.33049   1472082.41348  21862518.0744   21862515.0784
      -901.2034
  -2975615.95349  -2317809.88847  24305863.3554   24305862.1644
      1577.3754
 04  9 10 22  2 30.0040000  0  8G 3G 8G13G10G19G23G27G28
   5982515.27049   4656258.47847  24273927.0274   24273926.1414
     -2800.8444
  -2699212.29649  -2102498.88248  22338355.3484   22338353.3444
       297.2974
   8635223.66049   6719592.99348  21914987.1844   21914984.2034
     -3316.0474
   -479340.63349   -368727.42247  24551031.0904   24551030.3014
      -406.7664
  -2030706.90849  -1581008.72248  23663715.2774   23663712.2074
      -352.0784
  16461327.47749  12807343.73247  24723361.0744   24723359.4964
     -4948.9224
   1908086.12149   1482631.34648  21865093.7854   21865091.1804
      -904.6724
  -2999251.93449  -2336227.48747  24301366.0904   24301363.9534
      1573.2814
 04  9 10 22  2 45.0040000  0  8G 3G 8G13G10G19G23G27G28
   6024589.64649   4689043.71247  24281933.7384   24281932.9184
     -2809.6874
  -2703651.56949  -2105958.04148  22337510.5124   22337508.6214
       294.0314
   8685016.25149   6758392.40348  21924462.7384   21924459.6524
     -3323.5944
   -473173.75449   -363922.05947  24552204.9964   24552204.1484
      -416.0474
  -2025367.14949  -1576847.84448  23664731.1134   23664728.0944
      -360.4224
  16535579.72449  12865202.55547  24737490.9024   24737489.3094
     -4952.0004
   1921672.99649   1493218.53048  21867679.1844   21867676.6024
      -907.6094
  -3022827.69549  -2354598.14747  24296879.3014   24296878.2154
      1569.5784
 04  9 10 22  3  0.0040000  0  8G 3G 8G13G10G19G23G27G28
   6066803.22049   4721937.41147  24289965.7854   24289965.9574
     -2818.5004
  -2708036.68549  -2109375.00448  22336675.9494   22336673.9264
       290.9224
   8734926.80949   6797283.74348  21933960.2854   21933957.2694
     -3330.8754
   -466863.48049   -359004.96347  24553405.7154   24553404.7304
      -425.0314
  -2019897.14349  -1572585.47047  23665771.9184   23665769.1094
      -368.5784
  16609882.46949  12923100.71347  24751629.9574   24751628.9224
     -4954.7344
   1935309.35649   1503844.26648  21870273.9804   21870271.6024
      -910.3284
  -3046342.90549  -2372921.64247  24292404.9654   24292403.1174
      1566.0784
 04  9 10 22  3 15.0040000  0  8G 3G 8G13G10G19G23G27G28
   6109154.66149   4754938.53047  24298025.2854   24298025.1334
     -2827.7034
  -2712368.76849  -2112750.63848  22335851.6294   22335849.4884
       287.3444
   8784954.12249   6836266.04948  21943480.0194   21943477.0164
     -3338.7974
   -460410.80449   -353976.86147  24554633.0744   24554632.5984
      -434.7194
  -2014297.96049  -1568222.44748  23666837.4964   23666834.0744
      -377.2974
  16684234.31349  12981037.14147  24765779.3404   24765777.7504
     -4958.2344
   1948993.98149   1514507.61548  21872878.5194   21872875.9304
      -913.6414
  -3069798.61349  -2391198.75947  24287941.3714   24287939.7154
      1562.0314
 04  9 10 22  3 30.0040000  0  8G 3G 8G13G10G19G23G27G28
   6151641.36349   4788045.04947  24306110.2934   24306109.8944
     -2836.8594
  -2716650.40449  -2116086.96948  22335036.8404   22335034.6374
       283.8444
   8835095.53049   6875337.26148  21953021.6374   21953018.9304
     -3346.5624
   -453818.22049   -348839.78547  24555887.5274   24555887.1024
      -444.1254
  -2008571.95749  -1563760.60048  23667927.0354   23667923.7234
      -385.9224
  16758632.48449  13039009.66547  24779936.4494   24779934.7624
     -4961.3594
   1962724.37549   1525206.62548  21875491.1134   21875488.8124
      -916.8594
  -3093197.16049  -2409431.33347  24283488.7544   24283486.9454
      1558.0784
 04  9 10 22  3 45.0040000  0  8G 3G 8G13G10G19G23G27G28
   6194261.23349   4821255.33747  24314220.7384   24314220.2694
     -2846.1724
  -2720883.31749  -2119385.32348  22334231.2304   22334229.6134
       280.1884
   8885349.04149   6914495.83548  21962584.6914   21962581.9414
     -3354.3594
   -447087.46449   -343595.03747  24557168.4884   24557168.4614
      -453.7034
  -2002720.73149  -1559201.17048  23669040.8404   23669037.3634
      -394.6414
  16833074.87549  13097016.65947  24794103.4264   24794101.4224
     -4964.5624
   1976498.72349   1535939.89148  21878112.2694   21878109.8754
      -920.1094
  -3116540.14849  -2427620.61147  24279046.4494   24279044.8204
      1554.0314
 04  9 10 22  4  0.0040000  0  8G 3G 8G13G10G19G23G27G28
   6237021.30349   4854574.88347  24322357.5274   24322357.1524
     -2855.6414
  -2725060.02649  -2122639.89448  22333436.5984   22333434.4344
       276.2814
   8935721.80249   6953747.32748  21972170.4344   21972167.6214
     -3362.4064
   -440211.24249   -338236.94147  24558477.1294   24558476.6374
      -463.5624
  -1996736.88949  -1554538.41748  23670179.2624   23670175.8834
      -403.6254
  16907568.43349  13155063.49547  24808277.8554   24808276.6414
     -4968.1564
   1990324.41849   1546713.16348  21880743.1994   21880740.7624
      -923.6874
  -3139820.26549  -2445760.90947  24274616.4654   24274615.0274
      1549.5314
 04  9 10 22  4 15.0040000  0  8G 3G 8G13G10G19G23G27G28
   6279923.56749   4888005.20347  24330521.6214   24330521.4654
     -2864.7814
  -2729178.67449  -2125849.21548  22332652.6844   22332650.4654
       272.7344
   8986215.80449   6993093.27448  21981778.9024   21981775.8554
     -3370.2194
   -433187.35449   -332763.77447  24559813.6054   24559813.2424
      -473.0944
  -1990618.02849  -1549770.45748  23671343.7544   23671340.2384
      -412.3914
  16982115.14049  13213151.77047  24822463.9024   24822462.3634
     -4971.3914
   2004203.35349   1557527.91848  21883384.0594   21883381.8834
      -927.0004
  -3163035.25149  -2463850.46347  24270198.4574   24270196.9224
      1545.5784
 04  9 10 22  4 30.0040000  0  8G 3G 8G13G10G19G23G27G28
   6322957.81949   4921538.39247  24338710.8404   24338710.4844
     -2872.9534
  -2733249.33249  -2129021.13948  22331878.0904   22331876.3094
       270.1414
   9036820.77849   7032525.71148  21991408.9884   21991405.7464
     -3376.9694
   -426025.75849   -327183.28647  24561176.2544   24561176.0394
      -481.6094
  -1984374.13249  -1544905.04248  23672532.0194   23672528.5664
      -420.0784
  17056704.67649  13271273.40847  24836658.3944   24836656.4414
     -4973.7194
   2018125.69049   1568376.49748  21886033.4024   21886031.2544
      -929.2344
  -3186194.98649  -2481896.94547  24265791.3554   24265790.0314
      1542.4844
 04  9 10 22  4 45.0040000  0  8G 3G 8G13G10G19G23G27G28
   6366123.28149   4955173.80347  24346925.0594   24346924.6054
     -2882.7344
  -2737272.30249  -2132155.91548  22331112.5124   22331110.6294
       266.0314
   9087536.01349   7072044.07148  22001059.6684   22001056.7584
     -3385.2664
   -418726.98749   -321495.91847  24562565.5274   24562564.1844
      -491.6724
  -1978005.63549  -1539942.56048  23673743.9734   23673740.0164
      -429.2504
  17131336.15449  13329427.74947  24850860.0744   24850858.4264
     -4977.3444
   2032090.77249   1579258.39148  21888691.1994   21888688.2544
      -932.9694
  -3209299.97449  -2499900.79347  24261394.7774   24261393.3124
      1537.9384
 04  9 10 22  5  0.0040000  0  8G 3G 8G13G10G19G23G27G28
   6409428.34149   4988918.01147  24355165.7384   24355165.5084
     -2891.1564
  -2741239.21649  -2135247.00148  22330357.6914   22330355.9534
       262.9534
   9138369.95649   7111654.93448  22010732.9344   22010730.0124
     -3392.4534
   -411282.34149   -315694.91047  24563982.1684   24563981.2234
      -500.6874
  -1971503.64049  -1534876.04348  23674980.7234   23674977.9024
      -437.5474
  17206018.07249  13387621.36947  24865072.3714   24865070.0044
     -4979.9694
   2046107.35949   1590180.41748  21891358.3634   21891355.7384
      -935.7034
  -3232341.39849  -2517855.07547  24257010.3794   24257008.5004
      1534.3594
 04  9 10 22  5 15.0040000  0  8G 3G 8G13G10G19G23G27G28
   6452870.06349   5022768.70847  24363432.2384   24363432.1334
     -2900.1254
  -2745152.68749  -2138296.44248  22329612.9654   22329611.0044
       259.6254
   9189319.95149   7151356.20848  22020428.5434   22020425.9104
     -3399.9844
   -403694.53049   -309782.31147  24565426.1134   24565425.3124
      -510.1254
  -1964870.81149  -1529707.58247  23676243.4344   23676240.1254
      -446.0624
  17280747.33649  13445851.90847  24879292.0984   24879290.3754
     -4982.9844
   2060172.67949   1601140.40748  21894034.8324   21894032.4844
      -938.7814
  -3255321.95149  -2535761.94947  24252637.3014   24252635.4694
      1530.4844
 04  9 10 22  5 30.0040000  0  8G 3G 8G13G10G19G23G27G28
   6496446.51449   5056724.39447  24371725.1134   24371724.2894
     -2910.1874
  -2749014.46349  -2141305.61048  22328877.9804   22328876.2544
       255.1884
   9240384.03549   7191146.39448  22030145.6444   22030142.8874
     -3408.6094
   -395965.36149   -303759.57747  24566897.3794   24566896.2974
      -520.4374
  -1958108.78349  -1524438.44448  23677529.7854   23677526.7934
      -455.6724
  17355521.88849  13504117.71047  24893521.6524   24893519.8164
     -4986.9064
   2074284.87949   1612136.92348  21896720.2304   21896718.0194
      -942.9694
  -3278243.31249  -2553622.69147  24248275.3944   24248273.9804
      1525.5944
 04  9 10 22  5 45.0040000  0  8G 3G 8G13G10G19G23G27G28
   6540161.28049   5090787.83547  24380042.8794   24380042.8244
     -2919.0784
  -2752820.71149  -2144271.49648  22328153.7624   22328151.7114
       251.6724
   9291565.76349   7231028.24948  22039885.1684   22039882.0704
     -3416.2664
   -388090.90349   -297623.61047  24568395.4344   24568394.4574
      -529.9844
  -1951213.49649  -1519065.47048  23678842.5514   23678838.9344
      -464.3754
  17430345.32049  13562421.60847  24907760.2384   24907757.8914
     -4990.1094
   2088447.85749   1623173.02348  21899415.6054   21899412.8164
      -946.0624
  -3301101.43149  -2571434.15647  24243925.1604   24243923.9304
      1521.5164
 04  9 10 22  6  0.0040000  0  8G 3G 8G13G10G19G23G27G28
   6584009.18549   5124955.03147  24388386.9734   24388387.0744
     -2927.9064
  -2756576.48749  -2147198.07248  22327439.2544   22327437.0394
       248.5004
   9342859.85349   7270997.66248  22049646.1054   22049643.8094
     -3423.5314
   -380076.12049   -291378.32347  24569920.4654   24569919.9924
      -539.1724
  -1944189.83149  -1513592.47048  23680178.7624   23680175.1024
      -472.7034
  17505212.25349  13620759.41247  24922006.5664   24922004.6054
     -4992.8754
   2102656.47249   1634244.67948  21902119.1914   21902116.3094
      -948.8914
  -3323901.24949  -2589200.19647  24239586.5434   24239585.4454
      1517.8754
 04  9 10 22  6 15.0040000  0  8G 3G 8G13G10G19G23G27G28
   6627996.03849   5159230.49347  24396757.7384   24396757.2384
     -2937.8124
  -2760275.46249  -2150080.38548  22326735.3404   22326733.1414
       244.0634
   9394272.52949   7311059.47248  22059429.6444   22059427.1684
     -3432.1564
   -371914.77749   -285018.82947  24571474.0194   24571472.7274
      -549.6414
  -1937031.38249  -1508014.42348  23681540.6134   23681537.1374
      -482.4694
  17580128.75649  13679135.84547  24936262.5594   24936261.2854
     -4996.7344
   2116917.07449   1645356.84048  21904833.1444   21904830.4494
      -953.1414
  -3346636.54049  -2606915.96247  24235260.1294   24235258.7154
      1512.8594
 04  9 10 22  6 30.0040000  0  8G 3G 8G13G10G19G23G27G28
   6672124.83849   5193616.57247  24405155.2544   24405154.7384
     -2946.7034
  -2763914.41049  -2152915.91348  22326042.9264   22326040.5514
       240.5634
   9445806.67449   7351215.94048  22069236.4104   22069233.7774
     -3439.7504
   -363603.64849   -278542.60547  24573055.2154   24573054.3054
      -559.1254
  -1929735.07249  -1502328.96648  23682929.0744   23682925.7304
      -491.0944
  17655097.54049  13737552.99647  24950528.8484   24950527.3444
     -4999.6724
   2131232.77049   1656511.93248  21907556.9734   21907554.6914
      -956.2504
  -3369304.11649  -2624578.94447  24230946.4264   24230944.7114
      1508.8754
 04  9 10 22  6 45.0040000  0  8G 3G 8G13G10G19G23G27G28
   6716391.32049   5228109.94647  24413578.7384   24413578.6564
     -2955.2034
  -2767497.57549  -2155707.97048  22325361.0744   22325358.6134
       237.4064
   9497458.02449   7391463.72448  22079065.1994   22079062.3984
     -3446.9534
   -355146.80049   -271952.82747  24574664.2234   24574663.8094
      -568.2814
  -1922304.71449  -1496539.03948  23684342.9104   23684339.6644
      -499.4844
  17730114.38149  13796007.57047  24964804.0274   24964802.5164
     -5002.2974
   2145599.45649   1667706.74748  21910290.8874   21910288.3874
      -959.1724
  -3391907.84149  -2642192.19047  24226645.1684   24226643.9064
      1505.1094
 04  9 10 22  7  0.0040000  0  8G 3G 8G13G10G19G23G27G28
   6760793.91649   5262709.36147  24422028.4494   24422027.6684
     -2964.6564
  -2771026.29149  -2158457.61848  22324689.5044   22324687.2694
       233.4844
   9549225.12249   7431801.71148  22088916.4104   22088913.7814
     -3454.8754
   -346545.61749   -265250.59347  24576301.3014   24576300.5704
      -578.0944
  -1914741.48649  -1490645.59448  23685782.2384   23685779.0744
      -508.5624
  17805177.52549  13854498.25247  24979088.1844   24979087.1564
     -5005.6724
   2160015.73049   1678940.20748  21913034.4964   21913032.2274
      -962.7344
  -3414448.88849  -2659756.59047  24222356.0434   24222354.2814
      1500.6724
 04  9 10 22  7 15.0040000  0  8G 3G 8G13G10G19G23G27G28
   6805331.68349   5297414.09747  24430503.7934   24430502.9144
     -2973.2814
  -2774501.24349  -2161165.35548  22324027.8554   22324025.9104
       230.2814
   9601106.88849   7472229.05748  22098789.0354   22098786.4534
     -3462.1874
   -337800.68949   -258436.35247  24577965.5044   24577964.7774
      -587.3444
  -1907045.87849  -1484648.99048  23687247.2624   23687243.3714
      -517.0784
  17880286.19349  13913024.41747  24993380.8634   24993379.5904
     -5008.3754
   2174481.08949   1690211.92648  21915786.8484   21915784.4884
      -965.6414
  -3436927.87049  -2677272.63447  24218077.8944   24218076.5314
      1497.0164
 04  9 10 22  7 30.0040000  0  8G 3G 8G13G10G19G23G27G28
   6850000.28049   5332220.79847  24439003.8324   24439003.2624
     -2982.3594
  -2777926.52549  -2163834.39448  22323376.5124   22323374.1564
       226.6884
   9653099.16349   7512742.50248  22108683.1054   22108680.3634
     -3469.8444
   -328916.19249   -251513.36347  24579655.9734   24579654.6994
      -597.0474
  -1899221.96849  -1478552.41648  23688735.4654   23688731.8834
      -525.9064
  17955435.82949  13971582.49147  25007681.4804   25007679.9414
     -5011.3754
   2188991.19949   1701518.50748  21918548.2624   21918545.6954
      -968.8914
  -3459348.89249  -2694743.51247  24213811.7074   24213810.1524
      1492.7974
 04  9 10 22  7 45.0040000  0  8G 3G 8G13G10G19G23G27G28
   6894801.14549   5367130.56247  24447528.9804   24447528.9774
     -2991.2344
  -2781300.42749  -2166463.39848  22322734.4804   22322731.9224
       223.0634
   9705203.55749   7553343.32148  22118597.8484   22118594.9494
     -3477.4844
   -319890.40149   -244480.26347  24581373.5904   24581372.4184
      -606.5164
  -1891267.89349  -1472354.40848  23690249.3404   23690245.4844
      -534.7034
  18030627.99949  14030173.71847  25021990.6054   25021988.6524
     -5014.3594
   2203547.73849   1712861.26548  21921318.0514   21921315.4884
      -972.1564
  -3481710.05649  -2712167.74547  24209556.4414   24209554.7424
      1488.6564
 04  9 10 22  8  0.0040000  0  8G 3G 8G13G10G19G23G27G28
   6939732.82149   5402142.23247  24456079.2934   24456078.5664
     -3000.1564
  -2784624.16849  -2169053.32648  22322101.7694   22322099.3674
       219.5474
   9757418.57249   7594030.32448  22128534.4264   22128531.8014
     -3485.0944
   -310724.60849   -237338.07247  24583116.9264   24583117.1054
      -616.1724
  -1883184.81749  -1466055.88148  23691787.2154   23691783.6414
      -543.5784
  18105860.96549  14088796.73147  25036306.9804   25036305.2384
     -5017.2504
   2218149.56049   1724239.31848  21924096.9184   21924094.1524
      -975.2974
  -3504012.68149  -2729546.35647  24205312.2854   24205311.0394
      1484.4694
 04  9 10 22  8 15.0040000  0  8G 3G 8G13G10G19G23G27G28
   6984797.10149   5437257.24847  24464654.4654   24464654.4694
     -3008.2974
  -2787895.77549  -2171602.60648  22321479.2384   22321476.8244
       216.8134
   9809746.10349   7634805.02348  22138491.5514   22138488.9774
     -3491.8594
   -301416.65549   -230085.11847  24584888.5434   24584888.1374
      -624.8914
  -1874970.60949  -1459655.17348  23693350.2694   23693346.6914
      -551.5624
  18181136.57649  14147452.97047  25050631.0824   25050629.7584
     -5019.4064
   2232798.73249   1735654.26648  21926884.6524   21926882.3204
      -977.7814
  -3526254.48349  -2746877.57347  24201079.3794   24201078.0314
      1481.1414
 04  9 10 22  8 30.0040000  0  8G 3G 8G13G10G19G23G27G28
   7029996.78949   5472477.78047  24473256.0664   24473255.7664
     -3018.2814
  -2791112.13549  -2174108.85148  22320867.4264   22320865.0624
       212.1254
   9862188.96049   7675669.56848  22148471.5514   22148468.9344
     -3500.4694
   -291963.62749   -222719.09447  24586687.2384   24586686.8204
      -635.4844
  -1866622.08749  -1453149.81248  23694939.2074   23694935.4884
      -561.5004
  18256457.45049  14206144.49147  25064964.4804   25064962.9374
     -5023.3284
   2247498.08649   1747108.30448  21929681.7384   21929679.3284
      -982.0784
  -3548432.43949  -2764159.05047  24196859.1524   24196858.0004
      1475.9844
 04  9 10 22  8 45.0040000  0  8G 3G 8G13G10G19G23G27G28
   7075335.81249   5507806.90247  24481883.1764   24481883.1724
     -3027.0004
  -2794269.02149  -2176568.75548  22320266.7154   22320264.3324
       208.8284
   9914751.15449   7716627.12348  22158473.4344   22158471.0434
     -3507.7974
   -282361.27949   -215236.72247  24588515.2154   24588513.8284
      -644.8444
  -1858134.92849  -1446536.41948  23696554.3404   23696550.6844
      -570.1414
  18331827.67349  14264874.44247  25079306.8404   25079305.5624
     -5025.9534
   2262252.02449   1758604.89748  21932489.3794   21932486.5194
      -985.0944
  -3570542.25349  -2781387.41847  24192651.9884   24192650.2544
      1472.0314
 04  9 10 22  9  0.0040000  0  8G 3G 8G13G10G19G23G27G28
   7120807.73349   5543239.52947  24490537.1134   24490536.0904
     -3035.3754
  -2797372.45149  -2178987.00348  22319675.9654   22319673.8404
       205.5004
   9967426.38149   7757672.74748  22168497.5124   22168494.5234
     -3515.0314
   -272615.74549   -207642.79647  24590369.5514   24590368.9694
      -654.1094
  -1849515.06649  -1439819.62148  23698194.3634   23698190.9614
      -578.7034
  18407240.79249  14323637.79647  25093657.6764   25093656.2154
     -5028.5784
   2277054.29249   1770139.12748  21935306.0904   21935303.2814
      -988.0314
  -3592589.95549  -2798567.40847  24188456.5744   24188455.0274
      1468.1254
 04  9 10 22  9 15.0040000  0  8G 3G 8G13G10G19G23G27G28
   7166414.28849   5578777.10447  24499215.7464   24499214.7034
     -3045.0004
  -2800420.58449  -2181362.15148  22319095.7154   22319093.6024
       201.3444
  10020216.52749   7798807.90548  22178543.0664   22178540.0514
     -3523.2034
   -262725.01849   -199935.72247  24592250.9104   24592250.6954
      -664.2814
  -1840760.50549  -1432997.86048  23699860.4344   23699856.5824
      -588.2344
  18482698.34449  14382435.82747  25108016.7694   25108015.6254
     -5032.0784
   2291906.85549   1781712.55748  21938132.4574   21938130.0664
      -991.8444
  -3614573.43649  -2815697.33947  24184272.7304   24184271.2854
      1463.3754
 04  9 10 22  9 30.0040000  0  8G 3G 8G13G10G19G23G27G28
   7212155.09549   5614419.29347  24507919.4654   24507918.9804
     -3053.6094
  -2803413.80949  -2183694.52648  22318526.2464   22318524.0434
       198.0004
  10073120.98549   7840032.15348  22188610.5664   22188607.7814
     -3530.5474
   -252689.27049   -192115.65147  24594160.7934   24594160.7274
      -673.6414
  -1831871.37549  -1426071.23648  23701551.4024   23701548.3444
      -596.8124
  18558199.93649  14441268.11947  25122384.1994   25122383.3284
     -5034.5314
   2306809.48249   1793324.99548  21940968.2074   21940965.7074
      -994.9374
  -3636492.82349  -2832777.34347  24180101.6684   24180100.1524
      1459.4224
 04  9 10 22  9 45.0040000  0  8G 3G 8G13G10G19G23G27G28
   7258027.35049   5650163.89047  24516648.9264   24516648.2274
     -3062.4534
  -2806354.52949  -2185985.98448  22317966.4574   22317964.1684
       194.4064
  10126137.07549   7881343.37148  22198698.9574   22198696.1524
     -3538.0004
   -242511.05249   -184184.56547  24596097.8714   24596097.0084
      -683.2344
  -1822849.96249  -1419041.54348  23703268.5354   23703265.1414
      -605.7504
  18633742.80749  14500132.59147  25136760.2074   25136759.1444
     -5037.4064
   2321759.75749   1804974.56148  21943813.0744   21943810.6874
      -998.2194
  -3658350.48649  -2849809.23047  24175942.2934   24175940.9414
      1455.2504
 04  9 10 22 10  0.0040000  0  8G 3G 8G13G10G19G23G27G28
   7304032.45349   5686012.02547  24525403.1764   24525402.9884
     -3071.5164
  -2809241.10649  -2188235.24748  22317417.1054   22317414.6374
       190.5004
  10179266.36449   7922742.80548  22208809.3164   22208806.9574
     -3545.8594
   -232188.70249   -176141.17047  24598062.8484   24598061.4574
      -693.0784
  -1813694.49749  -1411907.39348  23705010.8014   23705007.0314
      -614.9534
  18709328.25849  14559030.26747  25151143.3714   25151142.5434
     -5040.5314
   2336759.24749   1816662.48348  21946667.6604   21946665.4264
     -1001.6874
  -3680144.66949  -2866791.64947  24171794.9964   24171793.4064
      1450.6724
 04  9 10 22 10 15.0040000  0  8G 3G 8G13G10G19G23G27G28
   7350172.94349   5721965.63947  24534183.8554   24534183.1804
     -3080.3284
  -2812070.86349  -2190440.24248  22316878.6134   22316876.5194
       186.9844
  10232511.38349   7964232.42248  22218941.2074   22218938.6954
     -3553.2814
   -221719.56349   -167983.38447  24600054.4184   24600053.2854
      -702.5944
  -1804402.28749  -1404666.67448  23706778.7624   23706775.3834
      -623.8124
  18784958.70149  14617962.99447  25165535.0664   25165534.5124
     -5043.3284
   2351810.63849   1828390.84848  21949531.8324   21949529.1524
     -1004.8914
  -3701872.75049  -2883722.57947  24167660.6844   24167658.8484
      1446.5004
 04  9 10 22 10 30.0040000  0  8G 3G 8G13G10G19G23G27G28
   7396450.68749   5758026.21847  24542989.9184   24542989.3674
     -3089.2194
  -2814841.47449  -2192599.15948  22316351.8944   22316349.7894
       183.3134
  10285874.01149   8005813.67448  22229095.8484   22229093.1724
     -3560.9224
   -211101.36249   -159709.45547  24602074.9344   24602073.6484
      -712.3284
  -1794970.93749  -1397317.56548  23708573.5194   23708569.8054
      -632.8594
  18860636.06249  14676932.27847  25179936.3714   25179935.4264
     -5046.1094
   2366916.09349   1840161.33148  21952405.9494   21952403.5314
     -1008.2194
  -3723532.36049  -2900600.16047  24163539.0984   24163537.0554
      1442.3284
 04  9 10 22 10 45.0040000  0  8G 3G 8G13G10G19G23G27G28
   7442860.48549   5794189.68647  24551821.8554   24551820.4534
     -3098.3284
  -2817558.00649  -2194715.91448  22315834.4654   22315832.5824
       179.3914
  10339349.14349   8047482.60148  22239272.0044   22239269.3754
     -3568.7194
   -200339.05749   -151323.22347  24604123.0354   24604122.4774
      -722.2974
  -1785405.24049  -1389863.74948  23710394.1374   23710390.2734
      -642.1564
  18936355.13249  14735934.06047  25194345.6604   25194344.4264
     -5049.2194
   2382070.68749   1851970.11148  21955289.9264   21955287.1844
     -1011.9064
  -3745128.33049  -2917428.12147  24159428.9654   24159427.1914
      1437.6564
 04  9 10 22 11  0.0040000  0  8G 3G 8G13G10G19G23G27G28
   7489405.62649   5830458.60747  24560678.7854   24560678.2894
     -3107.6254
  -2820216.94649  -2196787.81348  22315328.5274   22315326.0234
       175.2344
  10392940.20549   8089241.85948  22249470.1054   22249467.2194
     -3576.7344
   -189429.18749   -142822.02047  24606199.1214   24606198.2464
      -732.4374
  -1775701.68949  -1382302.52248  23712240.3554   23712236.9534
      -651.6414
  19012119.10349  14794970.82747  25208763.4104   25208762.0864
     -5052.5784
   2397278.01349   1863819.98048  21958183.8634   21958180.9804
     -1015.7034
  -3766657.06849  -2934203.72547  24155332.1914   24155330.1444
      1432.8284
 04  9 10 22 11 15.0040000  0  8G 3G 8G13G10G19G23G27G28
   7536081.19349   5866829.17247  24569560.8244   24569560.2974
     -3116.6094
  -2822822.91849  -2198818.43148  22314832.6524   22314830.1604
       171.4224
  10446642.20049   8131087.55948  22259689.4804   22259686.7304
     -3584.4064
   -178376.40249   -134209.45947  24608302.5434   24608301.6954
      -742.1724
  -1765864.82049  -1374637.40448  23714112.4184   23714108.5984
      -660.8284
  19087923.02449  14854038.71347  25223188.1524   25223186.9574
     -5055.4694
   2412533.28749   1875707.21348  21961086.8244   21961084.2074
     -1019.1874
  -3788123.24749  -2950930.57647  24151247.3014   24151245.5044
      1428.3444
 04  9 10 22 11 30.0040000  0  8G 3G 8G13G10G19G23G27G28
   7582893.31549   5903306.14747  24578468.9964   24578468.2464
     -3125.2814
  -2825369.50349  -2200802.75948  22314348.1054   22314345.9964
       167.9694
  10500461.38149   8173024.56448  22269930.4734   22269927.9734
     -3591.6874
   -167174.34349   -125480.55647  24610434.3324   24610433.2074
      -751.6094
  -1755888.14849  -1366863.35148  23716010.7154   23716007.1804
      -669.6414
  19163773.07649  14913142.56947  25237621.6914   25237620.7274
     -5058.0164
   2427842.92649   1887636.79148  21963999.9804   21963997.8244
     -1022.3754
  -3809520.30749  -2967603.54847  24147175.8714   24147173.8124
      1424.2194
 04  9 10 22 11 45.0040000  0  8G 3G 8G13G10G19G23G27G28
   7629844.20849   5939891.25047  24587403.5664   24587403.1054
     -3134.8914
  -2827854.09249  -2202738.79848  22313875.0984   22313872.9494
       163.4384
  10554400.12449   8215054.74548  22280194.7624   22280192.1684
     -3600.0314
   -155820.51349   -116633.42147  24612594.8874   24612594.0514
      -762.1254
  -1745768.98749  -1358978.26848  23717936.3404   23717933.1804
      -679.5624
  19239671.40049  14972284.02247  25252064.7464   25252063.9414
     -5061.6564
   2443209.49949   1899610.75248  21966924.3324   21966921.7734
     -1026.4844
  -3830845.66849  -2984220.66847  24143117.5664   24143115.9344
      1419.1564
 04  9 10 22 12  0.0040000  0  8G 3G 8G13G10G19G23G27G28
   7676924.35649   5976577.07447  24596362.8014   24596362.1484
     -3142.7034
  -2830286.23449  -2204633.95848  22313412.2774   22313410.2774
       160.6564
  10608448.92049   8257170.66948  22290479.9494   22290477.9064
     -3606.6254
   -144324.18749   -107675.20947  24614782.3634   24614781.3404
      -770.9224
  -1735516.53049  -1350989.32748  23719887.6134   23719883.8794
      -687.7194
  19315608.35149  15031455.57247  25266514.9344   25266513.8124
     -5063.4844
   2458623.61549   1911621.74848  21969857.3714   21969854.9884
     -1028.9064
  -3852108.47249  -3000789.04247  24139071.4024   24139069.5194
      1415.7034
 04  9 10 22 12 15.0040000  0  8G 3G 8G13G10G19G23G27G28
   7724129.53249   6013360.31347  24605345.7464   24605344.7584
     -3150.8124
  -2832669.90449  -2206491.34948  22312958.6764   22312956.6764
       157.6094
  10662603.46349   8299369.00148  22300785.1374   22300782.8984
     -3613.4534
   -132689.49349    -98609.20247  24616996.3794   24616995.5624
      -779.9374
  -1725134.70149  -1342899.55448  23721863.1994   23721859.5474
      -696.0784
  19391579.66549  15090653.93147  25280972.1374   25280970.5664
     -5065.5474
   2474081.34649   1923666.74148  21972799.2154   21972796.7814
     -1031.5004
  -3873312.71349  -3017311.76747  24135036.5274   24135034.9774
      1412.1094
 04  9 10 22 12 30.0040000  0  8G 3G 8G13G10G19G23G27G28
   7771469.33449   6050248.45247  24614354.2464   24614353.3944
     -3160.7194
  -2834994.78849  -2208302.94448  22312516.4804   22312514.1174
       152.8284
  10716873.51449   8341657.33448  22311112.4264   22311109.9264
     -3622.0164
   -120906.42349    -89427.58647  24619238.9104   24619237.5624
      -790.7664
  -1714613.52949  -1334701.23348  23723865.2694   23723861.2114
      -706.2344
  19467595.00849  15149886.55447  25295437.7384   25295436.5664
     -5069.3594
   2489592.52049   1935753.36648  21975750.4414   21975748.0274
     -1036.0314
  -3894448.39849  -3033781.09847  24131013.8794   24131011.9924
      1406.5474
 04  9 10 22 12 45.0040000  0  8G 3G 8G13G10G19G23G27G28
   7818945.54249   6087242.90347  24623388.0514   24623387.5554
     -3169.5784
  -2837259.19949  -2210067.41048  22312085.7154   22312083.6604
       149.0314
  10771261.00249   8384037.18848  22321462.0594   22321459.4224
     -3629.6724
   -108972.96149    -80128.77247  24621508.8164   24621508.1174
      -800.4224
  -1703950.75449  -1326392.57248  23725894.1214   23725890.5234
      -715.5164
  19543656.16249  15209154.92547  25309912.4024   25309910.6484
     -5072.2034
   2505159.25749   1947883.30348  21978713.2854   21978710.6134
     -1039.5944
  -3915513.30649  -3050195.27647  24127005.6214   24127003.3484
      1402.0634
 04  9 10 22 13  0.0040000  0  8G 3G 8G13G10G19G23G27G28
   7866552.03449   6124338.85047  24632447.7544   24632446.4964
     -3177.7194
  -2839468.66549  -2211789.06348  22311665.1054   22311663.2304
       145.8754
  10825759.83849   8426503.79248  22331833.0194   22331830.3944
     -3636.5314
    -96894.96049    -70717.33647  24623807.9184   24623806.6994
      -809.5004
  -1693152.13649  -1317978.04248  23727948.9804   23727945.2194
      -723.9844
  19619756.97849  15268454.17447  25324393.4574   25324391.9064
     -5074.2814
   2520775.69949   1960051.96148  21981684.8244   21981682.0824
     -1042.3124
  -3936513.20849  -3066558.77747  24123008.9264   24123007.2934
      1398.2194
 04  9 10 22 13 15.0040000  0  8G 3G 8G13G10G19G23G27G28
   7914286.96949   6161534.89347  24641530.9414   24641530.5554
     -3186.7814
  -2841625.03749  -2213469.33948  22311254.5824   22311252.4844
       141.8284
  10880368.27449   8469055.79748  22342224.6134   22342221.6874
     -3644.3754
    -84673.98449    -61194.47447  24626133.2624   24626132.4494
      -819.5784
  -1682219.10349  -1309458.77748  23730029.2934   23730026.2894
      -733.5164
  19695895.60749  15327782.88447  25338882.2934   25338881.0194
     -5077.2664
   2536440.26049   1972258.10248  21984665.3944   21984663.0664
     -1046.1094
  -3957449.58149  -3082872.79947  24119025.5984   24119023.6054
      1393.5164
 04  9 10 22 13 30.0040000  0  8G 3G 8G13G10G19G23G27G28
   7962151.16349   6198831.64747  24650639.8094   24650638.6764
     -3195.1564
  -2843727.05349  -2215107.27148  22310854.7234   22310852.2664
       138.4844
  10935087.03049   8511693.78548  22352637.5044   22352634.6294
     -3651.5624
    -72309.07349    -51559.47347  24628486.0594   24628484.9924
      -829.0474
  -1671150.67749  -1300834.02348  23732135.4734   23732131.9844
      -742.3284
  19772072.71849  15387141.56747  25353378.0594   25353377.2304
     -5079.7344
   2552153.88449   1984502.49748  21987655.7234   21987653.6374
     -1049.1094
  -3978321.48049  -3099136.56147  24115053.4104   24115051.7734
      1389.3284
 04  9 10 22 13 45.0040000  0  7G 3G 8G13G10G19G27G28
   8010148.02649   6236231.80847  24659772.7464   24659771.9964
     -3204.4694
  -2845771.32849  -2216700.19248  22310465.5984   22310463.6804
       134.1414
  10989919.52949   8554420.39348  22363071.4494   22363068.8634
     -3659.5314
    -59796.54149    -41809.43347  24630867.3874   24630866.0314
      -839.2664
  -1659943.07749  -1292100.79348  23734268.2624   23734265.0164
      -752.0314
   2567920.31949   1996788.02948  21990656.3094   21990653.6444
     -1053.0784
  -3999125.06849  -3115347.10247  24111094.4734   24111093.0704
      1384.3914
 04  9 10 22 14  0.0040000  0  7G 3G 8G13G10G19G27G28
   8058272.12449   6273731.10047  24668931.1524   24668929.9264
     -3212.2194
  -2847763.11249  -2218252.22148  22310086.6134   22310084.9104
       131.2664
  11044860.54249   8597231.55248  22373526.4734   22373523.7934
     -3666.0474
    -47141.55349    -31948.40647  24633275.8794   24633274.6054
      -848.1874
  -1648601.24449  -1283262.98848  23736426.8714   23736423.3984
      -760.2344
   2583734.37149   2009110.66948  21993665.2384   21993663.0124
     -1055.5624
  -4019865.37949  -3131508.33247  24107147.5594   24107146.2624
      1380.8444
 04  9 10 22 14 15.0040000  0  7G 3G 8G13G10G19G27G28
   8106519.87949   6311326.73247  24678111.5904   24678111.3284
     -3220.7344
  -2849705.40249  -2219765.69448  22309716.9024   22309714.5044
       127.7344
  11099906.45549   8640124.46848  22384001.2854   22383998.5984
     -3673.3914
    -34347.51849    -21979.00047  24635710.0124   24635709.3674
      -857.7194
  -1637128.55049  -1274323.20448  23738609.7074   23738606.2934
      -769.3594
   2599592.81749   2021467.91248  21996682.9734   21996680.6294
     -1058.8444
  -4040545.69649  -3147622.82247  24103212.5434   24103210.4774
      1376.5314
 04  9 10 22 14 30.0040000  0  7G 3G 8G13G10G19G27G28
   8154902.78349   6349027.69147  24687319.0514   24687317.9184
     -3229.7504
  -2851586.57049  -2221231.52648  22309358.8554   22309356.7034
       123.6414
  11155068.99849   8683108.24348  22394498.3874   22394495.5784
     -3681.0944
    -21402.60949    -11892.05947  24638173.5904   24638172.2934
      -867.7194
  -1625513.11749  -1265272.20548  23740820.1604   23740816.3524
      -778.7664
   2615507.33249   2033868.82848  21999711.6444   21999709.1914
     -1062.5004
  -4061154.02349  -3163681.21647  24099290.7934   24099288.7194
      1371.7344
 04  9 10 22 14 45.0040000  0  7G 3G 8G13G10G19G27G28
   8203417.32949   6386831.22647  24696550.8944   24696549.9144
     -3238.5624
  -2853409.52349  -2222651.99848  22309011.8714   22309009.8634
       119.7504
  11210344.61349   8726180.14048  22405017.1524   22405014.0944
     -3688.7194
     -8310.11249     -1690.10647  24640664.9574   24640663.6294
      -877.6564
  -1613757.96349  -1256112.32848  23743057.3244   23743053.4104
      -788.2034
   2631474.80049   2046311.01548  22002750.0434   22002747.8124
     -1066.1094
  -4081693.57949  -3179686.01147  24095382.6524   24095380.5594
      1367.1414
 04  9 10 22 15  0.0040000  0  7G 3G 8G13G10G19G27G28
   8252063.49549   6424737.31647  24705807.5354   24705807.1294
     -3247.8754
  -2855174.22549  -2224027.08948  22308676.0514   22308674.1054
       115.3284
  11265733.36749   8769340.19448  22415557.2774   22415554.1764
     -3696.7504
      4930.02449      8626.88647  24643184.0044   24643183.0234
      -887.9064
  -1601862.79149  -1246843.34747  23745320.6134   23745317.0624
      -798.0474
   2647495.31649   2058794.54048  22005798.5354   22005796.0824
     -1070.2034
  -4102164.09649  -3195637.02347  24091487.0274   24091485.0084
      1362.0164
 04  9 10 22 15 15.0040000  0  7G 3G 8G13G10G19G27G28
   8300840.19249   6462745.10547  24715089.4104   24715089.4064
     -3255.4844
  -2856881.57949  -2225357.48148  22308351.2384   22308348.9924
       112.5634
  11321234.15549   8812587.56248  22426118.7464   22426116.0124
     -3703.1564
     18317.17649     19058.44847  24645732.0824   24645731.0864
      -896.7814
  -1589828.37549  -1237465.86348  23747610.5824   23747606.7974
      -806.3124
   2663568.05249   2071318.75348  22008857.1844   22008854.6764
     -1072.5784
  -4122566.30749  -3211534.81247  24087604.3794   24087602.3594
      1358.5164
 04  9 10 22 15 30.0040000  0  7G 3G 8G13G10G19G27G28
   8349742.65349   6500850.91047  24724395.7464   24724394.7694
     -3264.6874
  -2858535.93849  -2226646.59248  22308036.7074   22308034.2694
       108.2344
  11376842.34649   8855918.60348  22436700.5274   22436697.8634
     -3711.1094
     31846.70649     29600.93747  24648307.3794   24648305.9224
      -907.0474
  -1577659.09249  -1227983.29748  23749926.5984   23749922.7734
      -816.0314
   2679688.65149   2083880.26248  22011924.8094   22011922.0864
     -1076.6094
  -4142904.67149  -3227382.83647  24083733.9024   24083731.8204
      1353.4694
 04  9 10 22 15 45.0040000  0  7G 3G 8G13G10G19G27G28
   8398778.63649   6539060.76047  24733726.6444   24733726.2034
     -3273.4064
  -2860129.58049  -2227888.37148  22307733.3794   22307731.2154
       104.3444
  11432565.75849   8899339.42248  22447304.1764   22447301.2114
     -3718.5624
     45526.67249     40260.66447  24650909.7304   24650908.8984
      -916.8124
  -1565346.79849  -1218389.26948  23752269.4734   23752265.6994
      -825.4534
   2695865.09349   2096485.27448  22015003.0124   22015000.3634
     -1080.1414
  -4163170.99549  -3243174.72747  24079877.5124   24079875.3054
      1348.8134
 04  9 10 22 16  0.0040000  0  7G 3G 8G13G10G19G27G28
   8447947.03349   6577373.78147  24743082.9964   24743082.8054
     -3282.5474
  -2861663.24049  -2229083.43448  22307441.4494   22307439.5514
        99.9224
  11488403.27849   8942849.16148  22457929.6914   22457927.1914
     -3726.6414
     59356.18449     51036.90447  24653541.1524   24653540.4344
      -927.3124
  -1552892.39949  -1208684.53648  23754639.1444   23754635.2464
      -835.3444
   2712096.45349   2109133.09748  22018091.9654   22018089.3324
     -1084.2504
  -4183366.13549  -3258911.17247  24076034.1764   24076032.5824
      1343.6414
 04  9 10 22 16 15.0040000  0  7G 3G 8G13G10G19G27G28
   8497240.95349   6615784.60347  24752463.7624   24752463.0084
     -3290.2504
  -2863143.19749  -2230236.63348  22307159.9104   22307157.4924
        97.1564
  11544348.23649   8986442.62648  22468575.6764   22468573.0554
     -3732.9844
     73328.59449     61924.51347  24656200.2694   24656199.0044
      -936.0164
  -1540302.35249  -1198874.09048  23757035.2854   23757031.0474
      -843.5474
   2728376.21649   2121818.63648  22021189.6914   22021187.1294
     -1086.7034
  -4203496.55349  -3274597.15547  24072203.8794   24072201.3244
      1340.0944
 04  9 10 22 16 30.0040000  0  7G 3G 8G13G10G19G27G28
   8546666.73349   6654298.18247  24761868.6524   24761868.6024
     -3300.1874
  -2864562.91649  -2231342.90848  22306889.7774   22306887.4654
        91.8284
  11600406.97949   9030124.74648  22479243.4024   22479241.1564
     -3741.7974
     87450.51749     72928.60947  24658887.5594   24658886.5744
      -947.1724
  -1527569.87749  -1188952.67548  23759458.2774   23759454.7154
      -854.2814
   2744710.99249   2134547.03048  22024298.1294   22024295.0744
     -1091.5944
  -4223555.46449  -3290227.44247  24068386.9734   24068384.5554
      1334.1094
 04  9 10 22 16 45.0040000  0  7G 3G 8G13G10G19G27G28
   8596220.10349   6692911.18747  24771298.1444   24771297.9454
     -3307.5314
  -2865926.62749  -2232405.53248  22306630.2774   22306627.8674
        89.2814
  11656575.20649   9073892.18548  22489931.8554   22489928.8284
     -3747.9374
    101717.76449     84045.95647  24661602.8554   24661601.5084
      -955.7974
  -1514698.99649  -1178923.37848  23761907.2154   23761903.7114
      -862.3754
   2761096.80849   2147315.20548  22027416.0354   22027413.4614
     -1093.7974
  -4243546.92249  -3305805.15647  24064582.5354   24064580.2464
      1330.7504
 04  9 10 22 17  0.0040000  0  7G 3G 8G13G10G19G27G28
   8645892.37449   6731616.83947  24780750.7774   24780750.7894
     -3315.3124
  -2867242.66049  -2233430.99548  22306379.6524   22306377.3914
        86.2504
  11712844.44349   9117738.32748  22500639.8484   22500636.8984
     -3754.5624
    116122.09149     95270.10147  24664343.4414   24664342.5004
      -964.7974
  -1501697.97549  -1168792.69448  23764381.0274   23764377.3204
      -871.0004
   2777525.29649   2160116.62048  22030542.4574   22030539.9844
     -1096.5474
  -4263479.10249  -3321336.67447  24060789.2934   24060787.1484
      1326.9064
 04  9 10 22 17 15.0040000  0  7G 3G 8G13G10G19G27G28
   8695694.49049   6770423.66747  24790227.5824   24790227.6914
     -3324.5314
  -2868499.43649  -2234410.29348  22306140.2694   22306138.1414
        81.7664
  11769225.51749   9161671.61348  22511368.6054   22511365.8484
     -3762.5164
    130674.58549    106609.71747  24667112.7074   24667111.6414
      -975.0784
  -1488555.50649  -1158551.80148  23766882.1604   23766878.8484
      -880.9844
   2794007.62149   2172959.99148  22033678.8324   22033676.3404
     -1100.6564
  -4283340.80649  -3336813.29247  24057009.7074   24057007.7074
      1321.6884
 04  9 10 22 17 30.0040000  0  7G 3G 8G13G10G19G27G28
   8745628.64749   6809333.38647  24799729.9184   24799730.0274
     -3333.4694
  -2869694.79649  -2235341.74248  22305913.2234   22305910.9224
        77.4224
  11825720.75349   9205693.86548  22522119.6054   22522116.6374
     -3770.3444
    145377.70649    118066.68547  24669910.7624   24669909.8364
      -985.4064
  -1475269.07849  -1148198.71248  23769410.8554   23769406.5984
      -890.7034
   2810546.17549   2185847.18248  22036826.1524   22036823.5164
     -1104.6254
  -4303129.46649  -3352232.97847  24053243.9414   24053241.6334
      1316.7034
 04  9 10 22 17 45.0040000  0  7G 3G 8G13G10G19G27G28
   8795685.32149   6848338.57947  24809255.5044   24809255.2194
     -3340.7344
  -2870837.91049  -2236232.46848  22305695.7694   22305693.3554
        74.9534
  11882320.77249   9249797.74348  22532890.0904   22532887.1334
     -3776.2974
    160222.15949    129633.80647  24672735.3714   24672734.7344
      -993.8444
  -1461847.84849  -1137740.59448  23771964.6764   23771961.0164
      -898.7664
   2827131.88149   2198771.10248  22039982.2854   22039979.5234
     -1106.7974
  -4322854.33249  -3367602.96647  24049490.3714   24049488.2234
      1313.3594
 04  9 10 22 18  0.0040000  0  7G 3G 8G13G10G19G27G28
   8845871.37849   6887444.56147  24818805.6294   24818805.6374
     -3349.7194
  -2871921.78149  -2237077.04248  22305489.3244   22305486.7974
        70.5474
  11939032.56849   9293988.74248  22543681.7934   22543679.3124
     -3784.2504
    175214.97949    141316.50647  24675588.5594   24675587.5664
     -1004.2344
  -1448284.54549  -1127171.77048  23774545.9264   23774542.0004
      -908.7194
   2843771.80249   2211737.26648  22043148.7544   22043146.1684
     -1110.9224
  -4342507.97049  -3382917.43847  24045750.3714   24045748.1444
      1308.1094
 04  9 10 22 18 15.0040000  0  7G 3G 8G13G10G19G27G28
   8896180.59549   6926646.54047  24828379.7544   24828379.1604
     -3358.1724
  -2872952.17649  -2237879.93948  22305293.4574   22305290.7734
        66.7344
  11995849.80249   9338261.89848  22554493.9654   22554491.1254
     -3791.5164
    190350.19949    153110.19447  24678468.8874   24678467.8794
     -1013.9374
  -1434585.06949  -1116496.83948  23777152.4964   23777148.3914
      -917.9374
   2860459.93249   2224741.02148  22046324.4654   22046321.6994
     -1114.3914
  -4362096.44249  -3398181.14747  24042022.4344   24042020.5274
      1303.5634
 04  9 10 22 18 30.0040000  0  7G 3G 8G13G10G19G27G28
   8946618.29849   6965948.61747  24837977.1214   24837976.9414
     -3367.0314
  -2873923.33049  -2238636.66848  22305108.4884   22305106.2814
        62.5164
  12052777.80949   9382621.36148  22565326.8794   22565323.9734
     -3799.1724
    205633.32449    165019.13247  24681376.6054   24681375.7384
     -1024.1094
  -1420743.75349  -1105711.37148  23779786.6214   23779782.7304
      -927.7034
   2877202.03849   2237786.81648  22049510.3164   22049507.8124
     -1118.1724
  -4381614.04549  -3413389.62447  24038308.5984   24038306.3524
      1298.5944
 04  9 10 22 18 45.0040000  0  7G 3G 8G13G10G19G27G28
   8997181.22649   7005348.28347  24847599.1914   24847599.0554
     -3374.2344
  -2874838.34249  -2239349.65748  22304934.3554   22304931.9774
        59.9064
  12109813.57549   9427064.80448  22576180.2464   22576177.4064
     -3805.1724
    221061.36149    177040.98047  24684312.7154   24684311.7894
     -1032.5474
  -1406763.54449  -1094817.69048  23782446.2074   23782442.9064
      -935.7974
   2893995.12149   2250872.34348  22052705.8484   22052703.0274
     -1120.4534
  -4401063.62549  -3428545.09947  24034607.7234   24034605.4774
      1295.1094
 04  9 10 22 19  0.0040000  0  7G 3G 8G13G10G19G27G28
   9047868.98049   7044845.22247  24857245.4344   24857244.0194
     -3383.6874
  -2875697.29549  -2240018.94948  22304770.8794   22304768.5354
        55.1094
  12166956.69749   9471591.89348  22587054.3874   22587051.9614
     -3813.4844
    236634.13749    189175.61647  24687276.2774   24687275.5624
     -1043.3914
  -1392644.48249  -1083815.80248  23785133.1764   23785129.5984
      -946.3444
   2910838.93749   2263997.39448  22055911.3404   22055908.7034
     -1124.9844
  -4420445.28249  -3443647.63847  24030919.3404   24030916.7774
      1289.4694
 04  9 10 22 19 15.0050000  0  7G 3G 8G13G10G19G27G28
   9098694.08249   7084449.17847  24866916.5954   24866916.1104
     -3392.4844
  -2876490.70749  -2240637.19848  22304619.9234   22304617.7474
        50.7504
  12224220.13849   9516212.74948  22597951.2124   22597948.5874
     -3821.1724
    252362.04149    201431.13547  24690268.8294   24690268.1494
     -1053.5004
  -1378376.08149  -1072697.56448  23787848.8994   23787844.5244
      -956.0784
   2927744.13949   2277170.28448  22059128.2984   22059125.2984
     -1128.8444
  -4439750.79249  -3458690.85747  24027245.5324   24027243.7394
      1284.3914
 04  9 10 22 19 30.0050000  0  7G 3G 8G13G10G19G27G28
   9149641.69049   7124148.60147  24876611.6104   24876611.4074
     -3400.4694
  -2877226.49049  -2241210.50948  22304479.7904   22304477.5014
        47.2974
  12281588.25449   9560915.14048  22608868.0484   22608865.4234
     -3828.0004
    268235.37749    213799.97547  24693289.8064   24693288.6184
     -1062.9064
  -1363967.92449  -1061470.39248  23790590.2674   23790586.6694
      -964.9844
   2944700.78549   2290383.24348  22062354.7904   22062352.2784
     -1132.0004
  -4458985.26249  -3473678.69647  24023585.6264   24023583.4894
      1280.1564
 04  9 10 22 19 45.0050000  0  7G 3G 8G13G10G19G27G28
   9200714.95649   7163945.92547  24886330.4934   24886330.1734
     -3409.2034
  -2877904.52749  -2241738.84248  22304350.6964   22304348.6964
        43.1564
  12339064.74349   9605702.00548  22619805.6884   22619802.9154
     -3835.5004
    284255.03849    226282.82647  24696337.9934   24696337.0404
     -1072.8914
  -1349419.03049  -1050133.58548  23793358.8684   23793355.2784
      -974.7974
   2961709.93849   2303637.13048  22065591.4624   22065588.9424
     -1135.8284
  -4478149.80549  -3488612.06247  24019938.4464   24019936.3604
      1275.2974
 04  9 10 22 20  0.0050000  0  7G 3G 8G13G10G19G27G28
   9251908.88449   7203837.29347  24896072.6574   24896072.1224
     -3416.8594
  -2878529.43849  -2242225.78048  22304232.0244   22304229.7244
        40.0634
  12396644.68749   9650569.48048  22630762.4784   22630759.8064
     -3842.0004
    300416.21449    238875.94847  24699413.7594   24699412.9034
     -1082.0314
  -1334734.05649  -1038690.74548  23796153.6654   23796149.8414
      -983.4374
   2978766.92249   2316928.29148  22068837.4624   22068834.6774
     -1138.5624
  -4497249.07149  -3503494.57047  24016304.1654   24016302.3564
      1271.2194
 04  9 10 22 20 15.0050000  0  7G 3G 8G13G10G19G27G28
   9303221.95049   7243821.48247  24905837.1654   24905836.5324
     -3424.9374
  -2879102.56849  -2242672.37148  22304122.7044   22304120.5364
        36.3594
  12454326.62749   9695516.43048  22641739.5794   22641736.3604
     -3848.9694
    316717.55149    251578.31047  24702515.0634   24702514.0094
     -1091.6094
  -1319914.23449  -1027142.81148  23798973.5954   23798970.0484
      -992.5944
   2995870.49249   2330255.75248  22072092.1034   22072089.6494
     -1141.9224
  -4516284.27849  -3518327.15447  24012681.5874   24012679.6384
      1266.7814
 04  9 10 22 20 30.0050000  0  7G 3G 8G13G10G19G27G28
   9354665.25149   7283907.16047  24915625.7044   24915626.0484
     -3433.7344
  -2879612.79149  -2243069.94348  22304025.8214   22304023.5284
        31.9534
  12512121.59149   9740551.45448  22652737.1034   22652734.6494
     -3856.7034
    333170.31349    264398.61847  24705646.6814   24705645.3454
     -1101.7664
  -1304948.06649  -1015480.84848  23801821.6814   23801817.6034
     -1002.5314
   3013031.88549   2343628.27248  22075357.8294   22075355.2784
     -1145.9844
  -4535244.12749  -3533101.02547  24009073.9384   24009071.3214
      1261.5164
 04  9 10 22 20 45.0050000  0  7G 3G 8G13G10G19G27G28
   9406231.89649   7324088.94347  24925438.7354   24925438.7164
     -3442.3284
  -2880066.01049  -2243423.09648  22303939.3924   22303937.1734
        27.9694
  12570022.88649   9785669.32748  22663755.3604   22663752.6654
     -3864.0164
    349768.06649    277331.93447  24708804.8924   24708803.7904
     -1111.7344
  -1289841.96749  -1003709.85048  23804695.9704   23804692.2784
     -1012.1254
   3030244.77549   2357040.92448  22078633.1734   22078630.6884
     -1149.6094
  -4554134.88349  -3547821.06647  24005478.7124   24005476.4424
      1256.7194
 04  9 10 22 21  0.0050000  0  7G 3G 8G13G10G19G27G28
   9457921.88649   7364366.85147  24935274.8534   24935275.2044
     -3450.0164
  -2880462.10349  -2243731.71848  22303864.0874   22303861.7554
        24.5784
  12628030.74049   9830870.23248  22674794.2044   22674791.6774
     -3870.6094
    366511.02949    290378.43947  24711990.6574   24711989.7474
     -1120.9374
  -1274595.59349   -991829.54248  23807597.2284   23807593.5874
     -1020.9374
   3047509.54649   2370493.99448  22081918.8684   22081915.9854
     -1152.5944
  -4572956.10949  -3562486.89347  24001897.1034   24001895.2394
      1252.5474
 04  9 10 22 21 15.0050000  0  7G 3G 8G13G10G19G27G28
   9509735.13249   7404740.76647  24945135.2594   24945134.1774
     -3458.3444
  -2880801.05149  -2243995.83148  22303799.3764   22303797.4814
        20.5944
  12686144.98049   9876154.04248  22685852.8994   22685850.2044
     -3877.8594
    383399.30049    303538.10847  24715204.7354   24715203.8024
     -1130.7814
  -1259208.74649   -979839.78248  23810525.3214   23810521.5284
     -1030.5784
   3064826.25149   2383987.52748  22085213.8064   22085211.2044
     -1156.2664
  -4591707.71449  -3577098.49647  23998328.7514   23998326.7824
      1247.7034
 04  9 10 22 21 30.0050000  0  7G 3G 8G13G10G19G27G28
   9561673.58449   7445212.27947  24955018.3684   24955018.1814
     -3467.4534
  -2881080.48249  -2244213.56348  22303746.5874   22303744.0714
        15.8754
  12744367.64149   9921522.33648  22696932.2354   22696929.4114
     -3885.8444
    400435.15149    316812.78947  24718446.4074   24718444.8534
     -1141.4694
  -1243679.09649   -967738.73648  23813480.2284   23813476.6104
     -1040.7974
   3082197.24349   2397523.37148  22088519.6264   22088517.2354
     -1160.5784
  -4610387.30349  -3591653.97747  23994774.4704   23994771.8414
      1242.2034
 04  9 10 22 21 45.0050000  0  7G 3G 8G13G10G19G27G28
   9613735.81149   7485780.25547  24964925.8764   24964925.2084
     -3474.3914
  -2881301.40949  -2244385.68848  22303703.9624   22303702.1884
        13.3134
  12802697.27449   9966973.97748  22708032.0634   22708029.7004
     -3891.5944
    417617.19549    330201.42947  24721715.7124   24721715.5794
     -1149.7664
  -1228007.66849   -955527.21648  23816462.4384   23816458.8024
     -1048.9374
   3099621.34449   2411100.57648  22091835.1494   22091831.9664
     -1162.8754
  -4628995.98349  -3606154.19147  23991232.9464   23991230.7204
      1238.7344
 04  9 10 22 22  0.0050000  0  7G 3G 8G13G10G19G27G28
   9665917.57949   7526441.35047  24974855.3534   24974855.0994
     -3483.2974
  -2881467.93249  -2244515.43948  22303672.8764   22303670.8844
         8.7504
  12861129.87049  10012505.85548  22719151.4854   22719148.7594
     -3899.4694
    434941.58249    343700.94947  24725012.8374   24725012.3254
     -1160.2504
  -1212198.41749   -943208.31348  23819470.7984   23819466.5364
     -1059.0624
   3117094.59049   2424716.10148  22095160.4154   22095157.7674
     -1167.0164
  -4647537.58849  -3620602.16547  23987705.0174   23987702.3534
      1233.3914
 04  9 10 22 22 15.0050000  0  7G 3G 8G13G10G19G27G28
   9718223.77849   7567199.41747  24984809.4384   24984808.0284
     -3491.1254
  -2881574.90049  -2244598.78348  22303652.3994   22303650.1774
         5.2814
  12919670.17349  10058121.66148  22730291.2744   22730288.3414
     -3906.1414
    452413.23549    357315.17647  24728337.4464   24728336.1854
     -1169.5164
  -1196246.17349   -930777.98548  23822506.8214   23822503.2004
     -1068.0944
   3134622.19549   2438373.98448  22098495.7984   22098492.6854
     -1170.1564
  -4666006.88949  -3634993.80147  23984189.6264   23984187.7634
      1229.0784
 04  9 10 22 22 30.0050000  0  7G 3G 8G13G10G19G27G28
   9770648.78249   7608050.04847  24994785.5174   24994784.9384
     -3499.0004
  -2881627.63449  -2244639.86848  22303642.0874   22303640.0954
         1.6564
  12978312.66449  10103817.08048  22741450.4784   22741448.0794
     -3913.0314
    470026.74449    371040.01747  24731689.2284   24731688.5364
     -1179.0314
  -1180156.27949   -918240.39948  23825568.8454   23825564.9744
     -1077.3284
   3152198.69949   2452069.95648  22101840.3534   22101837.7044
     -1173.4374
  -4684409.27949  -3649333.27747  23980688.5564   23980686.0484
      1224.4844
 04  9 10 22 22 45.0050000  0  7G 3G 8G13G10G19G27G28
   9823197.47749   7648997.07847  25004785.3924   25004784.3414
     -3507.9534
  -2881620.71649  -2244634.46248  22303643.4624   22303641.0524
        -3.0474
  13037062.46449  10149596.12748  22752630.4314   22752627.8024
     -3920.8124
    487787.39449    384879.50247  24735069.2284   24735068.1344
     -1189.4534
  -1163923.39149   -905591.37148  23828657.5014   23828654.2744
     -1087.5314
   3169829.47749   2465808.22648  22105195.2674   22105192.6104
     -1177.8284
  -4702739.21849  -3663616.30247  23977200.1034   23977197.7284
      1219.0004
 04  9 10 22 23  0.0050000  0  7G 3G 8G13G10G19G27G28
   9875865.62949   7690037.16847  25014807.6184   25014807.1454
     -3515.6254
  -2881558.21949  -2244585.75448  22303655.1574   22303653.1814
        -6.4374
  13095915.32249  10195455.48848  22763829.4704   22763827.0444
     -3927.3124
    505691.12049    398830.45347  24738476.0564   24738475.1924
     -1198.7034
  -1147551.34649   -892833.92148  23831772.8454   23831769.2474
     -1096.5164
   3187510.63349   2479585.75348  22108560.0794   22108557.5834
     -1180.7814
  -4721000.72649  -3677846.01447  23973725.2204   23973722.5714
      1214.7344
 04  9 10 22 23 15.0050000  0  7G 3G 8G13G10G19G27G28
   9928656.20949   7731172.68947  25024853.1264   25024852.7474
     -3523.4224
  -2881436.97449  -2244491.27048  22303678.1034   22303676.1104
       -10.0474
  13154874.37249  10241397.57648  22775049.1104   22775046.4234
     -3934.1414
    523741.06249    412895.33947  24741910.8214   24741909.6304
     -1208.1254
  -1131036.93549   -879965.53248  23834915.2124   23834911.6144
     -1105.7034
   3205245.29749   2493404.96548  22111934.7514   22111932.4034
     -1184.0784
  -4739190.45749  -3692019.79447  23970263.6034   23970260.7824
      1210.2814
 04  9 10 22 23 30.0050000  0  7G 3G 8G13G10G19G27G28
   9981570.17249   7772404.34847  25034922.5564   25034922.2554
     -3531.0164
  -2881255.55149  -2244349.88648  22303712.8994   22303710.4114
       -13.3914
  13213940.46449  10287423.08948  22786288.8294   22786286.3724
     -3940.5784
    541938.47749    427075.14747  24745373.6884   24745372.4854
     -1217.4374
  -1114378.80749   -866985.16448  23838085.4544   23838081.6814
     -1114.5784
   3223034.81949   2507266.93148  22115320.1104   22115317.2674
     -1187.0474
  -4757307.12449  -3706136.64147  23966815.8294   23966813.7244
      1206.0944
 04  9 10 22 23 45.0050000  0  7G 3G 8G13G10G19G27G28
  10034604.05449   7813729.41947  25045014.4384   25045014.2824
     -3539.8914
  -2881016.97049  -2244163.97548  22303758.5094   22303756.1884
       -18.0784
  13273110.34749  10333529.47048  22797548.7594   22797546.0874
     -3948.4694
    560280.15149    441367.34847  24748864.0874   24748863.0834
     -1227.7974
  -1097579.97049   -853895.16348  23841282.2514   23841278.3644
     -1124.8444
   3240876.12249   2521169.25648  22118715.1494   22118712.4034
     -1191.3754
  -4775353.69249  -3720198.87747  23963382.1814   23963379.4354
      1200.5004
 04  9 10 22 24  0.0050000  0  7G 3G 8G13G10G19G27G28
  10087758.55049   7855148.50247  25055129.4074   25055129.2354
     -3547.5944
  -2880720.37649  -2243932.84248  22303814.8604   22303813.4504
       -21.6254
  13332384.76049  10379717.31448  22808828.3214   22808825.4584
     -3955.0784
    578766.98049    455772.68047  24752382.0484   24752381.0794
     -1237.2194
  -1080639.40449   -840694.68648  23844505.5174   23844502.0754
     -1134.0944
   3258770.27249   2535112.75548  22122120.4544   22122117.7594
     -1194.6414
  -4793329.14449  -3734205.67447  23959961.0324   23959958.8564
      1196.1254
 04  9 10 22 24 15.0050000  0  7G 3G 8G13G10G19G27G28
  10141036.00549   7896663.38347  25065267.7984   25065267.8884
     -3556.2034
  -2880362.85649  -2243654.25548  22303882.6654   22303880.1694
       -26.1724
  13391766.06149  10425988.44048  22820128.2284   22820125.2864
     -3962.6094
    597401.53149    470293.10747  24755928.5244   24755926.5364
     -1247.6094
  -1063554.48849   -827381.76748  23847757.0954   23847752.9744
     -1144.1094
   3276719.86449   2549099.45048  22125536.1344   22125533.5714
     -1198.7974
  -4811230.75849  -3748154.96047  23956554.4854   23956552.5014
      1190.7194
 04  9 10 22 24 30.0050000  0  7G 3G 8G13G10G19G27G28
  10194436.13249   7938273.86147  25075429.4314   25075429.2944
     -3563.9534
  -2879944.50549  -2243328.26348  22303962.5874   22303960.4894
       -29.8124
  13451253.99549  10472342.65848  22831448.4624   22831445.8024
     -3969.2814
    616183.66049    484928.52747  24759501.8214   24759501.7164
     -1256.9224
  -1046325.24249   -813956.37648  23851035.8294   23851032.2044
     -1153.3284
   3294724.81149   2563129.28648  22128962.1424   22128959.7004
     -1202.0784
  -4829058.56849  -3762046.73047  23953162.0794   23953159.6574
      1186.1564
 04  9 10 22 24 45.0050000  0  7G 3G 8G13G10G19G27G28
  10247956.02049   7979977.68147  25085614.0714   25085613.7044
     -3572.0004
  -2879467.96849  -2242956.91448  22304052.9074   22304051.1614
       -33.6724
  13510845.77949  10518777.78948  22842788.4234   22842785.7354
     -3976.2344
    635110.82749    499676.97947  24763103.8214   24763102.8134
     -1266.6254
  -1028954.20749   -800420.47048  23854341.1104   23854337.7674
     -1162.8444
   3312782.60449   2577200.28348  22132398.2744   22132395.5524
     -1205.6414
  -4846815.11649  -3775882.95147  23949782.9854   23949780.8174
      1181.3594
 04  9 10 22 25  0.0050000  0  7G 3G 8G13G10G19G27G28
  10301586.08949   8021767.30847  25095819.7744   25095819.4894
     -3579.1254
  -2878942.49849  -2242547.46248  22304153.1814   22304150.7084
       -36.8594
  13570531.99849  10565286.52148  22854146.3604   22854143.9194
     -3982.5004
    654173.49649    514530.98447  24766731.4154   24766730.6184
     -1275.5624
  -1011450.62149   -786781.31548  23857672.2284   23857668.4194
     -1171.5314
   3330883.99249   2591305.27048  22135843.1574   22135840.2634
     -1208.3914
  -4864509.49149  -3789670.76447  23946416.5714   23946413.7514
      1177.3134
 04  9 10 22 25 15.0050000  0  7G 3G 8G13G10G19G27G28
  10355330.86849   8063646.35347  25106046.9154   25106046.2394
     -3587.0474
  -2878363.21249  -2242096.04748  22304263.3604   22304260.8954
       -40.7034
  13630317.10849  10611872.30548  22865522.9074   22865520.2004
     -3989.2344
    673376.39549    529494.30247  24770385.4544   24770384.6454
     -1285.1254
   -993809.64549   -773035.08148  23861028.9314   23861025.3024
     -1180.8914
   3349033.85249   2605448.02248  22139296.7514   22139293.9974
     -1211.8284
  -4882136.89749  -3803406.35647  23943061.7514   23943059.4074
      1172.6884
 04  9 10 22 25 30.0050000  0  7G 3G 8G13G10G19G27G28
  10409194.83549   8105618.26747  25116297.1184   25116296.1144
     -3594.6094
  -2877725.20249  -2241598.87948  22304384.7284   22304382.6424
       -44.2664
  13690205.62249  10658538.65648  22876919.6654   22876916.9814
     -3995.7974
    692724.27849    544570.57547  24774067.4234   24774066.5994
     -1294.4844
   -976026.41849   -759178.00048  23864413.1654   23864409.2594
     -1190.0314
   3367236.88649   2619632.21448  22142760.7044   22142758.1104
     -1215.0474
  -4899692.33649  -3817085.87247  23939720.7044   23939718.5754
      1168.1724
 04  9 10 22 25 45.0050000  0  7G 3G 8G13G10G19G27G28
  10463177.74249   8147682.84947  25126569.2044   25126569.1454
     -3602.4534
  -2877028.63049  -2241056.09448  22304517.1494   22304515.1144
       -47.9844
  13750197.46149  10705285.52548  22888335.5484   22888333.0524
     -4002.5624
    712217.25349    559759.87547  24777776.2824   24777775.5634
     -1303.9534
   -958100.68949   -745209.89548  23867824.1964   23867820.4074
     -1199.4064
   3385493.25749   2633857.94148  22146234.8534   22146232.2634
     -1218.5314
  -4917175.74149  -3830709.28648  23936393.9784   23936391.6614
      1163.5474
 04  9 10 22 26  0.0050000  0  7G 3G 8G13G10G19G27G28
  10517275.49849   8189836.94247  25136864.2904   25136863.7244
     -3610.5624
  -2876277.05949  -2240470.44348  22304660.4234   22304658.1494
       -52.1564
  13810288.60649  10752109.77348  22899770.5324   22899767.7354
     -4009.6094
    731851.43649    575059.26347  24781513.0714   24781512.1574
     -1313.8754
   -940036.25749   -731133.69748  23871261.4544   23871257.9154
     -1209.1414
   3403799.25749   2648122.36248  22149718.4934   22149715.4704
     -1222.2974
  -4934590.69349  -3844279.33947  23933079.9314   23933077.5324
      1158.4534
 04  9 10 22 26 15.0050000  0  7G 3G 8G13G10G19G27G28
  10571495.52149   8232086.28647  25147181.9624   25147181.1344
     -3619.0944
  -2875462.91249  -2239836.04148  22304815.0794   22304812.9784
       -56.6874
  13870486.26849  10799017.02948  22911225.5634   22911223.2124
     -4017.0004
    751634.22849    590474.40147  24785277.4624   24785276.3334
     -1324.0624
   -921825.68849   -716943.62848  23874727.1184   23874723.0054
     -1219.1724
   3422162.48049   2662431.36848  22153212.3454   22153210.1924
     -1226.4224
  -4951929.78949  -3857790.29947  23929780.4154   23929778.0094
      1153.1094
 04  9 10 22 26 30.0050000  0  7G 3G 8G13G10G19G27G28
  10625833.36249   8274427.44947  25157522.0014   25157521.3644
     -3626.5944
  -2874590.28249  -2239156.06548  22304981.2674   22304978.7434
       -60.2814
  13930786.26349  10846004.01848  22922700.5874   22922697.9034
     -4023.5474
    771561.59349    606002.23047  24789069.8604   24789068.9354
     -1333.3914
   -903472.73349   -702642.62148  23878219.5174   23878215.9074
     -1228.4694
   3440578.94949   2676781.86948  22156717.1884   22156714.4424
     -1229.7194
  -4969196.80849  -3871245.07947  23926494.3924   23926492.1774
      1148.5784
 04  9 10 22 26 45.0050000  0  7G 3G 8G13G10G19G27G28
  10680287.88749   8316859.52747  25167884.0714   25167883.7594
     -3634.8124
  -2873659.89849  -2238431.08648  22305158.0404   22305155.9424
       -64.6414
  13991187.64249  10893070.00548  22934194.8374   22934192.2044
     -4030.7664
    791632.54449    621641.93947  24792888.8844   24792888.0244
     -1343.4844
   -884978.36349   -688231.39948  23881738.6494   23881734.9544
     -1238.2974
   3459047.78849   2691173.17248  22160231.8064   22160229.3254
     -1233.6874
  -4986392.73049  -3884644.46247  23923222.0244   23923219.6814
      1143.2974
 04  9 10 22 27  0.0050000  0  7G 3G 8G13G10G19G27G28
  10734865.38649   8359387.44247  25178270.0954   25178269.8994
     -3642.9064
  -2872665.12849  -2237655.91948  22305347.3604   22305345.4544
       -68.7194
  14051696.88749  10940220.04248  22945709.2984   22945706.6814
     -4037.8124
    811853.60549    637398.59447  24796736.6034   24796735.7474
     -1353.3284
   -866335.86849   -673704.76648  23885286.2904   23885282.7824
     -1248.0784
   3477575.74649   2705610.53648  22163757.4544   22163754.7634
     -1237.4224
  -5003510.65849  -3897983.06747  23919964.7984   23919962.6384
      1138.3444
 04  9 10 22 27 15.0050000  0  7G 3G 8G13G10G19G27G28
  10789557.52849   8402004.69647  25188677.2284   25188677.5014
     -3650.0944
  -2871614.06449  -2236836.90648  22305547.7594   22305545.2984
       -72.0784
  14112305.44349  10987447.49448  22957242.3534   22957239.6534
     -4043.9844
    832216.58549    653265.86547  24800611.5874   24800610.9544
     -1362.3914
   -847553.43449   -659069.09348  23888860.1814   23888856.4384
     -1256.9374
   3496154.57849   2720087.56548  22167292.9624   22167289.9424
     -1240.4694
  -5020558.69449  -3911267.21948  23916720.9854   23916717.8804
      1134.0944
 04  9 10 22 27 30.0050000  0  7G 3G 8G13G10G19G27G28
  10844366.55049   8444712.98947  25199107.1424   25199107.1424
     -3657.8284
  -2870503.73949  -2235971.71648  22305758.6814   22305756.3994
       -76.0474
  14173015.72949  11034754.17948  22968795.3134   22968792.6224
     -4050.8124
    852724.09949    669245.73547  24804514.0634   24804513.0324
     -1371.9534
   -828628.28749   -644322.21748  23892461.7984   23892458.1854
     -1266.5004
   3514786.96049   2734606.30648  22170838.5244   22170835.8954
     -1244.0004
  -5037534.06049  -3924494.75747  23913490.1884   23913487.2634
      1129.2034
 04  9 10 22 27 45.0050000  0  7G 3G 8G13G10G19G27G28
  10899288.65049   8487509.44747  25209558.5094   25209558.5444
     -3664.9694
  -2869337.92149  -2235063.27048  22305980.8534   22305978.4194
       -79.2664
  14233823.98149  11082137.21048  22980366.9854   22980364.1694
     -4056.8914
    873372.46849    685335.38647  24808443.4854   24808442.8924
     -1380.9064
   -809564.01749   -629466.92048  23896089.8374   23896085.7354
     -1275.2344
   3533469.44649   2749164.07848  22174393.8134   22174391.3644
     -1246.9374
  -5054440.34449  -3937668.43647  23910272.8064   23910270.5324
      1125.0314
 04  9 10 22 28  0.0050000  0  7G 3G 8G13G10G19G27G28
  10954325.61049   8530395.37247  25220031.8764   25220031.9424
     -3672.7194
  -2868114.62749  -2234110.04348  22306213.2824   22306211.1654
       -83.2504
  14294732.01249  11129597.99548  22991957.2904   22991954.6384
     -4063.5624
    894163.55749    701536.22647  24812399.8454   24812399.1424
     -1390.5624
   -790358.45949   -614501.55148  23899744.0174   23899740.1304
     -1284.8284
   3552204.14949   2763762.55948  22177958.7354   22177956.0874
     -1250.4694
  -5071275.51849  -3950786.73147  23907069.2284   23907067.1654
      1120.2344
 04  9 10 22 28 15.0050000  0  7G 3G 8G13G10G19G27G28
  11009480.10949   8573372.85147  25230527.3534   25230527.0204
     -3681.2034
  -2866830.72349  -2233109.58748  22306457.8134   22306455.4424
       -88.0004
  14355742.54549  11177138.64348  23003567.2284   23003564.7824
     -4071.1414
    915100.37949    717850.63947  24816384.6104   24816383.1264
     -1400.9844
   -771008.58949   -599423.72548  23903426.6104   23903422.2284
     -1295.1874
   3570994.10449   2778404.08148  22181534.3064   22181531.6774
     -1254.8594
  -5088036.33249  -3963847.06847  23903879.8214   23903877.4704
      1114.5004
 04  9 10 22 28 30.0050000  0  7G 3G 8G13G10G19G27G28
  11064752.37649   8616442.15047  25241045.4624   25241045.1384
     -3689.4694
  -2865485.50649  -2232061.36848  22306713.9074   22306711.5054
       -92.5314
  14416856.01449  11224759.51748  23015196.7594   23015194.0444
     -4078.3594
    936183.39549    734278.95347  24820395.6654   24820394.7824
     -1411.1724
   -751513.84649   -584233.00948  23907135.7984   23907132.4704
     -1305.2344
   3589839.80049   2793089.03748  22185120.8064   22185118.1454
     -1258.9534
  -5104722.17549  -3976848.99747  23900704.7594   23900702.4314
      1109.1094
 04  9 10 22 28 45.0050000  0  7G 3G 8G13G10G19G27G28
  11120138.81549   8659600.40747  25251585.3214   25251584.9424
     -3696.5004
  -2864082.15949  -2230967.84648  22306980.6494   22306978.4464
       -95.7034
  14478068.92149  11272457.87248  23026845.1344   23026842.3064
     -4084.4694
    957409.09949    750818.43947  24824435.2904   24824434.2434
     -1420.0474
   -731877.45449   -568931.91448  23910872.9544   23910869.1574
     -1314.1094
   3608738.06649   2807814.96548  22188716.9854   22188714.0014
     -1261.8284
  -5121336.28549  -3989795.01947  23897542.6814   23897540.5634
      1104.9534
 04  9 10 22 29  0.0050000  0  7G 3G 8G13G10G19G27G28
  11175641.11949   8702848.92747  25262146.2904   25262146.2514
     -3703.7664
  -2862618.83649  -2229827.58848  22307259.4154   22307256.9784
       -99.3124
  14539382.93949  11320234.99648  23038512.8374   23038510.2314
     -4090.7504
    978779.53249    767470.73047  24828501.7434   24828500.5364
     -1429.3444
   -712097.49349   -553518.95048  23914636.9074   23914633.0204
     -1323.2194
   3627690.94649   2822583.44148  22192323.4464   22192320.5874
     -1265.1254
  -5137876.61949  -4002683.56047  23894395.3684   23894392.8214
      1100.4694
 04  9 10 22 29 15.0050000  0  7G 3G 8G13G10G19G27G28
  11231257.20249   8746186.13447  25272729.7044   25272730.1144
     -3712.0624
  -2861097.44949  -2228642.08648  22307549.1494   22307546.4784
      -103.9224
  14600795.94349  11368089.27148  23050199.0634   23050196.6454
     -4098.0474
   1000292.75249    784234.28647  24832595.8454   24832594.6034
     -1439.4844
   -692175.62749   -537995.41148  23918427.9624   23918423.9934
     -1333.4224
   3646696.70349   2837393.12148  22195940.0014   22195937.3064
     -1269.4064
  -5154344.81149  -4015515.87747  23891261.4544   23891259.0444
      1094.9534
 04  9 10 22 29 30.0050000  0  7G 3G 8G13G10G19G27G28
  11286987.60049   8789612.40347  25283334.5484   25283335.0714
     -3719.1564
  -2859516.82149  -2227410.42648  22307849.2674   22307846.8644
      -107.2664
  14662308.65149  11416021.21348  23061904.7824   23061902.5914
     -4104.1874
   1021949.45449    801109.65047  24836716.5014   24836715.9314
     -1448.5944
   -672110.96849   -522360.59448  23922246.1264   23922242.5204
     -1342.3914
   3665756.06649   2852244.56748  22199566.8454   22199563.9504
     -1272.3754
  -5170739.98049  -4028291.30247  23888141.7354   23888139.7864
      1090.5314
 04  9 10 22 29 45.0050000  0  7G 3G 8G13G10G19G27G28
  11342830.17849   8833126.06847  25293961.5634   25293961.5054
     -3726.4374
  -2857878.72549  -2226133.98148  22308161.4854   22308159.5094
      -110.9534
  14723918.87249  11464029.16948  23073628.4544   23073625.7674
     -4110.5004
   1043747.78949    818095.35147  24840865.1814   24840864.0954
     -1457.7664
   -651905.39749   -506615.99048  23926090.9234   23926087.2514
     -1351.5944
   3684867.35249   2867136.49348  22203203.7124   22203200.7864
     -1275.5474
  -5187063.90949  -4041011.21947  23885035.2824   23885033.1964
      1086.0314
 04  9 10 22 30  0.0050000  0  7G 3G 8G13G10G19G27G28
  11398783.49149   8876726.04647  25304609.2354   25304609.4464
     -3733.9534
  -2856184.53049  -2224813.83348  22308483.8844   22308481.5834
      -114.8284
  14785625.34949  11512112.11448  23085370.8534   23085368.4784
     -4117.0474
   1065686.39549    835190.35947  24845039.5324   24845038.6424
     -1467.2814
   -631560.07449   -490762.49348  23929962.6034   23929958.6304
     -1361.1094
   3704029.43049   2882067.97648  22206850.0404   22206847.5914
     -1279.2034
  -5203317.70649  -4053676.48948  23881942.5634   23881939.8564
      1081.1884
 04  9 10 22 30 15.0050000  0  7G 3G 8G13G10G19G27G28
  11454851.99449   8920415.77047  25315279.2904   25315278.8844
     -3742.0944
  -2854429.26049  -2223446.08348  22308817.5404   22308815.2984
      -119.3444
  14847432.71749  11560273.68648  23097132.9074   23097130.1694
     -4124.2504
   1087770.14649    852398.46747  24849241.9464   24849240.7434
     -1477.4844
   -611070.13349   -474796.29648  23933861.7044   23933858.0014
     -1371.1564
   3723247.21049   2897042.88448  22210507.0794   22210504.3564
     -1283.4224
  -5219496.54649  -4066283.34748  23878863.5634   23878861.2164
      1075.7814
 04  9 10 22 30 30.0050000  0  7G 3G 8G13G10G19G27G28
  11511037.24449   8964196.47547  25325970.7434   25325970.1654
     -3749.1874
  -2852611.03449  -2222029.27648  22309163.6734   22309161.3844
      -122.9064
  14909342.55649  11608515.09448  23108913.8134   23108911.2084
     -4130.3914
   1110000.68249    869720.96747  24853472.4154   24853471.1814
     -1486.5624
   -590433.61449   -458715.87248  23937788.4934   23937784.7204
     -1380.2814
   3742522.53749   2912062.61048  22214174.9384   22214172.3764
     -1286.5784
  -5235598.38749  -4078830.18848  23875799.6264   23875797.1694
      1071.2974
 04  9 10 22 30 45.0050000  0  7G 3G 8G13G10G19G27G28
  11567340.44149   9008069.07347  25336684.5714   25336684.6734
     -3757.9064
  -2850728.11549  -2220562.05548  22309521.7904   22309519.8024
      -128.0784
  14971356.08749  11656837.30348  23120714.5174   23120712.0714
     -4138.1094
   1132379.41649    887158.93347  24857731.2124   24857729.9154
     -1497.1724
   -569649.07649   -442520.11548  23941743.3764   23941739.7284
     -1390.9844
   3761856.98449   2927128.41648  22217854.3214   22217851.4504
     -1291.3754
  -5251621.66549  -4091315.83948  23872750.5174   23872748.3454
      1065.1884
 04  9 10 22 31  0.0050000  0  7G 3G 8G13G10G19G27G28
  11623752.28349   9052026.34047  25347419.8454   25347419.8134
     -3764.0164
  -2848789.44549  -2219051.40348  22309890.8534   22309888.7004
      -130.7034
  15033464.02949  11705233.09048  23132533.4854   23132530.9034
     -4143.2504
   1154897.32749    904705.35247  24862015.3994   24862014.7004
     -1505.3914
   -548725.50249   -426216.03548  23945725.5874   23945721.6574
     -1399.1254
   3781241.57849   2942233.30348  22221542.9384   22221540.5204
     -1293.5624
  -5267575.34249  -4103747.24248  23869714.3294   23869712.0404
      1061.7504
 04  9 10 22 31 15.0050000  0  7G 3G 8G13G10G19G27G28
  11680269.82749   9096065.95847  25358174.5244   25358174.3724
     -3771.4224
  -2846797.78349  -2217499.45148  22310269.5484   22310267.1344
      -134.6724
  15095663.65849  11753700.30948  23144369.4544   23144367.0834
     -4149.7974
   1177551.66949    922358.07747  24866326.6034   24866325.7474
     -1514.8594
   -527665.39949   -409805.55648  23949732.9784   23949729.3494
     -1408.6094
   3800673.68749   2957375.20248  22225240.8684   22225237.8534
     -1297.1094
  -5283461.88549  -4116126.34248  23866691.3134   23866689.4854
      1056.8134
 04  9 10 22 31 30.0050000  0  7G 3G 8G13G10G19G27G28
  11736902.67449   9140195.42947  25368951.4074   25368950.9854
     -3779.2034
  -2844743.14349  -2215898.42148  22310660.7594   22310658.6854
      -138.9064
  15157964.56449  11802246.44648  23156224.8994   23156222.6924
     -4156.5624
   1200352.08549    940124.62847  24870665.6344   24870665.0914
     -1524.7344
   -506458.99349   -393281.07748  23953768.2674   23953764.3764
     -1418.5164
   3820163.31249   2972561.92548  22228950.0634   22228947.2824
     -1301.0474
  -5299271.50049  -4128445.50148  23863682.9784   23863680.1384
      1051.6094
 04  9 10 22 31 45.0050000  0  7G 3G 8G13G10G19G27G28
  11793649.32349   9184413.58147  25379749.6964   25379749.8174
     -3786.7194
  -2842626.63949  -2214249.18848  22311063.5874   22311061.5794
      -143.0164
  15220365.13549  11850870.23248  23168099.3214   23168096.9974
     -4163.2504
   1223297.33549    958004.05047  24875032.0564   24875031.0754
     -1534.3444
   -485107.50349   -376643.53748  23957831.2204   23957827.2824
     -1428.0784
   3839709.20849   2987792.48048  22232669.1184   22232666.3724
     -1304.7974
  -5315005.30249  -4140705.55948  23860689.2594   23860686.2594
      1046.5314
 04  9 10 22 32  0.0050000  0  7G 3G 8G13G10G19G27G28
  11850510.44249   9228720.93047  25390570.6494   25390570.4384
     -3794.0004
  -2840447.26649  -2212550.97648  22311478.2124   22311476.1144
      -146.8754
  15282866.27549  11899572.40448  23179993.0564   23179990.5874
     -4169.6094
   1246388.37749    975997.05347  24879426.2744   24879424.8994
     -1543.7504
   -463609.78749   -359892.06848  23961922.5174   23961918.6344
     -1437.5004
   3859312.39449   3003067.69948  22236399.2594   22236396.5244
     -1308.2974
  -5330662.16049  -4152905.70548  23857709.3294   23857706.8174
      1041.7664
 04  9 10 22 32 15.0050000  0  7G 3G 8G13G10G19G27G28
  11907485.76949   9273117.28547  25401412.3064   25401412.3644
     -3802.3914
  -2838205.01949  -2210803.76748  22311905.0244   22311902.8104
      -151.8594
  15345467.71549  11948352.73448  23191905.7044   23191903.5714
     -4176.9844
   1269625.02049    994103.52247  24883847.8294   24883846.5204
     -1554.2034
   -441966.01249   -343026.78348  23966040.9314   23966037.3024
     -1448.0944
   3878973.01549   3018387.67748  22240140.7434   22240138.4314
     -1312.8594
  -5346241.99049  -4165045.79347  23854744.4154   23854741.7634
      1035.8594
 04  9 10 22 32 30.0050000  0  7G 3G 8G13G10G19G27G28
  11964571.63049   9317599.74047  25412275.5874   25412275.5484
     -3809.2664
  -2835903.15749  -2209010.09448  22312342.9854   22312341.3724
      -155.1564
  15408165.82749  11997208.37248  23203836.6574   23203834.3884
     -4182.8444
   1293003.78849   1012320.74547  24888296.5954   24888295.5364
     -1563.0624
   -420179.49949   -326050.26648  23970186.7044   23970183.4234
     -1456.8914
   3898687.71249   3033749.75948  22243892.5874   22243890.2474
     -1315.8594
  -5361748.15349  -4177128.47747  23851793.4854   23851791.5674
      1031.5474
 04  9 10 22 32 45.0050000  0  7G 3G 8G13G10G19G27G28
  12021766.24649   9362166.98547  25423159.3924   25423159.1144
     -3816.8284
  -2833543.25149  -2207171.19748  22312792.4704   22312789.8884
      -159.5624
  15470959.04249  12046138.13248  23215786.0014   23215783.3924
     -4189.7034
   1316523.07549   1030647.45247  24892772.4234   24892771.0564
     -1572.9694
   -398251.52549   -308963.52748  23974359.5634   23974355.6614
     -1466.8914
   3918455.07049   3049152.91348  22247654.0484   22247651.3294
     -1319.8594
  -5377181.90349  -4189154.76348  23848857.0094   23848854.2864
      1026.2194
 04  9 10 22 33  0.0050000  0  7G 3G 8G13G10G19G27G28
  12079076.11749   9406824.01147  25434064.6814   25434064.9664
     -3824.2664
  -2831118.32049  -2205281.63548  22313253.6034   22313251.5174
      -163.6254
  15533853.88249  12095147.06648  23227754.3294   23227752.1184
     -4196.1414
   1340189.70249   1049088.96547  24897275.6964   24897274.9894
     -1582.4694
   -376175.26249   -291761.24148  23978560.4544   23978556.8494
     -1476.4534
   3938281.97649   3064602.45548  22251426.8684   22251424.4074
     -1323.5164
  -5392536.38049  -4201119.25848  23845934.7904   23845932.5524
      1021.2194
 04  9 10 22 33 15.0050000  0  7G 3G 8G13G10G19G27G28
  12136492.06149   9451563.71047  25444990.9234   25444990.3534
     -3831.2034
  -2828637.04049  -2203348.15748  22313725.7124   22313723.4934
      -167.2344
  15596841.26449  12144228.11648  23239740.5714   23239738.2084
     -4202.2034
   1363994.72049   1067638.31947  24901805.3994   24901804.4814
     -1591.5944
   -353959.65849   -274450.37248  23982788.0174   23982783.9974
     -1485.6724
   3958159.65249   3080091.53848  22255209.5564   22255207.0324
     -1326.7194
  -5407820.37049  -4213028.83148  23843026.5954   23843023.9934
      1016.6884
 04  9 10 22 33 30.0050000  0  7G 3G 8G13G10G19G27G28
  12194019.95649   9496390.64547  25455938.5634   25455938.3294
     -3839.5624
  -2826093.12749  -2201365.89548  22314209.8454   22314207.5364
      -172.2814
  15659927.16449  12193385.95648  23251745.2674   23251743.3254
     -4209.6254
   1387944.09249   1086300.16347  24906363.3684   24906361.9544
     -1602.0944
   -331598.55949   -257026.13448  23987043.0714   23987038.8954
     -1496.2344
   3978094.38949   3095625.10748  22259002.8924   22259000.4584
     -1331.5164
  -5423027.65949  -4224878.64648  23840132.4314   23840130.0054
      1010.6254
 04  9 10 22 33 45.0050000  0  7G 3G 8G13G10G19G27G28
  12251660.55249   9541305.36347  25466906.4314   25466906.3844
     -3846.2814
  -2823485.63149  -2199334.05148  22314705.7434   22314703.7554
      -175.8284
  15723112.33049  12242621.11948  23263769.4544   23263766.9314
     -4215.5474
   1412038.79049   1105075.26047  24910948.3604   24910947.5444
     -1610.9694
   -309090.77149   -239487.58448  23991326.3764   23991322.2474
     -1505.2814
   3998087.15949   3111203.88648  22262807.2044   22262804.6734
     -1334.6724
  -5438157.07449  -4236667.75648  23837253.8454   23837250.7784
      1006.2034
 04  9 10 22 34  0.0050000  0  7G 3G 8G13G10G19G27G28
  12309405.10849   9586301.13147  25477895.1424   25477895.2284
     -3853.4064
  -2820822.92849  -2197259.22648  22315212.7514   22315210.0244
      -179.6094
  15786387.99949  12291926.81748  23275810.1884   23275807.5564
     -4221.7034
   1436270.25449   1123956.90447  24915559.3994   24915558.4744
     -1620.2504
   -286444.88049   -221841.43548  23995635.8214   23995632.1384
     -1514.6724
   4018129.62049   3126821.39548  22266621.2514   22266618.7554
     -1338.1874
  -5453217.07149  -4248402.80448  23834387.6184   23834385.3104
      1001.3594
 04  9 10 22 34 15.0050000  0  7G 3G 8G13G10G19G27G28
  12367258.56749   9631381.75047  25488904.1734   25488904.3844
     -3860.9694
  -2818099.55949  -2195137.10548  22315731.1264   22315728.4624
      -184.0164
  15849759.37949  12341307.08648  23287869.5324   23287867.0604
     -4228.4534
   1460643.69849   1142949.19747  24920198.1654   24920196.9234
     -1630.0784
   -263655.43449   -204083.41748  23999972.3844   23999968.1694
     -1524.5784
   4038227.09449   3142481.75848  22270445.9854   22270443.2004
     -1342.1414
  -5468202.31049  -4260079.58048  23831536.5404   23831533.5524
       995.9694
 04  9 10 22 34 30.0050000  0  7G 3G 8G13G10G19G27G28
  12425222.80049   9676548.67547  25499934.5014   25499934.6224
     -3867.5004
  -2815313.20449  -2192965.91048  22316261.3064   22316258.7704
      -187.3914
  15913228.15149  12390763.26248  23299947.0324   23299944.4664
     -4233.9694
   1485161.09249   1162053.65747  24924863.1884   24924861.8644
     -1638.8124
   -240720.45049   -186211.99948  24004336.7354   24004332.8844
     -1533.4224
   4058381.75549   3158186.70848  22274281.0324   22274278.3494
     -1345.0624
  -5483110.49549  -4271696.31348  23828699.4384   23828696.9664
       991.8914
 04  9 10 22 34 45.0050000  0  7G 3G 8G13G10G19G27G28
  12483294.66949   9721799.46247  25510984.9314   25510985.1144
     -3874.6564
  -2812466.73949  -2190747.87848  22316802.7824   22316800.6964
      -191.4224
  15976791.52949  12440293.13948  23312042.8604   23312040.6734
     -4240.3284
   1509819.54949   1181268.01347  24929555.6034   24929554.7674
     -1648.2344
   -217642.59149   -168229.23848  24008728.4234   24008724.8454
     -1542.9064
   4078590.90149   3173934.08448  22278126.5874   22278124.1344
     -1348.7814
  -5497944.33549  -4283255.13348  23825876.6034   23825873.8104
       986.7974
 04  9 10 22 35  0.0050000  0  7G 3G 8G13G10G19G27G28
  12541473.01949   9767133.23947  25522056.6184   25522056.0634
     -3882.8444
  -2809561.07949  -2188483.71748  22317355.7204   22317353.7124
      -196.4224
  16040448.37849  12489895.84848  23324156.3844   23324153.8024
     -4247.6094
   1534618.06749   1200591.54147  24934274.4854   24934273.1884
     -1658.6254
   -194422.75649   -150135.86848  24013146.9384   24013143.1344
     -1553.4064
   4098853.70249   3189723.28548  22281982.8064   22281980.0134
     -1353.3594
  -5512704.65349  -4294756.64948  23823067.7984   23823065.0364
       980.8754
 04  9 10 22 35 15.0050000  0  7G 3G 8G13G10G19G27G28
  12599761.40749   9812552.74247  25533148.3764   25533148.0794
     -3889.6724
  -2806592.29249  -2186170.36548  22317920.3684   22317918.2514
      -200.2034
  16104202.13549  12539574.06548  23336288.3454   23336285.8884
     -4253.6414
   1559560.31849   1220027.07047  24939020.8374   24939020.2284
     -1667.7664
   -171057.17449   -131928.90648  24017593.1494   24017589.6424
     -1562.7504
   4119174.03049   3205557.28948  22285849.3844   22285846.5754
     -1356.8284
  -5527387.58549  -4306197.85648  23820273.5174   23820271.0524
       976.1884
 04  9 10 22 35 30.0050000  0  7G 3G 8G13G10G19G27G28
  12658162.85449   9858060.38047  25544261.9074   25544261.5364
     -3896.4694
  -2803557.12549  -2183805.29748  22318498.1184   22318495.5564
      -203.8284
  16168056.02349  12589330.33948  23348439.5244   23348436.8724
     -4259.5164
   1584649.58849   1239577.12647  24943795.4074   24943793.9664
     -1676.7664
   -147542.47149   -113605.76448  24022067.7204   24022064.0564
     -1571.8444
   4139555.31849   3221438.82548  22289728.0174   22289724.9744
     -1360.0314
  -5541989.75349  -4317576.14648  23817494.8134   23817492.2634
       971.5004
 04  9 10 22 35 45.0050000  0  7G 3G 8G13G10G19G27G28
  12716666.88249   9903647.88247  25555393.9854   25555394.2744
     -3903.7034
  -2800465.63049  -2181396.31948  22319086.4854   22319084.5284
      -207.9694
  16231999.53149  12639156.40548  23360607.4784   23360605.1654
     -4265.8914
   1609875.68949   1259233.84747  24948595.9384   24948594.6574
     -1686.3124
   -123888.78149    -95174.31448  24026568.8604   24026565.4934
     -1581.5624
   4159987.56649   3237360.04448  22293615.8764   22293613.1614
     -1363.7814
  -5556521.10449  -4328899.23948  23814729.6264   23814727.1184
       966.4224
 04  9 10 22 36  0.0050000  0  7G 3G 8G13G10G19G27G28
  12775287.47849   9949326.28447  25566549.3534   25566549.9504
     -3911.3754
  -2797303.41149  -2178932.25448  22319688.2124   22319685.7554
      -212.6724
  16296046.90549  12689063.42248  23372795.3454   23372792.6964
     -4272.7974
   1635252.73249   1279008.13447  24953424.2744   24953423.2124
     -1696.3444
   -100081.77149    -76623.40248  24031099.3844   24031095.7434
     -1591.7194
   4180485.00349   3253332.07648  22297516.6494   22297514.1064
     -1368.1724
  -5570967.20549  -4340155.92848  23811980.2204   23811977.5914
       960.7504
 04  9 10 22 36 15.0050000  0  7G 3G 8G13G10G19G27G28
  12834008.91349   9995083.26147  25577724.4234   25577723.8884
     -3918.8284
  -2794085.45749  -2176424.75348  22320300.7744   22320298.5834
      -217.0164
  16360182.24849  12739038.99148  23384999.9384   23384997.4624
     -4279.2504
   1660765.10349   1298887.91947  24958279.3134   24958278.6884
     -1705.9844
    -76136.88049    -57965.04248  24035655.7044   24035652.0244
     -1601.6094
   4201032.16349   3269342.85248  22301426.6574   22301423.7634
     -1372.1564
  -5585343.70249  -4351358.35148  23809244.6574   23809241.8024
       955.4694
 04  9 10 22 36 30.0050000  0  7G 3G 8G13G10G19G27G28
  12892834.02749  10040921.01047  25588918.0794   25588917.3764
     -3925.1874
  -2790808.78049  -2173871.48048  22320924.1344   22320921.7394
      -220.5004
  16424408.63449  12789085.51248  23397221.8134   23397218.8844
     -4284.8754
   1686415.78949   1318875.46447  24963160.6884   24963159.6964
     -1714.7664
    -52050.95949    -39196.78748  24040239.3134   24040235.4744
     -1610.5164
   4221632.48349   3285395.05748  22305346.8534   22305343.9274
     -1375.2034
  -5599647.21449  -4362503.92348  23806522.7434   23806520.1034
       950.9694
 04  9 10 22 36 45.0050000  0  7G 3G 8G13G10G19G27G28
  12951769.30149  10086844.59347  25600133.0014   25600132.5564
     -3932.9694
  -2787466.69849  -2171267.25648  22321560.4154   22321557.8604
      -225.2814
  16488732.66949  12839208.11948  23409462.1264   23409459.6884
     -4291.8444
   1712211.48849   1338976.00547  24968069.0794   24968068.5174
     -1724.7974
    -27817.30649    -20313.42348  24044850.8294   24044847.0204
     -1620.7664
   4242292.64749   3301493.87448  22309278.1574   22309275.5284
     -1379.5944
  -5613870.88649  -4373587.26748  23803815.7594   23803813.1964
       945.2814
 04  9 10 22 37  0.0050000  0  7G 3G 8G13G10G19G27G28
  13010809.36149  10132849.81247  25611367.9934   25611367.5174
     -3939.6094
  -2784064.02249  -2168615.80148  22322207.5954   22322205.1034
      -229.0314
  16553148.80249  12889402.48448  23421720.1104   23421718.1064
     -4297.6724
   1738146.91549   1359185.42347  24973004.6184   24973003.8104
     -1733.8284
     -3440.94749     -1318.85448  24049489.6184   24049485.8924
     -1630.0314
   4263007.70749   3317635.48748  22313220.2674   22313217.7634
     -1383.0314
  -5628019.71149  -4384612.30148  23801123.5244   23801121.1264
       940.5634
 04  9 10 22 37 15.0060000  0  7G 3G 8G13G10G19G27G28
  13069963.82949  10178944.18347  25622624.4044   25622624.4474
     -3947.0474
  -2780594.60249  -2165912.35148  22322867.9824   22322865.3344
      -233.4534
  16617667.14549  12939676.48248  23433997.5374   23433994.9714
     -4304.1874
   1764229.79449   1379509.74047  24977968.4824   24977967.3304
     -1743.5624
     21085.73249     17792.84748  24054156.7564   24054153.1004
     -1639.9064
   4283785.13549   3333825.67948  22317174.1464   22317171.3464
     -1387.0624
  -5642088.51649  -4395574.97048  23798446.2714   23798444.0214
       935.1884
 04  9 10 22 37 30.0060000  0  7G 3G 8G13G10G19G27G28
  13129218.71549  10225116.82747  25633900.3114   25633900.4084
     -3953.9064
  -2777064.64549  -2163161.72048  22323539.6234   22323537.2364
      -237.4064
  16682273.13149  12990018.78848  23446291.4984   23446289.9634
     -4310.2034
   1790450.65749   1399941.59147  24982957.7094   24982957.1544
     -1752.7974
     45753.63549     37014.59948  24058850.7954   24058847.0534
     -1649.3914
   4304616.27349   3350057.73348  22321138.2014   22321135.4044
     -1390.6414
  -5656081.19949  -4406478.32948  23795784.1074   23795781.0064
       930.1884
 04  9 10 22 37 45.0060000  0  7G 3G 8G13G10G19G27G28
  13188580.67249  10271372.85947  25645196.4124   25645197.0494
     -3960.5784
  -2773470.86149  -2160361.37048  22324223.2954   22324221.1974
      -241.2974
  16746973.81449  13040434.88548  23458604.0214   23458601.6894
     -4316.0624
   1816814.08249   1420484.50447  24987974.8654   24987973.6864
     -1761.8914
     70567.47749     56350.05148  24063572.4364   24063568.9364
     -1658.6094
   4325505.74749   3366335.24548  22325112.8504   22325110.3144
     -1394.1414
  -5669995.62649  -4417320.71748  23793135.4754   23793132.7284
       925.5164
 04  9 10 22 38  0.0060000  0  7G 3G 8G13G10G19G27G28
  13248045.37149  10317708.93847  25656511.8424   25656511.9864
     -3968.2504
  -2769816.85449  -2157514.08848  22324918.4044   22324916.5844
      -246.0784
  16811765.10049  13090921.58548  23470933.2484   23470930.7094
     -4322.9224
   1843316.00849   1441135.35047  24993018.0924   24993016.8534
     -1771.8914
     95523.23649     75796.09448  24068321.6864   24068317.6234
     -1668.8914
   4346449.60149   3382655.14648  22329098.7324   22329096.0614
     -1398.4844
  -5683835.66049  -4428105.12648  23790502.4044   23790499.5184
       919.7344
 04  9 10 22 38 15.0060000  0  7G 3G 8G13G10G19G27G28
  13307612.70549  10364125.05947  25667848.6004   25667847.7254
     -3974.7664
  -2766102.44449  -2154619.72648  22325625.4984   22325622.7834
      -249.7344
  16876646.92749  13141478.82248  23483280.2174   23483277.7484
     -4328.5784
   1869956.59049   1461894.24447  24998087.3344   24998086.1664
     -1780.7344
    120621.13849     95352.90548  24073097.7254   24073093.9084
     -1678.0004
   4367448.06249   3399017.56748  22333094.6464   22333092.1584
     -1401.8124
  -5697601.02149  -4438831.35148  23787882.5144   23787879.8814
       915.0944
 04  9 10 22 38 30.0060000  0  7G 3G 8G13G10G19G27G28
  13367286.99549  10410624.43447  25679203.5144   25679203.2214
     -3981.7504
  -2762323.18149  -2151674.84148  22326345.0844   22326342.4124
      -253.9694
  16941623.62349  13192109.98548  23495644.8424   23495641.9714
     -4334.7664
   1896740.31549   1482764.66647  25003183.9824   25003182.8574
     -1790.2194
    145865.80649    115024.07548  24077901.7564   24077897.9714
     -1687.6414
   4388505.96449   3415426.32448  22337101.6234   22337098.8384
     -1405.6564
  -5711287.10949  -4449495.81048  23785278.3894   23785275.5064
       909.9694
 04  9 10 22 38 45.0060000  0  7G 3G 8G13G10G19G27G28
  13427063.94449  10457203.89947  25690578.4594   25690578.4474
     -3988.8444
  -2758482.55949  -2148682.14448  22327075.6234   22327073.0254
      -258.4064
  17006691.01749  13242811.83348  23508026.5454   23508024.3144
     -4341.1094
   1923663.16949   1503743.50747  25008307.8264   25008306.3964
     -1799.8914
    171253.29649    134806.53448  24082732.5924   24082728.7524
     -1697.5944
   4409619.27349   3431878.24948  22341119.5534   22341116.8574
     -1409.7664
  -5724897.62349  -4460101.37948  23782688.3264   23782685.6074
       904.5004
 04  9 10 22 39  0.0060000  0  7G 3G 8G13G10G19G27G28
  13486948.03549  10503866.81047  25701974.0374   25701973.6354
     -3995.8444
  -2754576.01449  -2145638.06748  22327818.9204   22327816.0534
      -262.6564
  17071853.60549  13293587.85148  23520426.5844   23520424.1154
     -4347.3914
   1950729.71549   1524834.32847  25013458.0534   25013456.9984
     -1809.2194
    196788.24649    154703.91148  24087591.8344   24087587.8774
     -1707.2664
   4430792.96449   3448377.22748  22345148.7404   22345146.4434
     -1413.5784
  -5738427.72549  -4470644.27148  23780113.5844   23780110.6464
       899.2974
 04  9 10 22 39 15.0060000  0  7G 3G 8G13G10G19G27G28
  13546941.22049  10550614.68847  25713389.3344   25713389.9904
     -4003.3124
  -2750601.29549  -2142540.86848  22328574.9434   22328572.8034
      -267.3284
  17137113.33249  13344439.56848  23532845.2324   23532842.7754
     -4353.9224
   1977942.08049   1546038.76247  25018636.5844   25018635.2794
     -1819.0164
    222473.01049    174718.01648  24092479.6314   24092475.8534
     -1717.3284
   4452029.24949   3464924.97748  22349189.7644   22349186.6824
     -1417.8914
  -5751875.26749  -4481122.85148  23777554.6864   23777551.8694
       893.7194
 04  9 10 22 39 30.0060000  0  7G 3G 8G13G10G19G27G28
  13607038.33949  10597443.63547  25724826.4594   25724826.9434
     -4010.2344
  -2746563.04449  -2139394.18348  22329343.8814   22329341.3424
      -271.7344
  17202465.09549  13395363.00048  23545281.3734   23545279.1784
     -4360.2344
   2005295.12049   1567352.80947  25023841.2794   25023840.3534
     -1828.6094
    248302.71749    194845.04948  24097394.6004   24097391.2174
     -1727.1254
   4473323.29849   3481517.75148  22353241.8814   22353239.5574
     -1421.9374
  -5765244.97049  -4491540.76948  23775010.3344   23775008.0884
       888.3444
 04  9 10 22 39 45.0060000  0  7G 3G 8G13G10G19G27G28
  13667237.02649  10644351.65847  25736281.8034   25736281.9984
     -4016.8914
  -2742463.50049  -2136199.71848  22330123.7014   22330121.1354
      -275.6414
  17267906.79249  13446356.50048  23557734.1544   23557732.4004
     -4366.0944
   2032786.81149   1588774.89347  25029072.9364   25029071.8304
     -1837.7194
    274275.20049    215083.35448  24102337.3034   24102333.4514
     -1736.5944
   4494673.14749   3498154.00048  22357304.7714   22357302.3934
     -1425.5004
  -5778538.82049  -4501899.58548  23772480.4514   23772477.9904
       883.4224
 04  9 10 22 40  0.0060000  0  7G 3G 8G13G10G19G27G28
  13727533.20049  10691335.68447  25747756.1544   25747755.9824
     -4023.8124
  -2738305.96049  -2132960.07248  22330914.9434   22330912.6934
      -279.7814
  17333434.17749  13497416.78148  23570204.2254   23570201.8224
     -4372.0004
   2060413.17549   1610301.92447  25034329.9984   25034328.7254
     -1846.9064
    300386.64749    235429.95048  24107305.6864   24107302.4434
     -1746.0944
   4516075.10049   3514830.84348  22361377.1624   22361374.3614
     -1429.2194
  -5791760.52449  -4512202.17148  23769964.2564   23769962.0144
       878.3594
 04  9 10 22 40 15.0060000  0  7G 3G 8G13G10G19G27G28
  13787934.32449  10738401.47447  25759249.2404   25759249.6504
     -4030.8284
  -2734082.72949  -2129669.24248  22331718.7014   22331716.2444
      -284.3914
  17399054.93149  13548549.80448  23582691.0064   23582688.7254
     -4378.4534
   2088181.89149   1631939.87847  25039615.0294   25039613.4984
     -1856.6874
    326644.86749    255890.89948  24112302.8654   24112299.0614
     -1756.1254
   4537537.02249   3531554.41048  22365461.4754   22365458.6234
     -1433.5314
  -5804902.17149  -4522442.39848  23767463.6704   23767461.1114
       872.7664
 04  9 10 22 40 30.0060000  0  7G 3G 8G13G10G19G27G28
  13848436.66249  10785546.12147  25770763.1154   25770763.0844
     -4036.8444
  -2729797.14749  -2126329.82048  22332534.0684   22332531.6784
      -287.8284
  17464765.33249  13599752.68848  23595195.3424   23595193.3534
     -4383.7814
   2116089.35449   1653685.93247  25044925.3734   25044924.0064
     -1865.2504
    353046.43549    276463.55648  24117326.5764   24117322.9364
     -1764.9374
   4559055.52649   3548322.09148  22369556.4204   22369553.6394
     -1436.5164
  -5817967.19449  -4532622.89848  23764977.3574   23764974.7754
       868.4694
 04  9 10 22 40 45.0060000  0  7G 3G 8G13G10G19G27G28
  13909044.28649  10832772.81847  25782295.7014   25782296.5964
     -4043.5944
  -2725444.65649  -2122938.25048  22333362.3424   22333359.8814
      -291.9694
  17530569.54549  13651028.68448  23607717.0924   23607715.0104
     -4389.6874
   2144139.68749   1675543.33947  25050263.0454   25050261.5454
     -1874.3284
    379595.69649    297151.29848  24122379.3654   24122375.2404
     -1774.5004
   4580635.08749   3565137.32548  22373662.8264   22373660.2324
     -1440.3444
  -5830951.18349  -4542740.25848  23762506.8424   23762503.9364
       863.3134
 04  9 10 22 41  0.0060000  0  7G 3G 8G13G10G19G27G28
  13969746.91849  10880073.56647  25793847.6934   25793848.0064
     -4049.9064
  -2721035.40649  -2119502.46848  22334201.2404   22334198.6974
      -295.7194
  17596457.25949  13702369.72348  23620255.4984   23620253.4784
     -4395.2194
   2172322.83549   1697504.22647  25055625.3424   25055624.5684
     -1883.2344
    406282.58949    317946.28948  24127457.5764   24127453.7914
     -1783.5474
   4602265.78949   3581992.41148  22377778.9984   22377776.4284
     -1443.6254
  -5843864.06249  -4552802.19748  23760049.4364   23760046.5724
       858.6254
 04  9 10 22 41 15.0060000  0  7G 3G 8G13G10G19G27G28
  14030548.38549  10927451.31947  25805418.2014   25805418.0964
     -4056.8124
  -2716564.95449  -2116018.99148  22335052.2094   22335050.0104
      -300.2344
  17662432.57549  13753779.05148  23632810.0684   23632807.9904
     -4401.3754
   2200642.91549   1719571.81547  25061014.9284   25061013.7284
     -1892.7034
    433111.47749    338851.91648  24132562.9204   24132558.7564
     -1793.4374
   4623951.94349   3598890.71948  22381905.5844   22381903.0334
     -1447.7664
  -5856701.40049  -4562805.29048  23757606.6074   23757603.6434
       853.1724
 04  9 10 22 41 30.0060000  0  7G 3G 8G13G10G19G27G28
  14091449.41549  10974906.64647  25817007.2404   25817007.4944
     -4062.9224
  -2712032.32249  -2112487.04748  22335914.6234   22335912.2604
      -303.7814
  17728496.08849  13805257.07048  23645381.4984   23645379.5614
     -4406.7034
   2229100.79049   1741746.79447  25066430.2714   25066429.1624
     -1901.2814
    460083.19249    359868.85148  24137695.1464   24137691.2794
     -1802.3914
   4645694.62949   3615833.06548  22386043.2794   22386040.3534
     -1450.8914
  -5869462.21449  -4572748.74948  23755178.0924   23755175.2794
       848.5944
 04  9 10 22 41 45.0060000  0  6G 8G13G10G19G27G28
  -2707433.49149  -2108903.54448  22336789.6624   22336787.6704
      -308.5004
  17794651.57649  13856806.79448  23657970.5924   23657968.7644
     -4413.0944
   2257700.19149   1764032.01647  25071872.5144   25071871.6584
     -1911.0004
    487201.73749    381000.19048  24142855.5294   24142851.8384
     -1812.4224
   4667497.75049   3632822.52148  22390192.2324   22390188.9434
     -1455.2504
  -5882142.41649  -4582629.39748  23752765.4284   23752762.3854
       842.9534
 04  9 10 22 42  0.0060000  0  6G 8G13G10G19G27G28
  -2702768.86149  -2105268.76448  22337677.4824   22337675.0374
      -312.9534
  17860898.21949  13908427.52048  23670576.9754   23670574.7994
     -4419.2034
   2286440.34849   1786426.93547  25077342.2324   25077340.4554
     -1920.4224
    514466.41549    402245.39548  24148044.1624   24148040.2604
     -1822.2664
   4689360.84349   3649858.67948  22394352.4514   22394350.0724
     -1459.2194
  -5894742.60249  -4592447.69948  23750367.5214   23750364.8574
       837.6254
 04  9 10 22 42 15.0060000  0  6G 8G13G10G19G27G28
  -2698039.35049  -2101583.42348  22338577.2954   22338575.0184
      -317.1724
  17927234.79649  13960118.33448  23683200.2714   23683198.2364
     -4425.2034
   2315320.33749   1808930.82347  25082837.5144   25082836.3654
     -1929.6874
    541876.23649    423603.70048  24153260.0374   24153255.9674
     -1831.8914
   4711283.15049   3666941.00648  22398524.4674   22398521.6784
     -1463.1564
  -5907263.62449  -4602204.31648  23747985.1394   23747982.1354
       832.3914
 04  9 10 22 42 30.0060000  0  6G 8G13G10G19G27G28
  -2693240.60449  -2097844.13348  22339490.6314   22339488.4244
      -322.0164
  17993665.15249  14011882.21948  23695841.8734   23695839.5294
     -4431.5314
   2344344.04049   1831546.68347  25088360.6004   25088359.5024
     -1939.4534
    569435.28749    445078.29948  24158503.9904   24158500.0804
     -1842.0784
   4733268.73749   3684072.63448  22402708.0454   22402705.4284
     -1467.5944
  -5919701.40849  -4611896.06748  23745618.1394   23745615.2054
       826.6724
 04  9 10 22 42 45.0060000  0  6G 8G13G10G19G27G28
  -2688377.07549  -2094054.35948  22340416.2254   22340413.7914
      -326.3914
  18060184.48249  14063715.45248  23708499.8894   23708498.1624
     -4437.6564
   2373506.66449   1854270.81447  25093910.3424   25093908.7094
     -1948.8754
    597138.90649    466665.54348  24163775.9674   24163772.2134
     -1851.7194
   4755313.13249   3701250.08448  22406903.0684   22406900.5414
     -1471.5784
  -5932060.45449  -4621526.46048  23743266.2714   23743263.5644
       821.2664
 04  9 10 22 43  0.0060000  0  6G 8G13G10G19G27G28
  -2683449.76949  -2090214.89948  22341353.4984   22341351.5764
      -330.8124
  18126791.95649  14115617.35948  23721174.9124   23721172.6504
     -4443.5624
   2402807.42649   1877102.55847  25099485.5534   25099484.5064
     -1958.0944
    624986.53649    488365.00248  24169075.5064   24169071.4044
     -1861.5004
   4777415.88949   3718473.00548  22411109.0064   22411106.3534
     -1475.5944
  -5944341.22349  -4631095.87448  23740929.2324   23740926.3694
       816.0004
 04  9 10 22 43 15.0060000  0  6G 8G13G10G19G27G28
  -2678459.14249  -2086326.08948  22342303.3034   22342301.1394
      -334.9844
  18193486.54049  14167587.11248  23733866.6314   23733864.5064
     -4449.3444
   2432245.41949   1900041.26347  25105087.5614   25105086.4434
     -1967.2504
    652977.33649    510176.02248  24174401.1544   24174397.8034
     -1871.0314
   4799576.13249   3735740.71948  22415325.9044   22415323.2444
     -1479.4534
  -5956544.42849  -4640604.83248  23738607.0214   23738604.2874
       810.8284
 04  9 10 22 43 30.0060000  0  6G 8G13G10G19G27G28
  -2673405.12849  -2082387.88948  22343264.9434   22343262.8854
      -338.8594
  18260267.91749  14219624.53948  23746574.4904   23746572.2834
     -4454.8124
   2461820.42349   1923086.72247  25110715.1464   25110714.7094
     -1976.0164
    681111.30049    532098.60248  24179755.4124   24179751.3964
     -1880.2814
   4821793.87249   3753053.25948  22419553.7484   22419551.2134
     -1482.9374
  -5968670.02149  -4650053.32148  23736299.6464   23736296.6974
       805.9534
 04  9 10 22 43 45.0060000  0  6G 8G13G10G19G27G28
  -2668287.46149  -2078400.09048  22344239.0924   22344236.7214
      -343.5474
  18327136.14449  14271729.61848  23759299.0684   23759297.2484
     -4461.0624
   2491532.65549   1946239.11547  25116369.5144   25116368.3894
     -1985.6874
    709388.63149    554132.90748  24185136.4514   24185132.4004
     -1890.2344
   4844069.62149   3770410.97448  22423792.7404   22423790.0614
     -1487.2194
  -5980717.64749  -4659441.04048  23734006.7954   23734004.3074
       800.3284
 04  9 10 22 44  0.0060000  0  6G 8G13G10G19G27G28
  -2663098.51749  -2074356.75748  22345226.4984   22345223.4864
      -348.4224
  18394098.29149  14323907.90148  23772041.8574   23772039.6864
     -4467.3914
   2521389.20949   1969503.94247  25122051.0214   25122049.5374
     -1995.3444
    737816.58849    576284.55248  24190546.4284   24190542.3614
     -1900.3444
   4866410.79949   3787819.69748  22428043.8814   22428041.2444
     -1491.6874
  -5992679.87449  -4668762.24048  23731730.5374   23731727.6234
       794.5314
 04  9 10 22 44 15.0060000  0  6G 8G13G10G19G27G28
  -2657841.82949  -2070260.63948  22346226.8574   22346224.4324
      -352.6254
  18461150.47149  14376156.34148  23784801.2794   23784799.0534
     -4473.0784
   2551386.42549   1992878.39447  25127759.5764   25127758.6664
     -2004.5164
    766391.64149    598550.82748  24195983.6394   24195979.5534
     -1909.7974
   4888813.70349   3805276.49748  22432307.3424   22432304.7834
     -1495.5004
  -6004560.33249  -4678019.71748  23729469.8344   23729467.1974
       789.2664
 04  9 10 22 44 30.0060000  0  6G 8G13G10G19G27G28
  -2652517.96249  -2066112.16148  22347239.9514   22347237.4984
      -357.1094
  18528291.92749  14428474.32148  23797578.0064   23797575.8814
     -4479.0624
   2581523.62449   2016361.92847  25133494.5534   25133493.4474
     -2013.8284
    795113.16649    620931.24848  24201449.0454   24201445.6824
     -1919.6254
   4911278.02549   3822781.16448  22436582.0534   22436578.9324
     -1499.6414
  -6016359.48049  -4687213.82048  23727224.1074   23727221.6314
       783.8444
 04  9 10 22 44 45.0060000  0  6G 8G13G10G19G27G28
  -2647132.69849  -2061915.84348  22348264.4124   22348262.1194
      -361.1414
  18595516.72649  14480857.25348  23810370.4204   23810368.2874
     -4484.5004
   2611794.70149   2039949.77947  25139254.1234   25139253.5724
     -2022.5624
    823975.23949    643421.18548  24206941.5534   24206937.4364
     -1928.9534
   4933798.01349   3840329.20348  22440867.2644   22440865.0454
     -1503.2344
  -6028083.08149  -4696349.06948  23724993.5684   23724990.6034
       778.9844
 04  9 10 22 45  0.0060000  0  6G 8G13G10G19G27G28
  -2641681.29149  -2057667.98148  22349301.9124   22349299.5294
      -365.5314
  18662828.80449  14533308.19648  23823179.7174   23823177.6974
     -4490.2664
   2642203.88049   2063645.24047  25145041.6934   25145040.5334
     -2031.7344
    852982.25349    666024.06048  24212461.5294   24212457.5454
     -1938.5164
   4956378.01449   3857924.01348  22445164.3964   22445161.6394
     -1507.1724
  -6039726.76649  -4705422.04448  23722777.9124   23722775.0334
       773.7194
 04  9 10 22 45 15.0060000  0  6G 8G13G10G19G27G28
  -2636163.52649  -2053368.43948  22350351.9044   22350349.7794
      -369.7344
  18730228.28649  14585827.26148  23836005.1004   23836002.8304
     -4495.8594
   2672751.39949   2087448.49047  25150854.5064   25150853.2054
     -2040.6724
    882134.43049    688740.05148  24218008.6074   24218004.8264
     -1947.9224
   4979018.56649   3875566.00748  22449472.6864   22449470.1824
     -1511.0004
  -6051289.93649  -4714432.28048  23720577.4674   23720574.3534
       768.5944
 04  9 10 22 45 30.0060000  0  6G 8G13G10G19G27G28
  -2630580.38449  -2049017.91248  22351414.1234   22351411.7604
      -374.5004
  18797714.12549  14638413.60047  23848847.2484   23848845.1354
     -4502.1564
   2703436.24449   2111358.74047  25156693.3964   25156692.5414
     -2050.4534
    911430.88449    711568.46848  24223583.8264   24223580.1354
     -1958.1564
   5001718.91149   3893254.58648  22453792.3424   22453789.3144
     -1515.5624
  -6062773.48549  -4723380.46748  23718392.1004   23718389.2324
       762.7664
 04  9 10 22 45 45.0060000  0  6G 8G13G10G19G27G28
  -2624935.93449  -2044619.63448  22352488.6074   22352485.8384
      -378.6564
  18865281.62949  14691063.57147  23861705.0764   23861703.3854
     -4507.5164
   2734253.82449   2135372.42947  25162557.7094   25162556.6744
     -2059.2034
    940867.18649    734505.84248  24229185.2714   24229181.3384
     -1967.4374
   5024474.69249   3910986.36448  22458122.7404   22458119.7794
     -1519.1874
  -6074181.74949  -4732270.00448  23716221.3114   23716218.2874
       757.7814
 04  9 10 22 46  0.0060000  0  6G 8G13G10G19G27G28
  -2619225.93349  -2040170.28648  22353574.9204   22353572.3654
      -382.8754
  18932934.72349  14743780.24547  23874579.0614   23874577.1624
     -4513.1094
   2765208.14149   2159492.67947  25168448.0214   25168447.2094
     -2068.2034
    970447.47449    757555.43448  24234813.9824   24234810.1624
     -1976.8124
   5047290.06449   3928764.57648  22462464.0924   22462461.5764
     -1523.0944
  -6085510.47349  -4741097.55548  23714065.2174   23714062.3344
       752.5944
 04  9 10 22 46 15.0060000  0  6G 8G13G10G19G27G28
  -2613446.90449  -2035667.13948  22354674.8184   22354672.8424
      -387.7034
  19000676.51049  14796566.02548  23887469.8964   23887467.6974
     -4519.2504
   2796302.30249   2183721.89247  25174365.0684   25174364.4634
     -2077.7194
   1000175.20049    780719.90148  24240471.4514   24240467.0724
     -1986.9064
   5070168.59849   3946591.99648  22466817.7174   22466815.1974
     -1527.4534
  -6096756.21449  -4749860.44548  23711925.3654   23711921.9474
       746.7974
 04  9 10 22 46 30.0060000  0  6G 8G13G10G19G27G28
  -2607603.68849  -2031113.98248  22355786.5454   22355784.2604
      -391.2194
  19068501.82349  14849416.88648  23900376.7484   23900374.6704
     -4523.9374
   2827531.24349   2208056.12347  25180307.7324   25180306.7134
     -2085.9224
   1030045.17449    803995.21548  24246155.4984   24246151.1544
     -1995.6564
   5093105.29349   3964464.74248  22471182.5614   22471179.7604
     -1530.6254
  -6107923.89149  -4758562.50248  23709800.0294   23709797.1234
       742.4694
 04  9 10 22 46 45.0060000  0  6G 8G13G10G19G27G28
  -2601695.61849  -2026510.28348  22356910.8504   22356908.2134
      -396.2034
  19136411.13749  14902333.22048  23913299.3814   23913297.4784
     -4530.2504
   2858895.38149   2232495.70747  25186276.3574   25186275.1974
     -2095.6094
   1060058.11849    827381.91948  24251866.5214   24251862.4754
     -2005.7664
   5116101.05149   3982383.51948  22475558.7014   22475555.5764
     -1535.2034
  -6119012.81449  -4767203.19848  23707689.7644   23707686.8734
       736.4844
 04  9 10 22 47  0.0060000  0  6G 8G13G10G19G27G28
  -2595714.13549  -2021849.38048  22358048.9674   22358046.3814
      -400.8124
  19204412.38749  14955321.18248  23926239.1154   23926237.4284
     -4536.1094
   2890402.92249   2257047.02247  25192271.6234   25192270.9864
     -2104.8444
   1090222.23449    850886.44948  24257606.6464   24257602.7524
     -2015.6254
   5139164.12549   4000354.75148  22479947.3814   22479944.3694
     -1539.4694
  -6130014.50949  -4775775.91848  23705596.2324   23705593.3574
       730.9694
 04  9 10 22 47 15.0060000  0  6G 8G13G10G19G27G28
  -2589673.84649  -2017142.66448  22359198.6004   22359196.1504
      -405.2814
  19272490.67049  15008369.15347  23939194.1154   23939192.3464
     -4541.7504
   2922039.07549   2281698.56147  25198292.2714   25198290.7834
     -2113.9694
   1120522.79749    874497.27648  24263372.6784   24263369.3304
     -2025.1724
   5162280.08649   4018367.18248  22484346.0684   22484343.3814
     -1543.3754
  -6140943.67549  -4784292.13248  23703516.5924   23703513.2834
       725.5784
 04  9 10 22 47 30.0060000  0  6G 8G13G10G19G27G28
  -2583569.48049  -2012385.99648  22360360.1074   22360357.9824
      -409.1724
  19340651.08849  15061481.14547  23952165.4284   23952162.6544
     -4546.8914
   2953808.93749   2306454.30047  25204337.2714   25204337.1234
     -2122.5004
   1150965.07749    898218.54148  24269165.8814   24269161.7324
     -2034.2974
   5185454.21849   4036424.93648  22488755.9434   22488753.2914
     -1547.0314
  -6151794.85549  -4792747.56848  23701451.7014   23701448.5964
       720.6254
 04  9 10 22 47 45.0060000  0  6G 8G13G10G19G27G28
  -2577400.40949  -2007578.93248  22361534.0764   22361531.5884
      -413.0624
  19408893.77049  15114657.25347  23965151.3814   23965149.0884
     -4551.7664
   2985712.75749   2331314.40647  25210408.7254   25210408.0724
     -2131.0474
   1181549.40249    922050.48148  24274985.7644   24274981.6864
     -2043.3124
   5208686.97049   4054528.40648  22493176.9204   22493174.1234
     -1550.4844
  -6162567.75749  -4801142.01148  23699401.6934   23699398.7714
       716.0164
 04  9 10 22 48  0.0060000  0  6G 8G13G10G19G27G28
  -2571167.40949  -2002722.03748  22362720.2014   22362717.8614
      -417.8594
  19477217.79849  15167896.70947  23978153.0064   23978150.9754
     -4557.8914
   3017749.66949   2356278.22147  25216505.4984   25216504.4004
     -2140.3444
   1212275.11349    945992.60948  24280832.5764   24280828.6504
     -2053.3124
   5231977.80949   4072677.09348  22497609.4904   22497606.5924
     -1554.8444
  -6173262.87649  -4809475.84948  23697366.2564   23697363.9714
       710.2194
 04  9 10 22 48 15.0060000  0  6G 8G13G10G19G27G28
  -2564866.27849  -1997812.07648  22363919.3574   22363916.5574
      -422.3284
  19545626.93549  15221202.50947  23991170.8574   23991168.6934
     -4563.4224
   3049923.50149   2381348.71447  25222627.0374   25222626.6664
     -2149.5314
   1243146.10649    970047.91848  24286707.2644   24286703.2324
     -2062.8914
   5255330.69749   4090874.15748  22502052.9984   22502050.2954
     -1558.9534
  -6183876.08249  -4817745.86348  23695346.7404   23695343.9824
       704.8754
 04  9 10 22 48 30.0060000  0  6G 8G13G10G19G27G28
  -2558502.35349  -1992853.16748  22365130.0454   22365127.4394
      -426.8754
  19614115.54749  15274570.23647  24004203.6934   24004201.7254
     -4569.1724
   3082228.62249   2406521.53847  25228775.3894   25228774.3654
     -2158.6724
   1274156.81349    994212.11348  24292608.1464   24292604.3034
     -2072.5784
   5278740.46049   4109115.52948  22506507.7324   22506504.8114
     -1563.1874
  -6194412.69849  -4825956.18648  23693341.6074   23693338.7134
       699.4224
 04  9 10 22 48 45.0060000  0  6G 8G13G10G19G27G28
  -2552070.06849  -1987840.99048  22366354.2954   22366352.0884
      -431.2344
  19682688.68549  15328003.80848  24017252.4204   24017250.6004
     -4574.4064
   3114670.29849   2431800.74247  25234948.5144   25234948.2364
     -2167.5004
   1305312.72149   1018489.45748  24298536.5764   24298533.0104
     -2082.0314
   5302212.57749   4127405.48848  22510974.2404   22510971.4824
     -1567.0474
  -6204867.38449  -4834102.66148  23691352.1934   23691349.4784
       694.1094
 04  9 10 22 49  0.0060000  0  6G 8G13G10G19G27G28
  -2545570.84649  -1982776.65048  22367591.2564   22367588.7874
      -435.5784
  19751344.81149  15381502.06547  24030317.6074   24030315.4124
     -4579.9224
   3147246.98049   2457185.17047  25241148.0614   25241146.7994
     -2176.4534
   1336612.41449   1042878.83048  24304493.1394   24304489.3574
     -2091.5474
   5325745.78049   4145743.04748  22515452.5844   22515450.2364
     -1570.9534
  -6215241.39949  -4842186.28548  23689378.1154   23689374.9204
       688.8284
 04  9 10 22 49 15.0060000  0  6G 8G13G10G19G27G28
  -2539010.56149  -1977664.73248  22368839.4594   22368837.0494
      -439.2344
  19820077.52449  15435060.00447  24043397.0294   24043395.2754
     -4584.6094
   3179952.51249   2482669.97547  25247371.1544   25247370.5214
     -2184.5314
   1368049.77949   1067375.49548  24310475.0374   24310471.3694
     -2100.2974
   5349334.07949   4164123.55348  22519941.3114   22519938.5574
     -1574.2194
  -6225540.69249  -4850211.68148  23687418.0844   23687415.1894
       684.2344
 04  9 10 22 49 30.0060000  0  6G 8G13G10G19G27G28
  -2532384.05549  -1972501.21748  22370100.4984   22370098.1624
      -443.8914
  19888891.60049  15488681.33347  24056491.9674   24056489.5574
     -4590.2344
   3212791.51549   2508258.79247  25253620.5844   25253619.6034
     -2193.5784
   1399629.63049   1091983.17248  24316484.4514   24316480.6434
     -2109.9534
   5372982.47049   4182550.85848  22524441.3654   22524438.3614
     -1578.4694
  -6235760.34849  -4858175.02948  23685473.5614   23685470.2954
       678.7974
 04  9 10 22 49 45.0060000  0  6G 8G13G10G19G27G28
  -2525687.41649  -1967283.05248  22371374.9284   22371372.5804
      -448.1564
  19957790.64249  15542368.87847  24069602.8114   24069601.1784
     -4595.4374
   3245767.88349   2533954.67647  25259895.8734   25259894.7014
     -2202.4374
   1431355.87749   1116704.93048  24322522.0614   24322518.0454
     -2119.3444
   5396694.94449   4201028.11148  22528953.6704   22528951.0024
     -1582.3444
  -6245896.34549  -4866073.19048  23683544.5684   23683541.6394
       673.5784
 04  9 10 22 50  0.0060000  0  6G 8G13G10G19G27G28
  -2518924.68549  -1962013.38148  22372661.7094   22372659.1824
      -452.7664
  20026770.48949  15596119.36547  24082729.2484   24082727.2754
     -4601.0314
   3278877.31449   2559754.22847  25266196.1394   25266195.6584
     -2211.3914
   1463224.37449   1141537.52948  24328586.6624   24328582.3424
     -2129.0164
   5420467.52049   4219552.19848  22533477.3734   22533474.9554
     -1586.5004
  -6255952.65449  -4873909.24848  23681631.1934   23681627.6934
       668.0944
 04  9 10 22 50 15.0060000  0  6G 8G13G10G19G27G28
  -2512098.71549  -1956694.44948  22373960.4984   22373958.1934
      -457.0624
  20095827.65949  15649930.11747  24095870.4434   24095868.4394
     -4606.2814
   3312116.54649   2585654.89847  25272521.2014   25272520.7754
     -2220.1094
   1495231.93849   1166478.48848  24334677.0924   24334672.8504
     -2138.3594
   5444297.35849   4238120.90148  22538012.3114   22538009.3854
     -1590.4374
  -6265932.35849  -4881685.61948  23679731.8654   23679729.1974
       662.9064
 04  9 10 22 50 30.0060000  0  6G 8G13G10G19G27G28
  -2505200.15649  -1951318.92448  22375273.4754   22375270.5494
      -462.0314
  20164971.29649  15703808.24847  24109028.1934   24109026.4864
     -4612.1564
   3345494.56649   2611663.76547  25278873.1864   25278872.3614
     -2229.5314
   1527387.70049   1191534.94448  24340796.5534   24340792.5924
     -2148.3594
   5468193.63349   4256741.37248  22542559.5144   22542556.9434
     -1595.0624
  -6275826.04249  -4889394.94148  23677849.2874   23677845.5494
       656.9694
 04  9 10 22 50 45.0060000  0  6G 8G13G10G19G27G28
  -2498240.66549  -1945895.95348  22376597.6394   22376595.0254
      -465.8284
  20234189.20949  15757744.25647  24122199.7794   24122197.6624
     -4616.8444
   3378999.49949   2637771.46347  25285248.9514   25285248.2834
     -2237.6874
   1559679.99349   1216697.77048  24346941.0534   24346937.5844
     -2157.2194
   5492144.75749   4275404.59048  22547117.0454   22547113.9714
     -1598.3594
  -6285645.55749  -4897046.50048  23675980.6624   23675977.1704
       652.3134
 04  9 10 22 51  0.0060000  0  6G 8G13G10G19G27G28
  -2491211.44749  -1940418.62248  22377935.3504   22377932.9474
      -470.5004
  20303489.99349  15811744.84147  24135387.6234   24135385.6004
     -4622.4534
   3412639.91149   2663984.79247  25291650.5374   25291649.5494
     -2246.8594
   1592117.41249   1241973.69748  24353113.8734   24353110.1234
     -2166.9374
   5516159.54249   4294117.40348  22551686.8344   22551684.1114
     -1602.7194
  -6295382.01549  -4904633.31248  23674127.9594   23674124.4824
       646.6884
 04  9 10 22 51 15.0060000  0  6G 8G13G10G19G27G28
  -2484117.82549  -1934891.12548  22379285.1154   22379282.4364
      -475.5314
  20372867.93449  15865805.52847  24148589.9594   24148587.7054
     -4628.1414
   3446410.19149   2690299.28947  25298076.9284   25298076.2684
     -2256.0784
   1624694.48149   1267358.43048  24359312.8264   24359309.2754
     -2176.9064
   5540232.69049   4312875.70848  22556267.9434   22556265.5144
     -1607.2814
  -6305040.73349  -4912159.56648  23672289.5844   23672286.3114
       640.8914
 04  9 10 22 51 30.0060000  0  6G 8G13G10G19G27G28
  -2476961.43649  -1929314.70648  22380646.9124   22380644.6354
      -479.3284
  20442321.04749  15919924.82547  24161805.9594   24161803.9904
     -4632.8754
   3480308.39449   2716713.46347  25304526.9594   25304526.6974
     -2264.2814
   1657409.52549   1292850.67648  24365538.1464   24365534.6624
     -2185.7504
   5564362.52349   4331678.17748  22560859.4824   22560857.1004
     -1610.7504
  -6314623.39549  -4919626.54948  23670466.2794   23670463.2324
       636.0784
 04  9 10 22 51 45.0060000  0  6G 8G13G10G19G27G28
  -2469740.67249  -1923688.13248  22382021.0454   22382018.6234
      -483.8594
  20511850.74549  15974103.77447  24175037.1464   24175034.9594
     -4638.2504
   3514335.98549   2743228.45447  25311002.6234   25311001.8774
     -2273.0944
   1690263.90649   1318451.49848  24371790.6464   24371786.8144
     -2195.2664
   5588550.80049   4350526.18148  22565462.3424   22565459.9044
     -1614.8754
  -6324128.31749  -4927032.96448  23668657.3424   23668654.2054
       630.7344
 04  9 10 22 52  0.0060000  0  6G 8G13G10G19G27G28
  -2462449.67649  -1918006.83448  22383408.6784   22383406.2254
      -488.7664
  20581462.50749  16028346.66947  24188283.6314   24188281.8184
     -4643.8124
   3548498.41349   2769848.51047  25317503.1154   25317502.7834
     -2282.2504
   1723263.22249   1344165.25148  24378069.7324   24378066.1074
     -2205.2034
   5612803.21649   4369424.15848  22570077.6234   22570074.9904
     -1619.2974
  -6333549.77349  -4934374.34048  23666864.4904   23666861.3534
       624.9694
 04  9 10 22 52 15.0060000  0  6G 8G13G10G19G27G28
  -2455086.12249  -1912268.99748  22384809.7174   22384807.6504
      -493.1564
  20651158.12849  16082654.92847  24201546.3574   24201544.5024
     -4649.0624
   3582797.61249   2796575.15647  25324030.0294   25324029.2874
     -2291.0784
   1756409.58949   1369993.60748  24384377.7954   24384373.9434
     -2214.5624
   5637122.08949   4388373.93148  22574705.5144   22574703.0804
     -1623.3284
  -6342885.55049  -4941648.94148  23665087.7254   23665084.9824
       619.5944
 04  9 10 22 52 30.0060000  0  6G 8G13G10G19G27G28
  -2447654.74049  -1906478.29448  22386223.6314   22386221.2284
      -497.3124
  20720932.65849  16137024.66147  24214823.9284   24214822.0804
     -4653.8914
   3617228.66749   2823404.54747  25330582.2484   25330581.5214
     -2299.4844
   1789698.30249   1395932.86748  24390712.5614   24390708.4044
     -2223.5944
   5661502.69449   4407371.81048  22579344.8344   22579342.0574
     -1627.0784
  -6352140.42949  -4948860.50748  23663326.7874   23663323.7404
       614.6884
 04  9 10 22 52 45.0060000  0  6G 8G13G10G19G27G28
  -2440154.72049  -1900634.13048  22387651.0684   22387649.0064
      -501.9064
  20790786.23349  16191455.98847  24228117.2484   24228114.8654
     -4659.2344
   3651791.72249   2850336.76247  25337159.7014   25337158.7444
     -2308.2344
   1823129.56949   1421983.20548  24397073.9984   24397070.3934
     -2233.1094
   5685945.64549   4426418.26248  22583996.2794   22583993.4984
     -1631.2814
  -6361313.86649  -4956008.62448  23661581.4364   23661578.1314
       609.2504
 04  9 10 22 53  0.0060000  0  6G 8G13G10G19G27G28
  -2432594.13549  -1894742.75448  22389090.0294   22389087.3304
      -506.6254
  20860710.54649  16245942.41847  24241423.2874   24241421.3114
     -4664.6094
   3686478.77049   2877365.62847  25343760.0064   25343759.0064
     -2317.2344
   1856695.48249   1448138.46648  24403461.1864   24403457.8184
     -2242.7814
   5710443.02249   4445507.12448  22588657.8184   22588655.3774
     -1635.5784
  -6370413.52049  -4963099.23448  23659849.6704   23659846.3144
       603.5474
 04  9 10 22 53 15.0060000  0  6G 8G13G10G19G27G28
  -2424958.89349  -1888793.20448  22390542.4204   22390540.3504
      -511.5004
  20930719.29149  16300494.66647  24254745.2324   24254743.4124
     -4670.0004
   3721303.27349   2904501.60347  25350386.8114   25350386.5414
     -2326.1414
   1890409.60749   1474409.22948  24409876.8894   24409873.1004
     -2252.5314
   5735008.63649   4464649.16548  22593332.8114   22593330.0884
     -1639.9374
  -6379425.89249  -4970121.84348  23658134.5454   23658131.8464
       597.9534
 04  9 10 22 53 30.0060000  0  6G 8G13G10G19G27G28
  -2417256.22349  -1882791.12348  22392008.3734   22392005.6504
      -515.6254
  21000804.94449  16355106.82747  24268081.8734   24268080.5334
     -4674.7664
   3756257.99449   2931739.03147  25357038.4754   25357038.1784
     -2334.5004
   1924264.73949   1500789.85648  24416319.3114   24416315.4394
     -2261.5624
   5759635.59549   4483838.99748  22598018.7874   22598016.5454
     -1643.7034
  -6388357.87349  -4977081.79648  23656434.7564   23656431.5684
       592.9224
 04  9 10 22 53 45.0060000  0  6G 8G13G10G19G27G28
  -2409489.86249  -1876739.39848  22393486.2874   22393483.4594
      -520.7194
  21070963.50049  16409775.80447  24281432.9284   24281431.1274
     -4680.5474
   3791338.97849   2959074.83447  25363714.8964   25363713.3894
     -2343.8754
   1958257.11349   1527277.41448  24422787.9754   24422784.1074
     -2271.5474
   5784320.21849   4503073.77548  22602716.2714   22602713.7324
     -1648.4064
  -6397213.28449  -4983982.10448  23654749.8894   23654746.2324
       586.9694
 04  9 10 22 54  0.0060000  0  6G 8G13G10G19G27G28
  -2401652.09849  -1870632.04948  22394977.8424   22394975.1464
      -525.0944
  21141202.36049  16464507.34247  24294798.6704   24294797.0294
     -4685.3914
   3826553.52849   2986514.75747  25370415.7324   25370414.8694
     -2352.2974
   1992394.19449   1553877.74648  24429284.0214   24429280.2794
     -2280.7664
   5809069.91049   4522359.23948  22607426.2094   22607423.1354
     -1652.2974
  -6405984.50949  -4990816.79548  23653080.6394   23653077.1664
       581.7814
 04  9 10 22 54 15.0060000  0  6G 8G13G10G19G27G28
  -2393740.93749  -1864467.49648  22396483.1154   22396480.5684
      -529.9064
  21211523.11549  16519302.71147  24308180.7644   24308179.2604
     -4690.7194
   3861903.30849   3014059.99847  25377142.2954   25377141.8224
     -2361.2034
   2026677.75949   1580592.21448  24435808.0374   24435803.8424
     -2290.4064
   5833886.88149   4541697.13148  22612148.5924   22612146.0644
     -1656.7034
  -6414669.54949  -4997584.33648  23651428.1004   23651424.9284
       576.1414
 04  9 10 22 54 30.0060000  0  6G 8G13G10G19G27G28
  -2385756.78049  -1858246.06048  22398002.6934   22398000.0024
      -534.7504
  21281924.97149  16574161.27447  24321577.6464   24321575.3344
     -4696.2664
   3897387.54249   3041710.05447  25383894.8504   25383894.1504
     -2370.0474
   2061107.21049   1607420.35748  24442359.4124   24442355.5294
     -2300.1724
   5858770.61849   4561087.06048  22616883.5764   22616881.0614
     -1661.1724
  -6423268.87349  -5004285.08748  23649791.6624   23649788.1114
       570.3594
 04  9 10 22 54 45.0070000  0  6G 8G13G10G19G27G28
  -2377706.24049  -1851972.91648  22399534.7844   22399531.7764
      -539.0164
  21352405.06749  16629080.78147  24334989.5034   24334987.9254
     -4700.8754
   3933001.11049   3069460.87247  25390671.7454   25390671.3274
     -2378.4224
   2095677.45249   1634358.21148  24448937.9564   24448934.3514
     -2309.2664
   5883715.60649   4580524.70548  22621630.7144   22621627.9014
     -1665.0004
  -6431790.24649  -5010925.10248  23648169.6984   23648166.2334
       565.3134
 04  9 10 22 55  0.0070000  0  6G 8G13G10G19G27G28
  -2369587.91549  -1845646.93248  22401079.1834   22401076.5694
      -542.4844
  21422956.19949  16684055.66547  24348415.3314   24348413.3744
     -4704.9694
   3968741.60549   3097310.58947  25397473.0034   25397472.3704
     -2385.9374
   2130386.25049   1661404.02648  24455543.0504   24455539.0774
     -2317.5624
   5908721.10149   4600009.51948  22626388.9484   22626386.0974
     -1668.0624
  -6440230.12849  -5017501.61848  23646563.9724   23646561.0224
       560.9534
 04  9 10 22 55 15.0070000  0  6G 8G13G10G19G27G28
  -2361408.83949  -1839273.62348  22402635.9334   22402633.5734
      -547.6874
  21493574.99549  16739083.26847  24361853.5974   24361851.5384
     -4710.5784
   4004603.41849   3125254.84547  25404297.1984   25404296.5614
     -2395.2344
   2165228.02449   1688553.46548  24462173.0584   24462169.4404
     -2327.6254
   5933780.97149   4619536.69048  22631157.5654   22631154.6444
     -1672.9064
  -6448596.72349  -5024021.01348  23644971.6834   23644968.4294
       554.8914
 04  9 10 22 55 30.0070000  0  6G 8G13G10G19G27G28
  -2353155.43649  -1832842.38748  22404206.4014   22404203.9524
      -551.9534
  21564274.67749  16794173.86947  24375307.1364   24375305.5464
     -4715.3444
   4040599.91649   3153304.07247  25411147.7294   25411146.5464
     -2403.4844
   2200216.24949   1715817.03248  24468831.2374   24468827.1444
     -2336.7344
   5958908.89449   4639116.87548  22635939.5974   22635937.1834
     -1676.7344
  -6456876.43749  -5030472.71648  23643395.9724   23643392.9644
       549.7664
 04  9 10 22 55 45.0070000  0  6G 8G13G10G19G27G28
  -2344838.74349  -1826361.83948  22405789.0264   22405786.4294
      -557.0164
  21635043.95649  16849318.73847  24388774.4644   24388772.0074
     -4720.7344
   4076719.74949   3181449.39447  25418020.5894   25418019.9994
     -2412.5784
   2235339.67949   1743185.93048  24475514.9484   24475511.4054
     -2346.5314
   5984094.00749   4658741.64448  22640731.9954   22640729.2724
     -1681.3284
  -6465080.50149  -5036865.47348  23641834.7764   23641831.9134
       544.0004
 04  9 10 22 56  0.0070000  0  6G 8G13G10G19G27G28
  -2336451.81149  -1819826.55948  22407385.0814   22407382.4794
      -561.2974
  21705889.22049  16904522.79547  24402255.3154   24402253.5224
     -4725.3594
   4112969.34849   3209695.81647  25424919.0734   25424918.0384
     -2420.7194
   2270604.89249   1770665.31948  24482225.3784   24482221.7654
     -2355.5944
   6009342.88349   4678416.09648  22645536.9014   22645534.2104
     -1685.1874
  -6473202.00149  -5043193.89848  23640289.2534   23640286.1984
       538.9064
 04  9 10 22 56 15.0070000  0  6G 8G13G10G19G27G28
  -2327995.68949  -1813237.37048  22408993.9874   22408991.6634
      -565.8754
  21776809.15149  16959785.05247  24415751.1984   24415749.2374
     -4730.2814
   4149347.51849   3238042.44347  25431841.4874   25431841.0584
     -2429.2974
   2306010.82049   1798254.35148  24488963.2694   24488958.7694
     -2364.8914
   6034654.66449   4698139.56148  22650353.2764   22650350.9014
     -1689.3444
  -6481242.04949  -5049458.85748  23638759.5034   23638756.1474
       533.4844
 04  9 10 22 56 30.0070000  0  6G 8G13G10G19G27G28
  -2319471.65649  -1806595.25648  22410616.1514   22410613.3664
      -570.4844
  21847802.25949  17015104.33247  24429260.6044   24429259.6164
     -4735.2194
   4185852.69849   3266488.01347  25438788.5114   25438786.9724
     -2437.8124
   2341556.09949   1825951.97248  24495727.2764   24495723.3194
     -2374.2034
   6060028.11749   4717911.08148  22655181.8944   22655178.9484
     -1693.5164
  -6489201.75249  -5055661.19948  23637244.6444   23637241.3864
       528.0004
 04  9 10 22 56 45.0070000  0  6G 8G13G10G19G27G28
  -2310875.09549  -1799896.62948  22412251.8864   22412249.2924
      -575.5314
  21918872.72649  17070483.87147  24442785.2224   24442783.7334
     -4740.5944
   4222489.07049   3295035.84347  25445759.5974   25445759.3194
     -2446.7814
   2377244.95849   1853761.47548  24502518.5424   24502514.9444
     -2383.9844
   6085467.77349   4737734.19048  22660022.8474   22660019.9404
     -1698.1254
  -6497076.73649  -5061797.52448  23635746.0194   23635742.6514
       522.1884
 04  9 10 22 57  0.0070000  0  6G 8G13G10G19G27G28
  -2302204.96249  -1793140.67448  22413901.8394   22413899.2574
      -581.0004
  21990021.26849  17125924.26047  24456324.2534   24456322.2964
     -4746.3124
   4259257.47449   3323686.52847  25452756.2224   25452755.4834
     -2456.1724
   2413078.33249   1881683.58948  24509337.3624   24509333.8084
     -2394.2194
   6110974.85449   4757609.84748  22664876.8544   22664874.1444
     -1703.2504
  -6504865.88349  -5067866.97948  23634264.1124   23634261.0424
       515.9694
 04  9 10 22 57 15.0070000  0  6G 8G13G10G19G27G28
  -2293465.08049  -1786330.36548  22415564.9954   22415562.7694
      -585.7034
  22061243.60749  17181422.15547  24469877.1984   24469875.7614
     -4751.3124
   4296153.64249   3352436.78147  25459778.0034   25459777.1284
     -2464.7664
   2449052.12349   1909715.12348  24516182.9014   24516179.2294
     -2403.6564
   6136545.29449   4777534.86548  22669742.6284   22669739.9794
     -1707.5624
  -6512573.16649  -5073872.62948  23632797.1904   23632794.0114
       510.3754
 04  9 10 22 57 30.0070000  0  7G29G 8G13G10G19G27G28
    -78483.42259    -54412.10957  26255347.3784   26255346.9524
      1773.9224
  -2284653.86049  -1779464.47048  22417241.5034   22417239.1594
      -589.7814
  22132540.96249  17236978.49147  24483444.8474   24483443.5774
     -4755.6564
   4333178.91449   3381287.60947  25466823.5424   25466822.6324
     -2472.6874
   2485167.72849   1937857.15148  24523055.4484   24523051.7804
     -2412.4534
   6162180.69249   4797510.50248  22674620.7144   22674618.2964
     -1711.2194
  -6520197.08649  -5079813.31648  23631346.5654   23631343.5384
       505.5164
 04  9 10 22 57 45.0070000  0  7G29G 8G13G10G19G27G28
   -105075.18149    -75132.92946  26250287.3624   26250286.7654
      1771.7034
  -2275775.46649  -1772546.24948  22418931.1834   22418928.8234
      -594.0624
  22203908.93449  17292589.87547  24497026.0504   24497024.2534
     -4760.1254
   4370328.94749   3410235.68647  25473892.5424   25473892.2144
     -2480.6564
   2521420.93949   1966106.40548  24529954.2534   24529950.5774
     -2421.3594
   6187877.09349   4817533.68148  22679510.8084   22679508.0974
     -1715.0164
  -6527741.69549  -5085692.21648  23629910.5894   23629907.2724
       500.4224
 04  9 10 22 58  0.0070000  0  7G29G 8G13G10G19G27G28
   -131632.08049    -95826.56647  26245233.7764   26245233.1634
      1769.2194
  -2266831.40849  -1765576.84848  22420633.5114   22420630.8624
      -598.4534
  22275345.45549  17348254.65047  24510619.7924   24510617.8974
     -4764.7344
   4407601.64949   3439279.32847  25480985.9724   25480984.8004
     -2489.0314
   2557809.76449   1994461.33848  24536879.2224   24536875.0974
     -2430.4534
   6213632.67649   4837602.95348  22684411.9954   22684408.9484
     -1719.0314
  -6535208.75549  -5091510.69148  23628489.7144   23628486.7494
       495.1724
 04  9 10 22 58 15.0070000  0  7G29G 8G13G10G19G27G28
   -158153.21149   -116492.31546  26240187.6124   26240186.3194
      1767.1724
  -2257821.12149  -1758555.83748  22422347.8624   22422345.4214
      -602.5314
  22346850.74249  17403973.03847  24524226.5114   24524225.4294
     -4768.9534
   4444997.22049   3468418.72147  25488101.8154   25488100.9334
     -2496.7814
   2594334.60149   2022922.25548  24543829.2534   24543825.3194
     -2439.1874
   6239447.95749   4857718.75448  22689324.4644   22689321.8274
     -1722.6724
  -6542597.79849  -5097268.35748  23627083.5974   23627080.6084
       490.2974
 04  9 10 22 58 30.0070000  0  7G29G 8G13G10G19G27G28
   -184634.42149   -137127.00547  26235148.5424   26235147.2144
      1764.6094
  -2248740.42749  -1751479.96548  22424075.8864   22424073.1554
      -607.2344
  22418428.62849  17459747.97147  24537847.8624   24537846.0154
     -4773.7344
   4482519.54949   3497656.90447  25495241.8314   25495240.6904
     -2505.1414
   2630999.31949   2051492.17148  24550805.9644   24550802.3514
     -2448.4694
   6265327.21749   4877884.42348  22694249.0974   22694246.5654
     -1726.8914
  -6549904.67649  -5102962.01148  23625693.2144   23625689.8474
       484.8754
 04  9 10 22 58 45.0070000  0  7G29G 8G13G10G19G27G28
   -211076.26049   -157730.98446  26230116.7614   26230114.8664
      1761.4534
  -2239590.11449  -1744349.84148  22425817.0734   22425814.7534
      -612.3444
  22490077.71649  17515578.39947  24551482.2374   24551480.7024
     -4778.9694
   4520167.43549   3526992.90847  25502406.0194   25502405.2294
     -2514.0164
   2667802.94249   2080170.31448  24557809.7294   24557806.1474
     -2458.1564
   6291269.62649   4898099.27948  22699185.8474   22699183.2844
     -1731.5164
  -6557130.27749  -5108592.32748  23624317.8004   23624314.7064
       478.9534
 04  9 10 22 59  0.0070000  0  7G29G 8G13G10G19G27G28
   -237481.47449   -178306.42647  26225091.9254   26225090.4604
      1758.6254
  -2230373.29249  -1737167.89748  22427571.0114   22427568.7614
      -617.1564
  22561794.80349  17571461.79847  24565129.5424   24565127.6634
     -4783.8124
   4557937.63449   3556424.20847  25509593.6674   25509592.9604
     -2522.4064
   2704742.29149   2108954.22948  24564839.1124   24564835.3474
     -2467.5944
   6317272.16849   4918360.99548  22704133.6834   22704130.8584
     -1735.9534
  -6564277.68249  -5114161.71948  23622958.0034   23622954.5304
       473.4534
 04  9 10 22 59 15.0070000  0  7G29G 8G13G10G19G27G28
   -263846.11049   -198850.33447  26220074.2224   26220073.4254
      1756.3754
  -2221086.36549  -1729931.32248  22429338.3474   22429335.9524
      -621.4844
  22633583.09949  17627400.68047  24578790.3544   24578788.8904
     -4788.1874
   4595833.45849   3585953.43747  25516805.0424   25516803.9214
     -2530.5004
   2741820.82249   2137846.60548  24571895.0264   24571891.0544
     -2476.5314
   6343338.48449   4938672.41348  22709094.0974   22709091.7454
     -1739.8444
  -6571343.28149  -5119667.34948  23621612.9874   23621610.4834
       468.3134
 04  9 10 22 59 30.0070000  0  7G29G 8G13G10G19G27G28
   -290170.81749   -219363.02647  26215065.7534   26215063.8154
      1753.8754
  -2211729.80149  -1722640.50548  22431118.5584   22431116.1014
      -625.9224
  22705441.74349  17683394.40747  24592464.5734   24592462.4994
     -4792.6874
   4633853.91349   3615579.68947  25524040.2064   25524039.4644
     -2538.6724
   2779037.67449   2166846.73548  24578977.3394   24578973.3944
     -2485.4374
   6369467.93349   4959033.02548  22714066.4094   22714063.8824
     -1743.8284
  -6578327.68949  -5125109.73148  23620284.3944   23620280.9604
       463.1414
 04  9 10 22 59 45.0070000  0  7G29G 8G13G10G19G27G28
   -316451.85949   -239841.74247  26210063.6444   26210062.7454
      1750.9224
  -2202300.13949  -1715292.70648  22432913.2294   22432910.6864
      -630.7974
  22777373.69449  17739445.23047  24606152.7844   24606151.1014
     -4797.6254
   4672002.02449   3645305.48447  25531299.1834   25531298.5424
     -2547.1094
   2816395.96049   2195957.09448  24586086.1124   24586082.1324
     -2494.9694
   6395663.87449   4979445.44348  22719051.2144   22719048.5034
     -1748.2814
  -6585227.68349  -5130486.32548  23618971.2924   23618968.0034
       457.4844
 04  9 10 23  0  0.0070000  0  8G29G 8G13G10G19G31G27G28
   -342694.87549   -260290.78747  26205069.8394   26205069.0774
      1748.2344
  -2192803.38349  -1707892.62948  22434720.0974   22434718.0034
      -635.3284
  22849372.75749  17795548.38147  24619853.6904   24619852.3004
     -4802.1724
   4710271.64549   3675125.94747  25538581.9644   25538581.3584
     -2555.3124
   2853889.72949   2225173.01348  24593221.3004   24593217.2964
     -2504.1254
   -105486.72859    -74930.48057  26034261.6444   26034262.9174
      2442.1414
   6421920.54149   4999905.18448  22724047.8474   22724045.0774
     -1752.4224
  -6592049.08449  -5135801.68748  23617673.0654   23617669.8904
       452.1724
 04  9 10 23  0 15.0070000  0  8G29G 8G13G10G19G31G27G28
   -368892.64249   -280704.57947  26200085.0734   26200083.8864
      1745.6884
  -2183232.44649  -1700434.76248  22436541.6594   22436539.1594
      -639.7814
  22921445.65849  17851709.03347  24633568.4014   24633567.1674
     -4806.5314
   4748669.50349   3705046.35147  25545888.3544   25545887.7294
     -2563.3124
   2891525.78349   2254499.81348  24600382.7764   24600378.9134
     -2513.0784
   -142108.28049   -103466.62247  26027293.1444   26027293.5224
      2441.8284
   6448244.99949   5020417.74548  22729056.9484   22729054.4724
     -1756.4534
  -6598784.83449  -5141050.31348  23616391.5264   23616388.4294
       446.9534
 04  9 10 23  0 30.0070000  0  8G29G 8G13G10G19G31G27G28
   -395055.10049   -301090.88347  26195106.1754   26195105.2764
      1743.0314
  -2173597.39749  -1692926.91548  22438374.9954   22438372.9684
      -644.4064
  22993581.77949  17907918.95447  24647295.5034   24647294.4014
     -4811.0314
   4787185.22849   3735058.57547  25553218.1904   25553217.3514
     -2571.4844
   2929293.79649   2283929.42548  24607569.9874   24607566.0154
     -2522.1724
   -178728.01749   -132001.34547  26020324.3394   26020325.6044
      2441.2814
   6474627.01549   5040975.16648  22734077.3944   22734074.8824
     -1760.5944
  -6605445.13449  -5146240.13348  23615124.1514   23615120.8194
       441.6564
 04  9 10 23  0 45.0070000  0  8G29G 8G13G10G19G31G27G28
   -421174.22849   -321443.39447  26190135.5114   26190134.4724
      1739.6884
  -2163890.38749  -1685363.01748  22440222.2764   22440219.5344
      -649.6564
  23065788.67149  17964184.03247  24661036.2844   24661034.6794
     -4816.2194
   4825826.34449   3765168.52447  25560570.5974   25560569.9764
     -2580.4064
   2967201.33049   2313467.75948  24614783.9644   24614779.4724
     -2531.8914
   -215337.90549   -160528.44247  26013357.2694   26013358.1794
      2440.1564
   6501074.46049   5061583.56848  22739110.2064   22739107.7454
     -1765.4534
  -6612022.35649  -5151365.23048  23613872.3784   23613869.3234
       435.5944
 04  9 10 23  1  0.0070000  0  8G29G 8G13G10G19G31G27G28
   -447249.78849   -341761.97447  26185174.0424   26185172.3624
      1737.6724
  -2154111.43849  -1677743.04748  22442083.3004   22442080.8584
      -653.7194
  23138065.96349  18020503.96747  24674790.0974   24674788.6244
     -4820.1414
   4864592.42349   3795375.86747  25567947.8624   25567947.1474
     -2587.8754
   3005248.19049   2343114.66648  24622023.8474   24622019.8904
     -2540.4064
   -251937.69649   -189047.63547  26006393.2924   26006393.5694
      2440.3134
   6527587.25349   5082242.88948  22744155.4404   22744152.8864
     -1769.0164
  -6618516.50849  -5156425.58448  23612636.3704   23612633.4604
       430.9534
 04  9 10 23  1 15.0070000  0  8G29G 8G13G10G19G31G27G28
   -473289.64449   -362052.74947  26180219.0654   26180217.2414
      1735.0004
  -2144268.55749  -1670073.26348  22443956.1284   22443953.6864
      -658.1724
  23210405.11849  18076872.10647  24688556.0504   24688554.4794
     -4824.5474
   4903474.98649   3825673.94447  25575347.2144   25575346.1044
     -2595.8914
   3043426.09249   2372863.68148  24629288.2764   24629284.6404
     -2549.4064
   -288535.16949   -217565.06047  25999428.5974   25999429.5034
      2439.8754
   6554157.51849   5102946.98848  22749211.6124   22749208.6674
     -1773.0944
  -6624935.58949  -5161427.45248  23611414.8624   23611412.1164
       425.5944
 04  9 10 23  1 30.0070000  0  8G29G 8G13G10G19G31G27G28
   -499288.32649   -382311.42947  26175270.6834   26175269.8114
      1731.7344
  -2134356.48549  -1662349.56648  22445842.5734   22445840.3154
      -663.2664
  23282811.18649  18133292.36847  24702334.6514   24702332.6014
     -4829.4844
   4942479.08849   3856066.74947  25582769.7844   25582768.7414
     -2604.4844
   3081740.14449   2402718.79048  24636579.5264   24636575.5894
     -2559.0004
   -325124.83649   -246076.36447  25992465.7224   25992466.6904
      2438.9384
   6580790.43549   5123699.90648  22754279.7764   22754277.2494
     -1777.7974
  -6631274.44549  -5166366.79848  23610208.9334   23610205.8084
       419.7194
